GFSMA_sfc_dewp_000.txt.gz
Dewpoint
55 55 55 55 55 54 54 53 51 50 49 50 51 53 53 53 55 56 56 57 57 54 54 57 62 62 62 63 64 65 65 65 65 65 65 65 65 65 65 65 65 64 64
55 55 55 55 54 54 52 49 47 46 46 47 48 47 47 48 52 52 50 50 53 53 53 54 56 59 62 62 62 64 64 64 65 65 65 64 64 64 64 65 64 64 64
55 55 54 54 54 52 48 48 45 45 43 43 41 43 44 45 49 46 43 45 47 50 53 55 57 57 59 60 62 63 63 64 64 64 64 64 64 64 64 64 64 64 64
52 50 51 51 52 49 48 47 38 37 39 39 40 39 39 39 40 39 40 41 44 47 52 57 58 59 59 59 59 59 61 62 63 63 64 64 64 64 63 63 64 64 64
50 47 46 47 47 44 43 44 37 39 37 36 36 37 37 37 37 37 37 39 42 45 50 53 55 58 58 57 56 56 57 60 62 62 63 63 64 64 63 63 63 63 63
49 48 46 46 45 42 41 39 38 39 38 37 36 36 36 37 38 37 37 38 41 43 44 46 51 52 52 53 54 56 57 57 60 61 62 62 63 62 63 63 63 63 63
48 48 46 45 46 43 41 40 39 38 37 38 36 35 36 37 36 36 37 40 41 43 44 46 47 48 50 51 52 56 57 55 53 57 58 59 61 61 62 62 63 62 63
45 47 46 43 43 44 41 40 39 38 37 38 34 34 30 32 33 37 38 35 40 41 42 43 44 45 48 48 50 49 47 53 54 51 52 54 56 58 60 62 63 63 62
41 45 45 44 42 43 42 41 39 38 36 38 37 33 33 30 33 34 32 34 35 37 40 39 42 43 43 45 47 47 49 51 56 48 48 48 51 56 57 59 61 62 63
39 40 44 45 42 41 42 42 40 39 36 35 37 38 35 34 24 22 30 35 32 32 35 39 39 40 42 44 44 46 48 49 51 51 48 48 50 53 54 56 56 61 62
39 39 40 41 42 41 41 40 39 38 35 34 30 32 31 34 34 28 24 25 28 32 34 37 39 41 39 40 43 44 46 46 48 52 51 50 49 51 52 53 54 57 60
38 37 39 39 37 36 34 34 34 32 32 33 32 33 32 28 26 27 28 26 26 29 33 34 36 38 40 41 41 44 46 46 48 51 53 48 46 48 50 51 52 53 59
34 34 34 35 36 37 38 38 37 37 37 38 36 35 35 35 35 34 31 29 28 28 30 34 35 35 36 39 41 44 47 44 46 49 50 51 51 50 49 49 50 53 55
34 37 38 38 38 39 39 39 39 40 40 40 39 38 37 36 36 34 31 29 26 27 29 30 32 34 36 38 40 43 44 44 43 46 47 50 49 50 49 48 46 49 52
37 38 38 38 38 40 41 40 39 38 38 38 37 37 36 35 35 35 34 33 30 26 24 26 28 34 35 37 39 41 42 41 43 44 45 47 48 48 48 48 48 49 49
37 37 37 36 37 35 36 38 39 39 38 37 36 34 33 33 33 33 33 34 34 31 26 27 29 31 33 33 38 37 37 43 42 42 42 43 43 44 45 46 47 46 47
34 32 33 33 34 35 35 35 35 34 33 32 31 30 29 29 29 30 31 31 31 31 29 28 30 31 33 34 33 35 39 39 41 41 40 41 42 42 43 43 44 44 45
30 30 31 31 31 31 31 31 30 29 28 27 27 27 27 25 28 29 29 29 30 30 29 27 30 30 31 33 35 35 35 37 38 38 39 39 40 41 42 42 42 43 43
33 32 30 30 31 31 29 28 27 27 26 26 26 26 26 26 25 26 26 26 27 27 28 29 27 30 31 32 33 34 35 36 35 36 36 36 38 40 42 42 42 42 42
33 33 32 32 31 27 25 25 25 25 24 23 24 24 23 23 23 23 23 23 24 25 25 25 25 25 28 29 30 28 29 33 31 30 33 35 38 39 41 42 42 41 41
36 37 35 28 26 24 22 26 24 23 23 23 24 23 23 24 25 25 23 24 25 25 26 25 24 24 23 24 25 25 26 27 30 32 31 33 37 38 39 40 41 41 41
36 37 29 24 23 22 30 27 28 26 25 24 23 22 23 25 25 26 26 26 26 24 24 23 23 22 21 22 23 23 24 24 23 31 30 31 36 35 36 38 38 39 40
25 23 22 23 24 25 28 28 27 25 25 24 23 23 23 22 24 24 26 26 26 26 26 26 26 25 23 23 23 25 25 25 24 27 32 30 32 33 35 35 37 38 38
20 20 22 25 24 22 25 25 25 24 23 23 23 23 23 24 24 24 24 24 25 25 25 24 25 25 26 26 25 24 24 26 27 27 31 26 29 29 31 32 35 36 37
20 22 24 23 21 21 24 24 23 22 21 21 23 23 24 23 25 26 26 26 25 25 26 27 29 29 28 28 28 26 26 26 24 24 27 27 27 27 27 30 33 34 35
22 22 20 21 21 21 23 24 23 22 21 23 23 23 24 24 26 27 27 26 25 25 25 27 26 26 28 29 30 28 29 26 25 24 25 26 26 26 26 26 28 31 33

GFSMA_sfc_dewp_003.txt.gz
Dewpoint
61 60 59 59 60 60 59 59 57 50 48 48 51 50 48 49 51 45 45 53 53 52 52 54 55 58 61 63 63 63 63 64 65 65 65 64 64 64 64 65 65 65 65
61 59 59 59 59 59 59 57 51 46 46 48 48 46 45 46 48 46 40 42 50 51 54 56 57 57 58 59 62 63 63 63 64 65 65 64 64 63 63 64 64 64 64
59 59 59 59 59 59 59 53 49 47 45 45 44 44 45 45 45 43 42 41 43 50 53 56 56 59 58 57 59 60 61 63 63 63 64 64 64 63 63 63 63 64 64
57 58 57 57 58 59 57 53 49 44 40 41 42 40 40 41 42 42 41 41 40 41 48 51 54 54 54 54 55 55 57 60 62 63 63 64 64 64 64 63 63 63 64
55 56 54 54 56 54 54 52 48 45 39 40 38 39 40 38 40 36 39 41 43 44 42 49 52 52 51 53 52 53 55 56 57 59 62 62 63 63 63 63 63 63 63
53 54 53 53 53 50 50 48 47 43 40 40 34 34 39 39 39 39 38 33 41 41 42 46 46 45 50 49 47 49 52 56 56 54 58 60 62 62 63 63 63 63 63
48 51 50 51 52 50 49 49 46 45 41 42 39 38 38 41 41 38 39 37 37 41 44 45 39 37 37 47 44 47 48 49 52 53 53 55 56 57 60 61 62 61 64
44 44 48 48 49 48 50 50 48 44 42 43 37 37 34 35 37 39 38 40 41 40 40 35 36 35 34 36 44 47 48 48 49 50 50 49 52 55 58 59 60 62 61
43 44 45 45 47 48 47 49 49 47 42 42 43 37 34 32 33 37 39 35 42 37 35 32 34 31 35 40 41 43 47 48 52 50 53 48 49 52 56 58 58 60 62
43 42 43 44 45 46 47 47 47 48 46 42 41 39 41 37 33 31 33 34 35 32 33 34 32 32 34 29 41 44 46 47 48 49 48 49 49 51 54 54 56 55 57
42 41 41 42 43 43 44 46 46 46 44 43 40 39 37 34 34 27 26 28 29 30 32 33 31 35 30 33 37 40 45 46 48 51 50 50 50 50 51 52 52 54 55
39 39 39 41 40 40 40 40 40 41 40 39 37 36 33 30 28 29 28 28 31 32 30 30 32 31 33 32 35 42 45 45 46 49 52 52 50 48 49 50 50 49 51
37 38 39 40 39 40 40 40 41 41 40 40 40 39 39 38 37 36 34 34 32 31 28 30 31 32 29 31 36 40 42 42 42 47 49 50 50 50 49 47 47 48 48
37 39 39 39 40 41 41 41 41 41 40 39 39 39 38 38 38 38 37 35 32 29 28 30 29 30 29 29 32 41 37 39 40 45 46 48 49 48 49 46 43 43 45
38 39 41 39 39 39 39 38 38 37 38 38 38 38 37 37 39 38 37 34 32 29 27 27 26 29 29 28 32 33 38 39 42 43 43 44 44 44 44 45 47 46 43
39 37 35 34 34 34 34 35 35 36 36 36 35 35 35 35 34 34 32 31 29 26 22 21 21 25 28 22 28 32 31 39 41 41 39 41 42 41 42 43 44 46 46
34 33 32 33 34 35 34 34 34 32 30 30 31 31 30 30 27 27 27 26 25 24 23 22 23 26 28 28 26 29 31 31 32 41 38 39 39 40 40 42 42 43 45
34 33 32 34 35 32 34 31 29 27 25 24 24 26 25 22 27 28 27 28 27 27 25 24 24 26 28 28 30 31 28 28 32 34 39 39 39 39 39 41 42 42 42
36 36 37 35 33 30 28 26 25 25 25 26 26 26 25 25 24 24 24 24 24 22 24 23 22 23 25 26 26 27 28 30 28 34 38 38 37 38 39 42 43 42 42
35 34 35 36 33 26 23 23 23 25 24 23 24 23 22 22 21 21 20 21 20 21 21 21 20 20 21 23 25 24 26 29 28 23 28 31 33 35 39 41 41 42 43
35 35 36 33 26 23 18 25 24 23 23 23 24 22 23 23 25 24 22 22 23 22 22 21 21 21 22 22 23 24 25 27 28 30 30 31 30 31 32 40 38 42 41
25 25 24 23 24 21 31 27 28 25 24 23 22 21 21 23 23 25 26 26 26 23 22 22 21 20 20 20 20 21 23 23 22 28 29 31 30 31 31 32 34 39 41
23 22 22 23 24 25 26 26 26 22 22 22 20 19 18 17 22 22 23 25 25 26 26 25 24 23 23 23 22 23 24 23 22 24 27 27 32 32 33 30 37 38 39
21 20 23 24 21 19 23 24 24 23 24 23 21 20 20 21 22 23 22 22 23 24 24 23 24 23 23 23 24 24 23 23 24 23 26 27 31 33 34 35 36 38 38
20 21 19 20 19 20 22 22 23 25 24 23 21 21 21 22 23 26 25 26 25 23 24 28 28 29 29 29 28 26 27 25 26 21 24 25 28 31 31 35 37 34 35
19 19 19 19 21 23 22 23 23 23 24 22 23 23 24 24 26 27 28 27 25 23 24 29 28 27 28 30 30 29 29 25 23 22 22 23 22 23 27 34 34 37 37

GFSMA_sfc_dewp_006.txt.gz
Dewpoint
58 56 55 53 53 53 53 54 53 50 45 42 44 44 43 44 46 41 42 49 50 51 53 53 55 56 58 59 61 63 63 64 64 64 65 65 64 64 64 65 65 65 65
57 54 52 49 49 49 50 52 51 48 44 42 42 44 43 42 43 44 38 42 48 52 53 54 56 57 57 58 60 61 61 63 64 63 64 64 64 64 64 64 64 65 65
54 54 50 50 49 50 53 54 53 49 45 40 41 41 42 43 40 42 39 39 43 52 52 52 54 54 54 54 55 56 58 60 61 63 62 64 64 64 63 63 64 64 65
55 54 50 49 50 51 50 50 49 47 45 41 40 38 39 39 40 41 39 39 37 35 49 52 52 51 52 52 52 53 54 56 57 59 62 63 64 64 64 63 63 63 64
51 53 49 49 52 50 49 49 48 48 46 41 38 38 40 38 38 35 38 41 42 38 36 49 50 50 49 47 46 49 51 55 56 57 58 61 63 63 63 64 64 64 64
47 49 48 50 51 50 49 47 49 47 45 44 35 34 38 39 39 38 38 36 37 41 40 41 42 42 47 43 42 42 47 50 51 56 54 59 59 62 63 63 63 63 64
45 47 45 47 48 47 48 51 50 49 48 46 43 40 39 41 43 38 38 37 36 39 41 41 37 35 37 42 38 44 45 48 49 49 52 53 54 56 59 62 62 63 62
41 40 44 43 44 44 46 48 49 48 47 47 44 41 37 37 38 40 38 37 40 37 39 40 37 36 35 33 40 43 44 46 48 51 50 53 50 53 54 56 60 61 61
39 41 42 43 44 44 42 44 46 46 44 46 48 43 38 36 36 37 41 38 40 39 38 37 35 33 34 35 38 41 46 46 46 49 48 52 50 51 51 55 57 59 60
38 39 40 43 44 43 43 42 40 44 44 43 43 43 46 44 39 36 37 40 39 39 40 36 34 35 34 32 37 42 46 46 47 51 49 47 50 50 51 53 55 55 57
38 38 41 42 43 42 43 45 45 45 44 44 42 42 44 43 42 39 36 36 36 36 34 35 37 35 35 34 32 40 45 46 46 47 52 48 48 50 50 51 53 53 54
35 38 39 42 43 42 42 42 43 44 43 43 42 41 40 38 37 37 36 36 36 34 33 35 35 35 36 34 35 40 42 44 42 46 50 52 51 51 48 48 50 51 50
35 38 41 41 40 40 40 42 42 42 40 40 40 39 39 39 38 38 38 36 35 34 34 34 34 34 33 35 33 40 40 39 40 44 47 50 49 49 49 49 49 49 49
38 41 40 40 40 40 40 41 41 40 39 40 39 39 39 40 39 38 37 37 36 38 37 37 34 34 33 33 35 39 31 36 38 43 45 48 45 47 45 45 47 46 43
37 40 41 38 35 36 37 37 37 37 37 37 37 37 37 38 38 37 37 35 34 32 29 31 32 34 31 32 34 32 33 38 37 42 42 43 42 40 40 41 43 45 47
40 37 35 34 35 36 38 38 38 37 36 35 33 32 29 28 30 31 30 30 29 26 23 22 22 24 26 21 30 29 29 37 39 40 42 41 41 40 39 39 40 42 43
35 34 33 35 35 37 39 39 37 35 30 29 29 27 26 26 25 24 25 25 24 23 21 21 21 23 26 28 27 29 29 29 29 38 40 38 38 38 39 39 39 41 42
37 36 37 38 38 37 35 32 32 29 27 25 25 26 24 17 24 24 24 25 24 25 23 22 23 22 25 26 28 29 25 22 26 31 40 39 38 38 38 37 37 40 41
37 38 36 35 35 34 33 30 26 25 26 26 25 24 23 24 24 24 24 24 23 19 22 21 21 22 22 24 24 26 27 28 24 31 36 38 39 39 39 38 39 39 41
32 31 30 29 30 26 24 23 22 24 24 23 24 25 24 24 23 23 21 21 20 20 20 19 19 19 20 22 22 22 23 25 25 21 26 28 31 35 37 38 37 39 40
23 23 22 23 23 22 18 26 22 24 24 24 25 23 24 24 25 25 22 21 21 20 20 19 19 20 20 21 21 23 23 25 26 27 27 28 28 27 28 32 31 37 37
22 22 22 22 23 18 28 27 27 24 22 21 21 22 21 24 24 26 25 25 26 24 22 21 20 21 22 22 23 23 26 25 23 29 29 29 30 28 28 28 31 35 37
23 23 23 23 24 23 24 24 25 21 21 21 22 21 18 15 22 21 24 27 26 26 26 24 23 23 23 24 25 26 26 25 24 24 27 29 32 33 35 28 33 35 37
22 22 23 23 22 19 24 23 23 22 23 23 22 21 20 20 21 23 22 22 23 24 25 24 25 23 23 23 25 24 25 27 28 26 28 28 33 33 34 35 34 35 37
22 22 22 22 21 21 24 23 23 24 23 23 21 20 21 23 24 25 26 28 25 24 25 28 28 28 28 29 29 27 30 27 29 24 25 26 30 31 32 35 38 34 35
21 22 24 24 24 24 23 22 22 23 25 24 24 24 25 25 26 26 29 28 25 22 23 26 26 30 30 27 29 29 29 26 26 25 24 25 23 24 28 35 34 37 38

GFSMA_sfc_dewp_009.txt.gz
Dewpoint
56 53 52 50 49 48 48 50 49 49 48 46 43 44 43 43 44 42 41 52 48 51 52 52 54 56 57 58 60 61 62 63 63 64 65 65 65 64 64 64 64 64 65
55 52 50 48 47 47 47 48 50 50 48 45 43 43 44 42 41 44 39 44 51 52 52 52 54 56 56 57 58 59 60 61 62 63 64 64 64 64 64 64 64 64 65
53 54 51 50 48 50 53 50 49 48 48 46 43 41 42 44 43 43 42 39 45 53 53 52 52 53 52 53 54 54 55 57 59 63 63 63 64 64 64 64 64 64 64
51 53 49 50 51 52 50 49 47 46 46 45 46 42 41 41 41 42 41 41 38 39 50 54 52 52 52 50 50 50 53 54 56 57 61 63 63 63 64 64 63 63 64
48 50 48 50 55 51 52 51 50 50 47 47 45 45 43 41 43 37 40 43 45 40 39 54 54 52 50 47 44 44 48 50 54 57 57 60 62 63 63 63 63 63 63
48 48 47 50 50 47 48 50 53 50 51 50 44 43 47 44 42 44 41 38 40 45 42 43 45 45 51 47 43 41 43 47 49 52 56 57 57 60 63 63 63 63 64
43 44 42 43 46 44 47 50 50 50 49 50 49 48 48 48 48 43 44 42 41 41 45 44 42 38 43 49 43 42 42 44 47 49 51 53 54 56 57 61 62 62 63
42 41 42 41 42 41 47 49 50 47 47 49 47 47 45 45 45 45 44 44 46 41 41 44 45 43 39 37 43 45 41 41 44 46 50 50 54 53 52 54 56 60 62
39 39 40 41 45 44 42 47 46 46 43 45 49 45 42 40 43 43 46 45 46 44 42 42 45 40 40 37 41 42 47 44 41 46 49 50 51 52 52 51 53 56 58
37 36 38 40 43 43 44 44 39 46 45 42 43 40 45 46 42 42 44 45 44 43 47 44 42 39 38 36 43 42 43 44 44 47 50 49 49 53 52 51 52 55 55
38 36 37 41 43 41 43 45 44 43 42 41 40 41 43 43 43 41 41 42 43 43 43 45 43 39 37 37 37 41 45 43 44 42 48 51 48 48 51 51 52 53 53
35 37 36 41 42 42 42 41 42 43 43 42 41 40 40 39 39 38 38 39 41 45 46 43 43 41 39 38 39 43 41 43 41 41 46 51 51 48 49 51 51 50 52
35 39 40 41 40 40 41 43 44 41 41 41 41 39 39 38 38 37 37 37 38 40 44 46 46 43 37 40 38 40 42 40 38 42 43 48 49 50 51 50 48 49 50
37 39 40 40 40 41 41 41 39 40 39 40 39 39 40 39 39 39 37 37 36 36 39 39 41 45 44 39 41 36 35 41 39 39 44 47 45 47 47 48 47 46 45
36 38 39 37 40 38 40 39 39 39 39 39 39 39 37 39 41 37 35 36 34 31 29 34 37 42 44 42 38 35 35 39 40 39 42 43 43 41 39 39 41 40 42
37 37 38 38 38 39 38 38 38 37 37 37 35 34 32 32 30 32 32 36 36 33 29 28 27 30 32 26 33 33 33 39 39 37 39 42 41 40 39 39 39 39 39
37 37 38 38 38 37 39 39 37 36 36 36 34 31 29 29 27 25 28 27 25 24 25 25 23 26 30 31 28 32 31 33 33 38 37 39 40 40 39 38 38 38 40
38 37 37 37 37 37 37 36 36 34 30 29 29 29 28 24 27 26 24 24 23 24 24 24 23 25 27 29 31 32 25 22 28 31 39 38 39 38 38 38 38 38 39
32 32 31 31 28 28 26 25 24 25 26 26 26 25 24 24 24 24 24 24 22 19 23 22 22 24 25 25 26 28 29 31 24 32 39 39 40 39 39 38 39 38 38
25 23 23 22 23 21 21 21 22 24 23 21 23 24 23 23 24 24 23 23 21 21 21 21 21 21 22 23 24 24 26 28 27 20 26 28 33 36 37 37 38 39 38
22 21 22 22 23 21 19 25 24 23 23 23 25 21 24 26 28 26 21 22 21 21 21 20 21 21 22 23 22 24 25 27 29 29 29 30 31 31 30 35 32 37 37
21 22 22 22 23 17 27 25 24 22 20 20 20 21 21 25 26 29 29 29 25 20 20 21 21 21 22 23 24 25 26 26 25 30 29 31 31 31 31 32 34 34 33
23 22 22 21 22 23 24 24 25 22 21 21 21 21 20 17 24 20 24 28 28 28 27 24 23 22 22 23 25 26 27 28 27 26 29 30 34 35 34 27 34 36 35
22 21 22 23 23 21 28 25 24 22 22 21 21 21 22 21 21 23 23 23 23 23 24 24 26 24 25 25 25 25 26 27 29 28 30 29 34 34 35 35 34 35 36
22 21 22 24 24 24 27 25 23 23 22 21 20 21 22 22 23 25 24 26 24 24 25 28 29 29 29 29 29 28 29 30 29 25 27 28 31 32 33 35 37 34 35
20 23 25 25 26 25 27 23 24 24 24 23 23 21 24 24 27 27 28 28 27 23 22 25 26 26 32 32 30 28 27 26 26 26 26 27 26 27 29 34 34 35 36

GFSMA_sfc_dewp_012.txt.gz
Dewpoint
59 58 56 55 54 54 53 53 52 52 52 50 49 46 45 46 47 46 48 52 52 50 50 52 55 57 58 59 60 61 62 62 63 64 64 65 65 65 65 64 64 64 64
57 57 55 55 54 53 53 52 51 52 52 51 49 48 46 45 44 46 45 48 51 54 54 54 54 56 57 59 60 60 60 62 63 63 64 64 64 65 64 64 64 64 64
55 56 55 55 54 55 54 53 53 51 51 50 49 49 48 46 46 46 46 46 47 54 55 55 55 56 56 56 56 56 57 59 60 62 63 64 64 64 64 64 64 64 64
53 55 54 55 56 56 55 53 53 51 50 50 49 49 47 45 45 47 46 45 44 43 53 56 57 55 54 54 53 53 53 55 57 58 61 63 63 63 63 63 64 63 64
54 53 53 54 55 53 53 52 50 52 51 50 48 47 48 47 45 41 43 44 45 44 45 53 56 55 56 54 51 50 51 51 53 56 58 59 62 62 62 63 63 63 63
50 51 49 51 52 49 49 50 50 49 49 49 47 46 48 48 47 47 44 44 44 44 43 47 52 51 54 54 51 48 48 49 50 51 52 56 59 61 62 61 62 63 63
48 48 48 47 47 46 48 48 47 46 46 47 46 45 46 47 49 48 46 45 43 43 44 44 47 44 47 53 52 47 46 47 49 50 51 52 56 58 58 61 62 62 62
47 43 46 46 46 46 46 47 48 45 44 45 44 43 40 41 43 45 45 45 42 42 41 42 43 44 44 46 46 50 47 46 47 47 48 51 52 57 55 55 57 59 62
45 44 45 46 46 46 44 45 45 44 43 43 44 42 38 37 39 42 42 43 47 47 50 46 43 43 43 42 45 48 50 48 46 44 46 48 51 52 54 53 51 54 56
45 42 42 45 45 46 44 45 42 45 44 41 43 43 43 42 40 39 41 43 43 46 48 48 45 43 43 42 46 46 47 46 46 44 46 47 48 50 53 53 51 52 55
43 41 42 43 44 44 44 45 44 44 44 42 41 40 39 38 39 38 36 37 39 42 45 50 50 51 48 42 41 44 44 44 44 44 45 49 49 48 51 53 52 52 53
40 41 41 44 44 44 44 44 44 42 42 42 41 41 39 38 37 35 35 35 36 39 40 43 48 48 48 47 46 46 45 43 40 41 43 48 51 50 49 49 52 52 52
40 39 42 42 42 42 42 42 43 42 41 40 39 40 40 40 38 36 36 35 35 35 39 41 44 46 48 48 46 45 44 42 39 40 44 45 50 51 51 50 52 52 50
40 41 41 41 41 41 41 41 41 40 39 40 38 39 39 39 39 39 37 35 33 34 36 37 42 44 45 46 45 41 41 41 40 38 41 44 47 47 48 51 52 51 48
37 39 40 39 40 40 40 39 38 38 39 39 39 39 38 39 40 40 39 39 36 32 29 30 37 43 43 44 44 44 40 41 40 40 40 42 44 44 44 45 46 46 45
38 38 39 40 39 39 39 39 39 39 38 38 37 37 37 36 34 34 34 37 38 35 33 32 29 31 40 38 41 41 39 41 41 38 39 39 40 42 41 40 41 41 40
38 37 37 35 35 36 38 39 38 38 36 35 35 34 33 32 31 31 30 29 28 29 28 26 28 28 29 32 31 35 35 31 35 38 38 38 40 41 41 39 38 37 38
37 35 34 33 33 33 33 34 34 33 33 32 31 31 31 26 28 28 27 26 27 27 26 23 25 26 25 27 28 30 28 25 30 35 39 37 37 39 40 39 38 38 38
33 31 28 27 26 27 26 26 25 27 26 25 24 25 25 26 25 26 26 26 26 24 25 23 23 24 24 25 25 26 27 29 28 34 37 39 39 39 40 39 38 38 38
29 27 27 27 28 24 23 25 24 25 25 23 24 24 24 24 25 26 26 26 23 23 22 22 21 21 22 23 25 23 24 27 28 23 28 30 37 39 39 38 38 38 39
27 27 26 26 26 24 21 25 24 23 23 22 23 22 23 26 29 28 22 23 23 22 22 21 21 22 22 23 24 27 27 28 29 31 30 30 30 32 35 38 36 37 38
26 26 26 26 26 20 28 26 26 24 23 22 21 21 22 26 26 29 29 30 27 21 20 20 20 20 20 22 24 25 26 25 24 30 28 28 30 30 31 32 35 35 35
27 27 26 26 26 26 28 27 26 23 22 21 21 21 21 20 25 23 27 28 28 30 28 24 22 23 22 22 22 23 24 25 25 28 28 26 27 29 32 31 34 36 35
26 26 27 26 26 23 29 28 27 23 22 21 21 20 20 21 23 24 23 24 24 24 26 25 26 27 26 25 26 27 28 28 27 28 28 27 26 28 28 31 35 35 35
26 26 26 27 26 26 29 29 28 24 24 22 20 21 22 21 23 25 24 24 24 25 26 28 32 33 31 30 30 28 26 25 24 26 27 27 26 27 28 29 31 35 35
25 28 28 28 28 26 29 28 26 24 22 22 23 23 24 24 29 26 27 27 26 26 24 24 24 24 24 24 30 31 30 25 23 22 24 26 25 26 26 27 30 31 28

GFSMA_sfc_dewp_015.txt.gz
Dewpoint
53 53 54 52 51 52 50 49 49 49 51 50 49 48 45 44 44 45 47 54 53 54 50 50 52 55 57 60 62 62 63 63 64 64 65 65 64 64 64 64 64 64 64
53 53 52 53 51 52 52 51 50 50 51 51 50 48 47 44 43 44 45 48 53 54 55 53 53 55 56 57 61 61 62 62 63 64 65 65 62 62 64 64 64 64 64
52 53 53 53 53 54 52 52 52 51 50 50 49 49 49 47 45 44 43 46 48 54 55 57 56 55 56 57 58 59 60 61 61 63 63 64 64 63 64 64 64 64 64
51 50 50 50 52 52 52 51 51 51 50 50 49 49 49 48 46 45 45 44 45 44 52 55 57 58 58 56 55 57 57 58 59 60 62 63 63 64 64 64 64 64 64
49 47 46 47 50 49 48 48 48 48 47 47 46 46 47 47 47 46 44 45 45 45 44 52 55 57 58 57 55 55 54 55 56 58 59 61 63 63 63 63 63 63 64
46 45 44 46 45 45 46 46 45 45 45 45 45 44 46 48 49 49 48 46 44 44 45 44 49 51 55 57 57 54 52 52 54 56 57 59 59 63 63 63 63 63 63
44 43 44 44 45 44 44 44 45 45 45 45 44 43 43 44 44 46 48 47 46 44 44 45 46 48 50 55 56 53 51 51 51 52 54 55 60 60 61 62 62 61 62
43 41 42 43 43 44 43 43 42 43 43 44 42 41 39 39 40 42 43 43 45 48 47 47 46 47 45 47 50 54 51 51 49 50 52 53 55 58 58 57 59 61 62
42 41 41 43 43 44 43 42 43 42 42 42 42 42 39 37 38 41 38 43 41 44 45 48 50 49 46 45 47 50 52 51 52 49 49 49 52 54 56 55 54 54 56
41 41 41 42 43 43 42 43 44 43 43 41 42 41 40 39 36 33 38 37 37 38 42 45 46 49 51 50 49 48 48 48 50 49 46 46 47 51 52 55 54 52 54
40 40 41 41 42 43 43 43 42 42 42 41 41 41 39 37 37 35 31 34 36 37 40 41 45 47 48 49 50 49 48 46 46 48 46 46 49 48 49 52 54 53 52
40 39 40 41 42 42 41 42 42 41 41 41 41 40 40 38 37 37 34 34 33 35 36 39 42 44 46 48 48 48 47 45 45 46 45 45 47 50 52 49 53 53 52
38 39 40 41 41 41 40 40 40 40 40 39 39 38 38 37 38 37 36 35 32 34 35 38 40 42 45 46 45 46 46 45 43 41 45 44 48 48 50 52 50 52 52
39 38 38 39 40 40 39 39 39 38 38 38 38 37 38 38 39 39 37 36 33 33 33 33 39 40 42 44 44 43 45 45 44 41 38 42 46 46 46 49 51 53 53
36 37 38 39 39 39 39 38 38 38 39 38 38 39 38 38 39 39 38 38 36 30 28 31 34 38 41 42 43 44 43 44 44 44 40 40 43 44 42 43 46 47 47
36 37 37 37 36 36 37 38 37 37 37 37 37 37 37 38 39 38 37 34 34 33 30 31 31 32 34 39 42 41 42 41 41 42 39 39 39 40 40 39 40 41 41
34 35 35 34 33 34 34 35 35 36 36 34 34 30 29 30 33 35 34 31 29 28 26 25 27 27 26 28 30 39 40 40 40 39 39 39 39 40 41 40 38 36 36
34 34 30 28 28 27 28 27 27 28 27 27 26 26 25 24 25 27 28 27 27 27 26 23 24 24 24 25 26 26 27 29 32 35 38 39 39 39 39 40 39 38 38
29 27 26 27 27 28 26 26 26 27 26 25 25 24 23 23 23 24 26 27 26 24 23 23 22 24 23 24 24 25 25 27 25 33 35 39 39 39 39 40 40 39 38
26 25 25 26 27 26 26 25 24 25 24 24 25 24 23 23 23 24 24 25 25 24 23 21 21 22 23 24 25 23 25 27 27 25 29 30 36 39 40 40 39 39 38
26 25 25 26 26 25 23 25 25 24 23 23 24 22 22 24 26 27 26 25 25 23 22 21 21 21 21 22 22 25 25 27 27 30 29 29 29 30 32 36 38 39 39
24 24 25 25 26 23 29 27 25 24 23 23 21 20 21 23 24 25 27 29 28 26 22 21 20 20 20 21 22 22 23 23 23 29 29 27 29 29 30 31 34 36 35
23 25 25 25 25 26 29 28 28 25 23 22 21 21 19 17 22 23 25 26 27 27 28 28 26 23 22 23 23 22 22 23 23 26 27 24 24 27 29 31 35 35 34
23 24 25 26 26 25 29 30 30 26 24 23 22 21 20 21 23 23 22 23 24 24 25 25 27 26 26 26 26 25 26 30 27 27 28 25 23 25 26 28 34 36 36
25 26 27 27 26 26 29 28 27 25 24 24 23 22 21 21 23 27 25 25 25 26 26 27 28 29 30 31 32 31 28 27 23 23 26 24 23 22 24 25 29 34 35
27 28 27 27 28 26 26 24 28 26 22 22 22 21 22 22 28 28 26 24 23 22 23 24 24 23 23 24 25 25 26 25 26 19 23 24 23 23 20 23 28 28 28

GFSMA_sfc_dewp_018.txt.gz
Dewpoint
52 53 52 52 52 52 51 51 50 50 50 51 50 50 48 46 44 44 46 55 57 56 54 53 53 53 55 59 61 62 61 62 63 64 65 64 64 64 64 64 65 64 64
52 52 52 52 52 53 52 51 51 51 51 50 50 50 50 48 46 44 44 46 55 56 56 55 54 54 54 56 60 61 61 62 62 63 64 64 63 64 64 64 64 64 64
52 50 49 47 49 50 50 50 50 49 48 48 47 48 49 48 48 46 45 44 46 55 55 57 58 57 56 55 58 60 60 61 61 62 63 64 64 64 63 63 64 64 64
48 46 44 45 48 47 47 47 47 46 45 45 46 45 46 47 47 46 46 45 45 45 50 55 57 58 58 57 55 56 57 58 59 60 62 64 64 64 63 63 64 64 64
46 44 44 45 45 45 45 45 44 44 44 44 42 43 44 45 46 47 48 47 46 46 45 49 55 56 57 58 57 55 55 56 56 57 59 62 63 63 63 64 63 64 64
45 44 45 45 45 44 44 43 42 43 43 43 42 42 44 44 45 45 46 46 46 46 46 45 45 51 55 57 58 56 55 55 55 55 56 58 61 62 63 63 63 63 63
43 43 43 43 44 44 43 42 43 42 42 43 42 40 41 41 42 41 43 44 44 45 43 44 48 46 48 55 57 55 54 54 53 53 54 57 58 60 62 62 63 62 62
41 40 41 42 43 42 41 41 41 42 43 43 41 41 37 37 40 38 39 41 41 42 40 42 45 46 49 47 51 55 55 54 53 53 55 55 57 58 60 60 61 62 62
41 41 41 41 41 42 42 42 43 42 41 42 42 40 37 35 37 37 35 36 38 37 40 43 41 46 48 50 49 48 52 53 54 55 55 55 55 54 56 57 56 57 58
40 40 41 41 41 43 42 43 42 42 41 40 41 41 40 39 35 34 35 35 36 36 37 40 39 46 48 50 50 49 48 48 50 52 54 54 51 50 52 54 56 54 53
40 40 41 41 41 42 41 42 41 40 40 39 40 40 36 36 38 36 32 33 35 35 37 38 39 42 45 47 49 48 47 47 47 47 49 48 47 49 49 51 53 55 53
39 39 39 40 40 39 39 39 39 39 39 39 39 39 38 36 35 35 34 33 33 34 35 37 38 41 43 44 46 46 47 46 46 45 46 46 47 50 51 51 50 53 53
38 37 38 39 39 39 39 38 38 39 38 37 37 37 37 37 38 37 37 34 34 33 35 36 37 40 41 42 43 43 45 45 45 44 44 44 46 49 49 50 52 50 53
36 36 38 38 39 38 38 38 38 37 38 37 36 37 37 38 39 39 38 36 33 34 32 32 34 37 39 40 42 43 43 43 43 44 43 42 44 46 46 47 50 50 52
35 36 37 37 37 36 37 37 36 36 35 35 36 37 36 37 38 38 37 36 33 30 30 30 31 35 36 38 41 42 42 42 41 41 43 44 43 45 43 45 46 46 48
35 35 34 34 33 32 33 34 34 34 34 34 32 30 29 29 31 32 35 36 35 33 28 29 29 30 27 28 32 38 40 40 40 41 41 42 43 43 41 41 42 43 43
35 34 34 30 28 27 28 28 28 29 27 26 26 26 26 26 26 26 27 28 31 31 26 25 28 26 23 25 26 28 36 41 41 40 41 41 41 41 41 40 39 38 37
34 34 31 27 27 26 26 26 26 26 26 25 25 25 24 21 23 23 24 25 26 26 26 24 24 23 22 23 24 25 23 21 30 36 40 40 40 40 40 40 39 39 38
33 31 26 27 26 26 26 26 25 25 24 24 24 24 24 23 22 22 23 25 24 25 26 23 22 24 23 24 24 25 25 27 26 31 34 37 39 40 41 40 40 40 39
36 32 27 27 27 26 25 24 24 24 23 23 25 24 23 22 21 22 23 24 25 25 25 23 22 22 23 23 25 24 24 27 25 24 32 33 36 38 39 40 40 40 40
36 29 26 26 26 25 23 25 24 24 23 23 24 23 21 22 22 21 21 23 28 27 26 23 22 21 21 20 21 23 23 23 23 26 29 28 30 31 32 35 37 39 39
28 25 26 27 25 23 29 28 28 25 24 23 22 21 21 22 21 23 24 25 24 27 26 26 23 21 20 20 21 21 21 21 21 26 26 25 28 27 29 31 34 35 36
28 26 26 26 25 25 29 30 30 26 25 24 23 22 21 18 22 22 24 25 24 25 26 25 24 25 23 23 22 22 21 22 22 24 25 23 25 26 28 28 33 35 36
27 25 27 26 25 25 30 29 28 26 24 24 23 22 21 20 21 21 24 27 25 26 25 24 24 25 26 25 25 25 25 25 27 28 27 24 22 22 26 26 31 35 35
25 27 26 25 26 25 25 24 26 23 23 21 21 21 20 20 24 27 23 25 24 23 23 24 26 29 28 30 30 29 26 26 24 23 25 24 23 21 22 24 27 32 35
27 27 25 25 24 22 22 21 21 22 17 20 20 19 21 21 24 27 26 25 22 21 22 23 24 23 23 23 23 24 23 21 21 19 23 23 23 21 18 22 25 26 25

GFSMA_sfc_dewp_021.txt.gz
Dewpoint
52 52 52 51 51 52 51 50 50 50 49 49 48 49 48 48 47 46 45 52 54 56 57 56 56 55 57 59 60 61 60 61 62 62 64 65 65 64 63 63 64 65 65
52 51 49 48 47 49 49 48 48 47 46 46 45 46 46 48 48 47 46 46 52 54 55 56 56 56 56 58 59 61 61 61 61 61 63 64 64 64 63 63 63 63 65
50 48 45 44 47 46 46 46 45 44 43 44 44 45 46 46 46 46 46 46 47 50 53 54 55 56 57 58 59 59 60 61 61 60 61 63 64 64 63 62 63 62 62
46 44 43 45 46 45 45 44 43 43 42 42 42 43 44 44 44 45 47 47 47 46 48 50 52 53 55 58 58 58 59 59 59 59 60 62 63 64 63 63 63 63 62
45 44 45 45 45 44 44 43 42 42 40 40 42 42 43 43 44 45 44 45 47 46 44 46 48 50 52 54 55 55 55 58 59 57 58 59 61 62 63 63 63 62 62
44 43 43 43 44 43 41 41 40 41 40 42 42 41 41 42 42 41 42 43 43 43 40 41 42 43 48 52 53 55 55 55 56 57 56 57 59 60 61 62 63 62 62
42 41 42 41 42 41 40 41 41 41 42 43 41 40 40 40 39 38 39 41 40 41 39 40 40 41 41 50 51 53 55 56 55 56 57 57 58 59 60 61 62 62 61
40 40 40 40 41 41 41 41 42 42 42 42 40 40 36 36 39 38 37 38 37 39 37 36 40 37 40 46 49 52 52 54 56 55 57 57 57 58 58 59 59 60 61
40 41 41 41 42 42 41 41 41 40 39 40 40 39 35 33 35 36 35 36 37 36 37 37 39 37 43 45 48 49 49 49 51 52 55 55 56 57 56 55 57 58 57
40 41 41 42 41 41 40 41 41 39 39 37 39 40 38 37 32 30 34 34 36 35 36 37 37 38 42 45 47 48 48 47 47 50 50 52 53 55 53 53 54 56 56
40 40 40 39 38 39 38 38 39 38 39 37 37 37 36 35 35 34 31 31 33 35 36 37 37 38 41 45 45 46 47 47 46 47 49 50 51 52 49 49 51 53 55
41 38 39 38 38 38 37 38 37 37 37 37 36 36 37 36 35 35 31 30 31 33 35 36 36 37 39 41 43 44 44 45 46 46 46 47 48 47 48 50 50 51 52
38 35 38 38 38 38 38 38 37 37 36 36 34 35 35 35 37 35 36 34 34 36 35 37 35 36 38 38 40 42 43 44 43 44 45 43 45 46 48 49 50 52 51
36 36 37 38 38 38 37 37 37 36 36 34 33 33 34 34 36 37 34 33 30 31 35 34 35 35 36 36 39 42 41 43 42 41 42 44 43 43 44 46 49 50 52
35 35 36 36 37 37 35 37 35 33 33 33 32 31 29 29 29 33 33 35 33 27 27 30 29 32 34 35 34 33 40 42 41 41 41 41 43 43 43 42 44 47 50
35 35 35 35 33 32 30 30 29 30 32 28 28 26 25 27 27 28 27 28 31 31 27 30 28 29 27 25 28 29 31 39 41 39 39 40 40 42 43 42 42 43 47
36 36 36 35 29 28 27 27 27 28 26 25 25 25 25 25 25 24 25 25 25 27 25 25 28 27 23 23 23 26 26 27 36 41 40 39 39 41 41 42 42 41 41
34 33 32 31 28 28 27 25 26 26 25 24 24 24 24 21 23 23 23 22 23 25 25 22 25 24 23 23 23 23 23 23 28 31 36 39 38 39 40 40 41 41 41
34 34 35 30 28 27 26 25 25 24 23 24 24 24 24 23 21 21 21 22 23 24 25 25 24 24 24 23 23 23 24 26 24 27 29 34 39 39 39 40 40 41 39
36 36 34 29 29 27 26 24 23 23 24 23 24 24 23 22 20 20 20 20 25 25 25 26 25 23 23 23 23 22 23 25 23 21 23 31 33 36 39 39 39 39 40
37 36 31 27 27 26 23 24 24 24 24 24 24 24 23 23 25 22 18 20 21 22 24 27 25 25 24 21 20 21 22 22 22 23 24 28 29 30 32 34 37 40 40
32 32 27 27 26 23 29 29 30 27 26 25 25 24 23 23 23 22 23 23 23 23 22 23 23 23 25 21 21 21 21 20 19 24 25 24 27 27 29 30 33 35 37
34 26 26 26 25 25 30 30 28 27 25 25 23 22 20 18 21 20 22 23 24 26 26 26 24 23 23 23 23 21 21 21 21 23 24 22 23 26 28 26 30 32 35
28 25 26 25 25 26 25 24 27 23 22 22 19 19 20 20 21 21 24 26 22 25 24 24 27 26 24 25 24 23 23 24 24 25 25 24 20 22 25 27 30 32 34
25 26 25 25 23 21 22 21 22 22 21 19 19 19 19 20 23 27 26 25 23 23 23 24 24 25 27 29 30 28 25 25 23 23 25 23 21 20 22 23 27 31 33
27 25 24 24 22 21 21 20 20 20 15 20 20 19 21 21 24 24 25 23 22 21 21 22 23 24 24 23 23 23 23 23 21 17 22 23 23 21 16 20 21 24 24

GFSMA_sfc_dewp_024.txt.gz
Dewpoint
52 51 51 49 49 49 48 47 47 45 45 45 45 45 46 47 48 48 48 51 53 54 55 56 57 57 57 60 61 61 61 59 59 60 62 63 64 65 64 64 63 63 63
51 49 46 46 47 46 46 46 44 43 42 43 42 43 45 45 45 46 47 47 51 52 53 55 56 57 58 57 59 60 61 61 60 58 61 62 63 64 64 63 63 63 63
46 44 44 45 45 45 44 44 43 42 41 41 40 42 44 44 44 45 47 47 48 49 50 51 51 53 55 56 56 57 60 61 61 60 60 61 62 63 63 63 63 63 63
45 45 44 44 45 44 43 43 42 41 40 40 41 42 42 43 43 45 45 46 46 43 43 45 46 47 48 51 56 56 57 58 61 61 61 61 61 62 63 63 63 62 62
45 43 44 44 45 42 42 41 40 41 39 41 42 42 42 41 43 41 43 44 44 42 40 42 43 43 44 46 49 54 56 56 57 59 60 60 60 61 62 62 62 62 62
44 44 43 42 42 40 41 41 40 41 41 42 42 41 41 41 42 40 40 40 41 41 40 40 39 40 41 42 46 49 54 56 57 57 58 59 60 60 60 61 62 62 62
41 40 40 41 42 41 41 42 41 41 42 42 40 39 40 40 39 38 39 40 38 39 40 38 37 40 36 43 46 48 51 54 56 56 58 57 58 59 59 60 61 60 61
40 40 40 40 41 41 40 41 40 40 40 41 39 38 34 36 37 35 38 37 37 37 37 36 37 39 38 42 45 48 49 51 52 53 54 54 56 57 58 59 58 59 59
40 40 40 41 41 41 40 40 39 38 38 39 39 38 33 32 34 35 34 36 36 36 37 36 37 38 38 42 45 46 46 48 49 50 51 53 53 54 56 57 57 55 58
40 40 40 41 40 39 39 39 40 38 38 36 38 39 37 36 32 29 34 34 35 35 36 37 37 38 39 42 44 44 45 46 46 47 49 51 52 52 53 55 55 54 55
40 40 39 38 37 38 37 37 37 36 37 36 35 36 35 36 35 34 29 30 32 33 36 37 38 38 38 40 41 44 43 45 45 45 47 48 50 52 52 53 53 52 52
40 38 38 38 37 37 36 36 36 36 36 36 35 35 35 34 33 33 31 30 32 35 35 38 37 38 38 39 38 40 42 44 43 43 44 47 46 48 50 49 50 50 50
38 35 37 37 37 37 37 37 36 36 35 35 34 33 34 33 34 34 31 29 30 31 35 36 38 38 36 37 38 38 42 42 43 42 42 43 45 45 46 47 49 50 51
36 35 36 38 38 38 37 37 37 36 35 34 33 33 32 32 30 32 32 30 26 29 29 33 34 36 37 36 36 34 36 41 42 41 41 41 43 44 44 44 45 48 50
36 35 35 37 37 36 36 35 35 33 32 32 32 30 27 27 28 29 29 29 27 21 19 23 30 33 34 35 35 33 33 34 41 41 40 40 40 41 43 44 44 43 45
35 36 36 35 35 34 33 31 30 29 31 30 28 26 25 26 27 27 26 26 27 24 21 24 24 30 30 29 31 32 30 30 32 38 40 39 38 40 41 41 43 43 43
36 35 35 35 34 31 30 29 28 27 28 26 26 25 25 25 25 24 24 23 22 23 21 21 24 25 27 27 26 27 28 28 31 32 36 40 38 39 39 40 40 41 41
35 35 32 34 34 33 28 27 26 27 26 24 24 24 24 22 23 22 22 21 21 22 22 21 23 24 25 26 25 24 22 20 28 29 31 33 38 38 38 39 40 40 41
33 34 36 35 32 29 27 26 26 25 24 24 24 24 23 24 22 22 20 20 21 20 22 26 24 26 26 25 24 24 23 26 25 26 26 29 33 37 39 38 38 40 41
35 36 36 35 29 26 26 25 24 24 24 24 25 24 24 24 23 22 21 22 19 20 21 20 20 23 25 25 24 23 22 24 23 21 23 26 32 33 37 39 38 39 39
36 34 30 27 27 25 23 24 26 27 26 26 26 25 25 25 25 23 20 20 20 21 22 22 20 21 22 24 24 24 24 22 23 23 23 25 28 27 31 33 39 39 38
33 35 29 26 25 24 30 31 29 27 26 24 23 21 21 21 20 22 22 22 22 23 23 23 21 20 20 21 25 25 24 21 20 24 26 24 26 26 28 29 31 32 37
34 29 25 25 24 27 28 25 26 24 21 20 19 18 17 16 20 20 22 23 24 25 26 24 25 22 24 23 23 22 23 22 21 23 24 24 26 27 28 25 29 31 32
29 25 25 25 25 23 23 22 22 23 21 20 19 19 18 19 20 21 25 24 22 23 23 23 24 24 25 26 27 24 24 24 24 24 25 24 26 27 28 28 29 30 33
28 26 25 24 21 20 22 21 21 20 20 19 19 19 19 19 22 26 24 24 22 22 24 26 25 25 24 25 25 28 25 24 23 22 26 26 25 25 25 27 29 29 32
26 25 23 23 22 20 20 20 21 20 16 20 20 19 20 20 22 23 24 22 21 21 21 24 24 24 25 25 25 24 24 23 24 21 23 25 23 23 22 24 25 27 29

GFSMA_sfc_dewp_027.txt.gz
Dewpoint
56 53 51 49 49 49 48 46 45 44 43 42 42 42 41 43 44 42 43 51 53 54 55 56 56 57 57 58 58 59 60 62 60 59 61 62 63 64 64 64 64 63 63
55 50 49 47 47 46 46 45 45 43 41 41 39 42 42 42 43 45 42 45 49 49 50 51 52 52 53 54 56 57 57 58 61 61 61 61 62 63 63 64 63 63 64
50 50 48 47 47 47 47 45 43 41 39 38 39 41 41 43 42 45 45 45 44 45 45 46 47 47 47 48 50 53 56 57 58 60 61 61 62 62 63 63 63 63 63
50 49 48 46 46 45 44 42 41 39 39 41 41 39 40 40 44 44 43 43 41 38 41 44 45 44 45 45 46 48 51 54 57 57 59 61 62 62 62 62 63 62 62
48 46 46 44 44 43 44 42 41 42 40 39 35 37 36 36 44 39 41 41 41 40 38 41 42 41 43 43 45 47 48 50 54 57 57 59 60 60 61 61 62 62 62
45 44 43 44 43 42 42 41 41 39 40 40 34 35 35 39 43 40 38 37 38 39 38 39 37 34 40 42 44 46 48 49 52 53 55 56 59 59 59 60 61 61 61
43 44 42 43 43 41 42 41 39 39 35 40 34 32 33 43 41 38 36 37 36 36 37 37 35 34 34 39 41 46 49 49 50 51 52 54 55 56 59 59 60 60 60
42 41 43 42 42 39 41 41 41 37 37 41 36 32 27 27 37 34 34 33 36 36 33 35 37 37 37 36 39 45 47 47 49 48 50 51 53 54 55 58 59 59 58
41 42 43 42 42 41 39 40 41 40 35 37 41 34 29 26 30 30 32 32 34 33 33 32 34 34 37 37 39 41 42 45 45 46 47 48 50 52 53 55 57 58 57
41 41 41 42 42 41 39 38 38 39 37 32 34 34 35 33 26 25 27 28 30 29 32 34 35 37 38 38 38 39 42 44 44 44 45 47 48 50 53 53 54 57 56
42 41 41 41 41 39 40 38 39 37 36 34 32 31 30 29 30 29 24 23 25 26 30 29 35 37 38 36 36 37 42 43 44 43 43 44 46 48 50 53 53 54 55
43 43 40 41 41 39 39 38 39 38 36 36 33 32 27 26 26 28 24 22 22 24 24 28 30 36 36 35 33 36 36 42 43 43 42 42 44 46 47 50 52 52 53
41 41 40 41 40 40 39 39 39 38 37 33 33 29 32 30 30 26 25 23 26 23 22 24 26 30 26 35 34 36 35 37 40 42 41 41 41 44 45 46 48 50 52
40 41 40 40 40 40 39 39 38 37 38 34 32 31 31 29 30 28 27 28 25 23 21 23 22 24 28 30 32 36 32 35 36 38 41 40 40 41 42 44 45 46 47
39 40 39 38 38 39 38 38 36 35 34 32 32 32 31 29 30 30 29 28 27 24 19 18 19 22 24 28 30 30 32 34 35 34 36 39 39 39 41 42 43 44 44
40 40 39 39 37 37 36 34 31 31 31 31 30 31 28 27 28 27 25 25 24 22 19 16 16 19 21 19 25 26 28 34 33 33 34 36 40 39 39 40 41 42 43
36 37 37 37 36 33 33 35 32 30 29 29 30 28 26 27 25 24 24 22 20 19 17 17 17 19 21 23 23 25 26 29 28 32 34 34 36 40 39 39 40 41 41
36 36 36 35 35 36 35 34 29 29 28 28 26 26 26 23 25 24 23 22 21 20 19 17 17 17 21 22 24 25 25 24 26 27 30 30 30 34 39 39 39 40 40
37 37 36 37 37 36 29 28 28 27 25 25 26 26 26 25 23 21 21 20 20 19 20 19 17 17 17 19 21 24 24 26 23 27 29 30 28 29 34 39 39 38 39
37 38 38 34 33 28 27 26 25 26 28 27 27 25 23 22 21 19 19 20 20 21 19 18 16 16 17 19 26 23 21 23 22 20 24 26 27 27 32 34 39 38 39
37 35 31 29 28 27 24 28 28 27 25 23 21 19 19 20 22 21 19 19 19 18 19 19 18 16 15 14 15 18 21 24 29 26 23 23 23 24 28 33 36 39 39
35 34 31 30 27 26 30 27 26 24 21 18 16 16 16 18 18 21 21 22 22 23 24 19 17 21 15 24 18 19 20 23 21 25 24 23 25 22 25 28 30 32 35
34 32 29 27 27 27 25 24 23 21 18 17 16 15 15 15 19 17 19 23 25 23 24 25 23 20 19 18 19 22 22 23 22 24 24 23 26 26 26 24 30 31 33
32 32 28 26 26 21 22 22 22 19 18 17 16 16 16 16 17 19 24 21 20 17 19 23 26 24 22 22 21 22 27 26 22 21 23 24 26 27 29 29 28 29 31
33 29 27 25 21 20 21 21 21 22 20 19 18 17 17 16 20 23 21 22 18 16 19 21 23 25 26 26 26 25 24 25 23 18 21 24 24 27 28 30 30 28 29
29 26 24 23 21 22 19 20 21 24 24 21 19 16 17 18 22 21 20 21 20 18 17 19 19 21 23 25 26 25 22 20 21 23 21 24 19 21 22 27 28 31 31

GFSMA_sfc_dewp_033.txt.gz
Dewpoint
62 57 54 51 51 49 48 49 48 47 48 46 45 45 44 44 44 41 41 52 51 50 49 50 51 51 50 50 50 50 51 53 55 57 59 59 62 62 63 63 63 63 64
61 55 55 50 50 50 49 46 46 45 45 45 44 44 42 40 40 41 39 40 50 48 47 46 47 48 48 48 48 48 49 50 51 52 56 58 59 61 62 62 63 63 63
58 58 55 52 50 50 49 47 47 46 44 41 40 39 37 36 34 34 38 39 41 48 46 45 43 44 44 44 45 46 47 48 49 50 51 54 57 58 60 61 62 62 63
56 54 54 53 48 48 47 47 44 41 40 39 38 37 32 31 34 34 31 37 38 36 42 43 42 41 41 41 42 44 45 46 48 49 50 52 53 54 57 59 61 61 62
51 50 48 48 49 46 46 43 42 41 38 36 31 32 34 30 33 28 32 37 39 36 36 41 46 45 38 39 41 43 44 46 47 47 48 49 50 52 53 55 57 59 61
49 48 48 49 46 44 43 43 43 39 36 33 28 32 35 33 32 35 37 35 35 36 35 36 35 34 44 39 39 41 44 46 46 46 47 47 48 49 50 52 54 56 59
47 48 46 46 45 42 43 43 39 38 34 35 32 32 33 37 36 34 34 34 33 33 35 33 32 32 32 42 38 40 42 43 45 45 45 45 45 45 47 49 51 53 56
46 45 46 43 43 41 40 39 41 37 35 35 32 31 29 28 28 31 32 31 34 30 30 30 32 32 32 32 36 39 44 44 44 43 43 43 43 44 45 47 48 50 54
44 43 43 42 41 39 36 39 39 38 34 34 35 31 27 26 27 28 30 27 33 28 28 27 27 27 29 29 33 36 39 37 38 43 43 43 43 43 43 45 47 49 52
43 41 40 41 41 40 40 39 35 38 37 33 32 28 32 30 25 23 24 26 26 25 30 25 25 25 26 28 33 38 37 35 34 36 39 42 43 42 42 43 46 48 50
44 40 40 42 42 40 40 40 40 38 35 33 31 29 29 27 27 25 24 23 22 20 21 24 24 25 25 25 26 32 37 37 36 36 36 37 40 42 42 42 44 47 48
36 37 37 39 40 40 40 39 39 38 37 37 35 33 29 27 26 27 25 24 22 23 23 25 27 26 27 26 27 35 36 38 36 34 34 36 37 37 39 41 41 43 46
34 35 37 39 37 37 37 37 40 39 38 37 38 35 30 31 29 27 26 25 25 23 24 26 26 26 21 28 26 34 31 34 36 36 33 35 35 35 36 36 39 40 42
34 36 35 35 35 35 35 37 38 39 39 39 38 35 32 33 31 29 26 29 27 24 22 23 24 26 25 25 28 33 24 32 32 34 33 33 34 34 34 34 36 37 39
29 30 33 32 32 32 33 35 36 38 38 38 37 36 35 32 32 30 29 25 28 27 22 21 22 24 24 25 27 28 28 29 32 33 32 32 31 34 32 33 34 36 38
31 32 31 31 32 32 33 33 34 36 37 39 36 34 32 32 31 31 26 26 23 23 21 20 19 23 24 19 24 27 27 31 30 32 33 33 34 33 33 33 35 36 37
31 30 29 31 31 31 31 34 35 36 34 33 32 32 32 31 29 29 26 25 23 21 20 21 20 22 23 24 23 24 25 26 25 29 31 33 34 35 33 32 33 34 36
31 29 30 31 30 32 34 35 33 30 31 30 31 30 28 24 25 24 23 21 21 21 20 18 20 21 22 23 24 23 20 17 23 27 31 32 33 34 34 33 33 34 36
30 30 31 31 31 31 31 31 30 30 30 29 29 28 24 23 23 21 21 20 19 16 20 21 21 22 21 21 20 21 21 23 19 26 30 31 34 34 34 33 32 32 35
30 30 31 30 31 30 28 29 28 28 29 28 25 24 23 22 20 21 18 19 18 18 18 19 19 18 20 22 23 20 22 23 22 15 23 27 32 33 34 33 33 32 34
30 31 30 30 31 30 27 30 28 27 24 23 23 21 21 21 20 21 18 18 19 18 19 19 19 22 22 20 21 20 20 21 24 24 26 25 27 32 30 32 30 33 31
29 30 30 30 30 26 28 26 25 25 24 21 20 20 20 23 22 22 23 21 22 20 22 24 19 21 19 18 24 25 25 23 19 25 27 31 30 34 29 28 32 31 30
30 30 30 30 32 30 27 24 23 23 23 22 22 21 18 14 21 19 21 21 21 24 24 24 23 23 24 22 21 21 21 24 23 23 24 25 29 30 29 25 31 30 29
30 29 30 31 31 28 26 23 23 23 23 23 23 21 20 19 19 20 19 18 17 16 16 14 19 19 19 19 20 20 22 23 23 22 23 24 28 27 29 28 30 32 30
29 29 28 31 30 28 26 24 21 24 24 23 22 21 20 18 20 20 17 18 16 16 18 22 20 22 24 26 25 25 26 24 25 20 24 25 28 28 29 30 32 32 32
27 26 26 28 27 28 25 24 22 26 27 25 23 20 22 17 18 18 19 19 18 16 14 14 18 20 21 23 27 26 27 27 24 24 21 23 25 25 25 30 30 33 34

GFSMA_sfc_dewp_036.txt.gz
Dewpoint
63 60 58 56 55 54 51 49 49 48 50 48 48 47 45 43 41 43 45 53 53 49 49 49 49 49 49 49 49 49 50 50 51 52 52 55 59 60 61 62 63 62 63
61 60 55 53 52 50 51 49 50 50 48 47 43 43 44 41 37 40 40 45 52 50 48 47 46 45 45 44 44 45 47 48 49 50 51 52 54 56 58 60 62 62 62
58 56 54 53 51 50 51 50 49 47 45 43 41 41 41 35 35 39 37 36 48 50 48 43 42 42 43 43 43 44 45 45 47 48 49 50 52 53 54 55 58 59 62
55 55 53 52 51 51 49 49 47 44 43 42 39 38 38 36 34 37 35 39 41 39 48 46 44 41 42 40 42 43 44 44 46 47 47 48 49 50 51 52 53 56 58
53 52 52 52 52 50 49 46 46 45 40 38 33 33 38 37 37 33 37 38 39 39 39 44 47 45 41 41 41 43 43 44 45 46 48 46 46 46 47 49 50 52 54
52 52 52 51 50 47 47 46 45 42 40 39 34 34 36 38 35 37 37 39 37 37 37 38 36 36 43 40 40 41 45 45 45 46 44 45 45 45 45 46 48 49 51
50 50 50 49 47 46 45 43 42 41 40 40 36 34 35 34 32 35 34 34 34 34 35 36 33 33 32 37 37 40 42 44 44 44 43 43 43 43 43 44 46 47 48
49 48 47 46 46 44 43 43 42 41 39 39 36 35 31 31 33 31 33 32 34 33 31 29 31 31 31 31 31 36 39 41 41 41 41 41 42 45 43 43 43 46 47
48 45 45 44 44 43 42 42 41 40 37 37 38 34 30 28 29 31 30 31 32 32 32 30 26 29 29 29 29 33 37 36 36 38 38 38 39 42 44 44 43 43 46
46 44 43 43 44 44 43 43 39 41 38 37 36 35 35 33 28 25 27 29 30 26 28 30 28 28 28 28 32 37 39 37 34 35 36 38 38 38 41 43 44 41 44
48 45 44 44 44 44 43 43 43 42 40 38 36 35 34 33 30 28 25 26 27 27 27 28 30 29 28 29 30 32 39 39 38 35 35 36 37 37 38 40 40 41 41
42 43 41 43 43 42 42 42 41 40 39 39 38 37 35 33 31 29 27 27 27 27 28 27 28 28 29 29 29 36 36 36 35 30 31 33 35 36 36 38 39 39 40
39 41 41 40 39 39 40 40 40 41 40 38 38 38 38 36 33 31 29 27 27 27 27 28 27 28 25 28 29 36 34 35 36 33 30 31 32 34 36 37 38 39 39
39 38 36 37 37 37 37 38 39 39 40 39 37 38 38 36 34 32 31 30 28 27 25 26 26 26 26 25 30 35 28 34 35 35 34 31 31 31 31 34 36 36 36
33 37 37 36 36 36 37 37 36 37 38 38 38 38 37 37 35 33 33 31 30 25 23 23 23 23 27 25 27 26 26 31 33 33 33 32 31 32 32 32 32 34 34
34 35 35 34 35 36 36 36 37 36 37 38 37 35 34 34 33 33 31 31 29 25 21 21 21 22 24 21 25 25 25 29 30 31 32 32 33 33 32 34 32 34 33
34 34 33 33 34 34 35 35 36 36 34 34 34 33 32 32 31 31 30 28 24 23 20 20 20 22 22 23 23 25 25 23 23 29 31 31 33 33 34 36 35 34 32
35 33 33 33 33 33 33 33 34 34 32 31 31 31 30 26 27 26 25 23 22 21 19 18 20 21 22 22 22 23 21 19 21 26 29 32 32 32 35 36 35 34 33
34 33 32 34 34 33 31 32 32 32 31 31 30 30 28 25 23 23 23 20 20 19 20 19 18 20 21 21 21 23 23 24 22 27 27 29 31 32 34 35 34 35 34
33 33 34 34 35 32 31 31 30 31 30 28 29 27 24 23 22 20 18 19 18 19 19 19 19 19 20 22 23 20 22 23 22 20 25 27 31 32 33 35 36 35 34
33 34 34 34 32 31 29 31 29 28 27 26 26 23 22 23 24 23 18 19 20 20 19 18 19 20 19 18 18 22 24 25 23 25 25 26 29 30 31 35 35 35 34
33 33 32 33 32 27 30 29 27 25 25 25 23 23 23 25 25 26 25 23 22 21 20 21 21 20 20 22 25 22 21 20 18 24 25 24 28 28 30 34 36 36 32
33 33 33 33 32 32 30 27 25 23 24 25 23 23 21 17 24 21 21 21 20 22 23 22 21 23 25 20 19 19 19 20 20 22 22 20 25 26 29 25 34 32 34
33 32 32 32 32 31 30 28 25 22 24 24 24 23 22 21 21 20 20 18 18 17 17 16 19 18 19 20 21 21 22 22 23 23 24 21 23 26 28 29 32 33 34
32 32 31 31 32 30 30 28 24 23 25 25 24 24 22 20 21 20 19 19 18 17 18 20 19 20 22 26 26 25 25 23 22 22 24 24 23 25 27 27 29 32 32
30 31 30 31 30 31 29 27 24 27 26 26 25 23 23 20 19 19 19 19 17 18 16 15 18 21 22 23 27 26 26 24 24 23 25 26 24 27 25 29 29 30 29

GFSMA_sfc_dewp_039.txt.gz
Dewpoint
59 57 55 53 51 50 47 47 48 49 47 45 42 42 42 40 35 36 46 54 54 51 49 49 47 46 45 45 45 46 47 48 49 50 51 52 53 54 55 56 58 59 61
56 53 52 50 49 48 49 48 47 45 43 43 41 41 40 36 34 34 37 46 54 52 49 46 44 44 44 43 43 44 45 46 46 48 48 49 50 51 52 52 54 55 57
55 53 51 48 48 49 48 47 44 44 42 41 39 37 38 36 36 36 36 36 50 52 50 44 43 42 42 42 42 42 43 43 45 45 47 47 48 48 49 49 50 52 54
52 51 50 48 49 49 48 46 44 42 40 38 35 33 37 36 37 35 34 36 44 45 50 50 42 42 41 40 42 43 43 44 43 44 48 48 46 46 46 47 48 49 51
51 49 49 49 49 48 46 44 43 41 37 37 34 34 35 36 35 35 34 37 37 38 39 45 44 42 39 39 40 41 41 42 46 46 46 45 45 44 44 45 46 47 48
51 51 50 48 47 45 44 43 41 40 38 38 33 34 35 35 35 35 33 32 33 34 36 34 34 34 41 36 37 37 38 41 44 44 42 43 42 42 45 45 44 45 46
48 49 49 48 45 44 41 41 40 38 38 39 34 35 33 33 31 32 33 32 34 32 31 32 32 33 32 34 33 34 36 39 39 39 40 40 40 41 42 44 45 45 44
48 46 45 44 42 41 41 40 39 39 38 37 34 34 30 30 32 30 32 30 31 31 30 29 28 30 31 29 30 30 31 34 35 36 36 37 38 38 39 40 45 45 44
46 45 44 42 41 41 39 39 39 38 36 36 36 33 30 28 30 30 28 29 30 29 29 29 28 28 27 28 30 31 37 35 35 35 34 34 35 36 37 38 42 44 44
44 43 42 42 42 42 40 41 40 39 38 35 36 35 34 32 29 27 28 28 29 27 28 28 28 28 28 29 32 35 40 40 34 34 34 34 35 35 36 36 38 42 42
44 43 43 42 41 42 41 40 40 41 40 37 35 35 34 33 31 28 27 27 28 28 29 28 28 29 27 29 28 30 38 38 38 33 31 32 33 34 35 35 37 39 42
42 40 39 39 39 38 37 37 37 38 38 38 37 37 35 33 31 31 29 27 27 28 28 28 28 28 29 29 29 37 38 37 37 31 30 31 32 33 34 34 35 39 39
39 37 35 36 36 36 36 36 36 37 38 38 37 37 37 36 36 34 31 31 27 28 28 28 28 29 27 28 29 33 33 34 34 31 31 31 32 32 33 33 34 35 36
38 35 35 35 34 34 34 35 35 35 36 38 37 38 38 38 37 34 35 32 29 27 26 25 27 28 27 27 28 32 27 33 34 34 31 30 30 31 31 32 32 33 34
34 35 34 33 33 33 34 34 35 35 36 36 36 37 37 36 36 34 33 32 32 28 26 25 23 24 25 25 26 26 26 29 32 33 31 30 29 28 30 30 31 32 34
34 33 33 32 32 33 34 35 35 35 35 36 35 33 33 33 32 33 32 31 30 28 23 21 21 22 23 21 24 25 25 28 29 31 31 32 32 29 29 30 31 31 32
34 32 32 31 31 32 33 32 33 33 33 32 31 32 31 31 31 30 27 25 23 22 19 20 21 22 21 22 22 24 25 24 24 29 30 31 32 32 33 32 33 32 34
34 32 31 31 33 33 31 31 32 31 30 30 30 29 29 27 23 24 23 20 20 20 19 17 19 20 20 22 22 22 22 22 23 26 30 31 30 31 31 33 33 34 34
33 31 31 32 33 33 30 31 30 31 31 30 30 29 28 23 22 22 20 19 19 18 19 19 18 20 20 21 21 23 23 22 23 26 27 28 30 31 31 33 33 34 35
32 31 32 33 35 33 31 31 30 30 28 26 26 25 24 22 20 18 18 17 18 19 19 19 18 18 19 21 22 20 22 23 23 22 24 27 30 30 29 31 33 33 34
31 32 32 33 33 32 30 32 29 27 25 25 26 24 23 25 28 22 18 18 20 20 20 20 18 19 19 19 20 25 21 19 19 21 23 24 24 25 27 30 32 33 35
32 32 32 33 33 28 32 31 28 25 24 23 23 24 22 24 26 26 23 22 21 19 19 19 19 19 18 22 25 20 19 18 17 21 23 22 24 24 25 28 32 32 35
31 32 32 33 32 31 32 31 29 23 23 23 24 23 22 21 22 19 19 19 19 19 22 20 18 19 17 18 19 19 19 20 20 21 22 22 24 23 25 24 30 32 35
31 32 31 31 32 32 32 31 28 22 22 24 24 23 22 21 21 20 19 18 18 18 18 16 19 16 17 19 21 22 22 23 23 24 24 23 24 24 25 26 30 31 33
31 31 31 30 31 31 32 30 25 23 24 24 25 24 24 21 21 20 19 18 18 18 17 20 19 22 23 24 25 26 24 22 20 21 24 24 24 22 23 24 28 31 33
30 31 30 31 30 30 32 30 27 25 25 26 25 23 23 20 20 19 20 18 17 16 18 17 17 19 22 23 26 24 23 22 22 21 23 27 25 24 21 24 28 28 27

GFSMA_sfc_dewp_042.txt.gz
Dewpoint
58 56 53 51 49 48 47 48 46 44 43 41 40 38 38 35 34 36 40 51 53 50 50 47 45 44 46 45 45 45 46 46 47 47 48 48 49 50 49 50 51 52 54
55 51 49 48 48 49 48 46 44 42 41 39 37 37 37 35 35 36 37 37 53 53 48 45 43 43 44 43 43 43 43 44 44 46 48 49 48 47 47 48 49 50 51
53 51 49 47 48 48 46 44 43 41 38 37 35 35 36 35 36 35 36 37 50 53 50 44 42 43 42 42 43 42 42 43 44 49 48 47 46 46 46 46 47 47 49
51 50 48 48 49 48 45 44 42 39 37 37 34 34 34 35 34 34 34 36 42 45 48 44 42 39 39 39 40 40 41 41 42 42 45 45 46 45 44 45 46 46 46
50 49 49 49 48 46 45 43 41 39 37 36 33 34 34 33 34 33 31 33 35 37 37 40 40 40 35 35 35 37 37 38 39 42 42 42 42 43 43 42 45 46 46
50 50 48 47 47 45 43 43 39 39 38 37 33 33 34 33 33 32 32 32 32 31 32 31 33 35 40 35 33 33 35 37 38 39 38 37 41 39 39 41 41 44 46
51 49 48 45 44 41 41 41 39 37 37 37 33 35 34 33 32 31 31 31 30 29 30 29 31 31 31 32 30 33 34 34 35 35 35 36 36 37 38 38 39 40 44
48 46 45 43 41 41 40 39 38 38 38 37 33 33 30 31 32 30 29 30 28 29 29 27 27 27 28 28 32 37 36 33 33 33 34 34 34 35 36 37 37 38 40
46 45 44 42 41 40 39 38 38 38 35 36 36 33 30 28 30 30 28 29 28 28 28 27 27 26 27 27 30 33 36 37 35 33 32 33 33 34 35 36 36 37 38
45 44 43 42 42 42 40 41 40 39 38 36 36 35 33 33 30 29 28 28 29 28 28 28 28 27 28 28 31 32 38 36 33 32 31 33 33 34 34 35 36 36 39
44 43 43 42 41 41 39 37 37 37 39 37 36 34 34 33 31 29 28 27 29 29 29 29 28 29 28 28 28 29 39 37 34 31 31 32 33 34 34 35 35 35 36
41 40 39 39 38 37 36 36 35 35 36 37 37 36 35 33 32 31 30 30 28 28 28 29 28 29 29 29 30 33 35 34 31 30 31 32 33 33 34 35 35 36 36
38 37 37 37 37 36 35 34 33 33 34 36 36 36 37 36 37 35 32 31 30 28 28 28 28 28 28 29 29 31 31 34 31 30 30 31 31 32 33 33 34 35 35
38 37 36 35 34 35 34 33 35 36 36 36 34 35 37 37 37 35 36 35 30 28 28 26 28 27 25 27 27 29 27 29 28 29 29 29 30 30 30 31 31 32 33
35 37 35 34 34 34 35 36 35 34 35 35 35 35 36 36 35 34 34 35 34 28 25 25 21 23 24 24 25 26 24 26 28 28 28 28 29 29 29 29 31 31 32
36 35 33 32 32 33 35 34 33 33 33 33 33 32 32 33 32 32 32 31 29 26 22 20 20 21 22 20 23 23 24 26 27 28 30 28 29 29 29 29 30 30 31
35 35 35 31 31 31 33 32 32 33 32 31 31 31 31 30 29 26 26 24 21 20 18 19 20 21 20 20 21 23 24 23 25 27 28 28 30 30 30 29 29 29 31
37 35 32 31 32 33 32 31 31 31 30 30 30 29 29 26 23 24 22 20 19 19 19 17 18 19 19 20 21 22 22 22 23 26 26 26 26 27 30 31 32 31 32
34 32 31 31 32 33 31 32 31 31 31 30 29 25 26 24 22 23 21 19 19 18 19 19 18 19 19 20 20 22 23 22 24 23 22 23 24 26 29 29 29 29 31
32 31 31 32 34 33 32 32 30 31 30 27 26 25 24 23 21 19 18 18 18 18 19 19 19 19 19 20 21 20 21 22 19 17 21 22 24 27 26 27 28 28 30
32 31 32 33 34 33 31 32 31 29 27 26 26 24 24 24 27 24 18 19 20 19 19 19 18 19 19 18 19 22 23 18 18 20 20 21 24 23 24 27 28 28 29
32 31 31 34 33 31 32 34 31 28 26 24 23 23 23 25 26 27 25 24 21 19 17 18 18 17 16 19 20 19 19 18 18 21 23 22 24 23 24 26 28 29 31
30 30 32 32 33 33 33 34 32 26 24 24 23 24 22 22 24 21 22 20 19 19 21 19 17 17 17 16 17 18 20 21 21 23 23 22 24 23 25 24 28 29 30
31 32 32 33 32 31 33 33 31 24 23 23 24 24 23 22 22 20 19 18 18 17 17 16 18 18 17 20 22 24 25 26 24 23 24 22 23 24 26 26 28 30 32
31 31 31 32 31 31 34 33 29 24 23 24 25 25 24 23 23 24 20 19 18 17 15 19 20 22 22 23 24 24 22 21 19 19 22 23 23 24 25 26 27 30 31
30 30 29 30 32 30 33 33 29 26 25 25 25 25 26 22 24 22 20 19 17 16 16 18 18 18 20 21 23 23 22 21 20 19 22 24 23 26 22 22 24 27 26

GFSMA_sfc_dewp_045.txt.gz
Dewpoint
55 54 53 51 48 48 47 45 43 42 40 37 37 36 35 35 35 36 37 44 51 49 49 47 44 47 44 44 44 44 45 45 46 48 48 48 47 48 48 48 48 49 50
55 52 49 48 48 48 45 44 41 39 37 35 36 36 34 35 34 34 36 38 51 53 48 45 44 45 43 43 42 43 44 43 44 48 47 46 47 46 45 46 47 47 48
51 49 48 48 49 46 44 42 39 38 36 35 34 34 34 35 34 33 36 44 48 50 49 43 43 43 40 41 41 41 41 41 42 42 43 45 45 45 43 44 44 46 47
50 48 48 48 48 45 44 42 39 37 37 35 33 33 34 34 33 32 33 36 40 45 44 43 38 35 35 36 37 38 39 39 39 41 41 41 42 42 42 42 43 43 45
50 48 49 50 47 45 44 41 40 38 36 35 33 33 33 33 33 31 32 31 32 33 33 36 40 40 35 35 34 35 37 38 38 40 40 39 39 40 40 40 40 41 41
49 49 48 47 45 44 43 41 39 39 37 36 32 34 34 33 32 31 30 30 29 30 30 30 32 36 36 31 31 34 36 36 36 37 37 36 37 37 37 38 39 40 40
50 48 47 46 43 41 41 39 38 36 37 36 33 34 34 33 31 31 30 29 27 28 28 29 30 29 28 34 34 33 34 35 36 36 35 34 35 35 35 36 37 38 38
49 47 45 43 41 41 39 38 38 38 37 36 34 32 30 31 31 31 29 30 27 28 27 26 26 26 27 27 31 32 32 32 33 34 34 34 34 34 35 36 37 37 37
48 46 44 42 40 40 39 38 38 37 36 36 36 34 31 29 30 31 29 29 28 28 28 27 26 26 27 26 29 32 34 33 30 32 33 33 33 34 35 35 36 37 37
46 44 43 42 41 41 40 41 40 39 37 36 36 36 33 32 30 30 29 28 29 28 28 29 28 28 28 28 30 33 35 38 37 31 31 33 33 34 34 34 35 36 37
44 43 43 42 42 41 38 36 36 36 39 37 36 34 34 33 32 31 29 29 29 30 30 30 29 29 28 29 29 30 35 34 33 32 32 33 33 34 34 35 35 35 36
42 41 40 39 37 37 36 35 34 33 34 35 36 35 35 33 32 31 29 29 29 30 29 29 29 28 29 29 29 33 32 32 31 31 31 33 33 34 35 35 35 35 35
38 38 37 36 37 36 36 34 34 34 35 36 36 36 36 35 35 34 32 30 32 31 29 29 29 28 24 27 27 29 31 30 30 30 31 31 32 32 32 33 34 34 35
37 36 38 38 38 35 35 35 36 36 36 35 34 35 35 36 36 36 34 35 31 30 28 27 28 24 24 25 26 27 26 28 27 27 29 29 29 30 30 31 31 33 34
37 39 40 36 36 35 35 36 36 34 34 34 34 34 35 35 35 35 34 36 34 28 25 26 20 22 23 23 23 23 24 25 26 27 27 28 29 29 30 30 30 31 32
40 38 36 37 36 36 36 36 33 33 33 34 33 32 32 33 32 32 32 33 34 29 22 22 20 21 21 20 21 22 23 26 27 27 27 27 28 29 29 30 30 30 31
37 38 40 37 35 33 35 33 32 33 33 32 31 31 31 30 30 27 26 24 22 21 18 18 20 20 19 19 20 22 23 23 24 26 26 27 27 27 27 28 29 30 30
39 40 38 34 33 33 33 33 32 32 31 30 30 29 29 29 25 24 24 21 20 19 18 17 18 18 19 19 20 21 21 21 22 24 25 24 24 25 25 26 28 31 31
36 34 33 33 33 33 33 32 32 32 31 31 30 29 26 26 23 23 23 21 19 18 19 18 18 19 19 19 19 21 22 22 22 24 22 23 25 26 27 27 28 27 28
33 32 33 33 34 34 33 32 31 31 31 31 29 26 25 24 23 22 20 19 18 18 18 19 18 17 18 19 20 20 19 21 19 17 21 23 25 26 27 27 28 29 29
33 33 32 34 34 34 33 33 31 31 30 28 27 26 25 25 25 23 19 19 18 19 18 18 16 16 17 16 18 18 18 17 18 20 20 21 23 23 24 26 27 29 29
31 33 36 33 33 31 33 34 33 30 29 27 26 24 24 27 29 29 29 24 22 19 18 16 15 15 15 17 17 17 17 18 17 21 22 22 24 23 24 25 27 29 30
38 37 33 33 32 32 34 35 35 29 27 25 24 23 23 22 26 25 28 25 22 21 22 18 16 16 17 16 16 19 20 21 21 23 23 20 22 22 23 23 27 29 30
35 31 31 31 31 31 34 34 34 28 25 25 24 25 24 23 24 22 20 19 18 18 18 15 17 18 18 19 20 22 24 24 22 21 22 19 21 22 24 25 28 29 30
31 30 30 30 30 30 33 34 33 27 24 24 24 25 25 24 25 27 21 20 19 19 18 19 20 21 22 21 21 20 19 20 17 17 20 22 22 22 24 25 27 29 30
31 30 29 29 30 29 31 33 33 27 25 25 24 25 29 26 26 26 23 20 18 19 15 15 18 19 19 20 21 21 20 18 18 16 21 20 20 24 22 22 23 27 26

GFSMA_sfc_dewp_048.txt.gz
Dewpoint
53 53 53 49 48 47 45 43 41 38 37 37 37 36 36 36 36 37 38 47 52 50 50 46 45 46 45 45 44 44 45 45 45 46 46 45 46 46 45 46 46 47 48
55 53 50 48 48 46 44 42 39 37 36 36 36 36 36 34 34 37 41 48 54 54 48 45 43 44 44 43 43 43 42 43 43 43 43 44 44 43 44 43 44 45 46
54 50 48 48 47 44 42 40 38 37 36 35 34 34 35 34 34 35 39 45 46 50 48 45 44 42 40 41 39 39 40 41 40 41 42 41 41 40 41 41 42 43 44
53 48 48 48 46 45 42 40 38 37 36 34 33 34 34 35 33 33 33 38 42 38 42 42 40 36 34 35 36 37 37 39 39 39 40 41 39 39 39 39 40 41 41
49 48 49 48 46 45 43 41 39 38 36 34 33 34 34 34 33 31 31 31 34 34 32 39 42 39 36 34 34 35 36 37 37 38 37 37 37 37 38 38 39 39 40
49 48 49 48 45 44 42 40 39 38 37 35 32 34 35 33 33 32 32 29 30 32 31 33 35 35 35 32 33 35 36 38 38 37 37 36 36 36 36 35 36 37 38
49 48 47 45 44 43 41 39 38 37 37 36 34 35 33 34 33 32 32 30 30 30 31 31 31 29 28 33 34 34 36 36 36 36 36 36 36 36 36 36 36 36 37
49 47 46 44 42 41 40 39 38 38 37 36 34 33 31 32 32 33 31 31 30 30 29 29 29 30 30 28 32 34 34 33 34 34 34 34 34 35 35 36 36 36 37
49 46 44 42 41 40 39 38 38 37 36 37 36 35 31 29 31 33 31 30 30 30 30 29 29 30 30 29 30 33 36 35 33 34 33 33 33 34 35 35 36 36 36
48 46 43 41 41 41 40 40 39 38 38 35 37 36 36 34 31 30 32 30 30 30 30 30 30 30 30 30 32 34 35 37 35 33 33 34 34 34 34 35 35 36 36
45 43 42 42 41 40 38 37 37 37 39 37 37 36 34 34 32 31 30 31 31 31 32 32 31 30 30 30 30 33 34 34 32 33 34 34 35 34 35 35 36 36 36
43 42 41 39 38 37 35 36 37 35 35 36 36 36 35 34 33 32 30 30 30 32 31 31 31 30 28 28 26 31 31 32 31 31 33 34 35 35 35 35 36 36 36
39 38 37 37 36 38 40 39 35 34 35 35 36 35 36 36 36 34 33 31 31 32 31 31 30 27 24 27 27 27 28 28 28 30 30 31 31 32 33 33 34 34 35
39 38 39 40 42 40 36 37 36 36 36 36 34 35 36 36 37 36 34 35 31 31 30 29 29 25 24 25 25 26 24 26 27 27 28 29 30 30 31 32 32 33 33
38 39 44 42 37 37 39 37 36 36 35 34 34 34 34 35 36 36 36 35 34 27 26 27 27 24 23 24 23 25 23 25 27 27 27 28 29 29 30 30 31 32 32
40 43 42 36 38 40 37 36 35 34 33 34 34 33 34 33 33 33 33 34 35 31 27 26 23 22 21 20 22 23 22 26 26 27 27 27 28 28 28 28 29 30 30
43 41 37 39 39 36 35 35 33 33 34 32 33 32 32 32 31 31 30 28 28 27 22 20 21 21 19 19 20 21 23 22 23 26 27 27 26 26 26 26 27 28 29
39 39 42 38 35 33 34 34 34 32 33 32 31 31 31 29 29 27 25 23 22 21 19 17 18 19 19 20 20 20 19 20 22 24 26 25 24 25 27 27 27 27 28
40 38 37 35 34 34 34 35 34 33 32 31 31 30 30 29 28 24 24 23 21 19 19 19 18 20 20 19 18 20 21 21 21 23 23 23 25 27 27 27 28 28 28
36 36 36 34 35 37 34 34 32 32 32 31 31 30 29 26 24 23 22 22 20 19 18 18 19 18 17 18 20 19 18 17 17 18 21 23 25 26 26 27 28 29 29
34 34 36 39 37 35 32 33 32 31 30 30 30 28 27 27 28 26 21 20 19 18 19 19 17 16 15 14 13 18 16 17 19 20 20 21 22 23 23 26 26 28 28
36 40 39 39 37 34 33 35 34 31 30 30 28 27 26 28 30 32 31 28 22 20 20 17 16 15 14 14 19 18 17 18 15 21 22 22 23 22 22 25 26 27 29
40 39 39 37 33 32 33 35 35 32 30 29 28 26 24 23 27 25 27 31 28 26 23 20 18 16 16 17 17 17 18 20 20 21 22 19 21 21 22 22 26 28 29
39 38 34 32 31 30 33 34 34 32 30 28 27 25 24 24 24 24 23 24 21 20 20 19 19 17 17 19 19 20 21 21 20 19 21 18 21 22 23 23 27 29 30
35 32 30 30 30 29 32 33 32 30 29 27 26 25 25 26 26 28 24 21 19 18 21 23 22 21 22 22 22 21 18 18 16 14 18 19 22 21 23 25 27 28 28
31 30 29 29 30 29 31 32 32 29 28 27 26 25 29 27 28 29 27 23 20 19 19 15 15 18 20 19 22 20 19 17 17 14 19 19 18 21 20 25 25 27 28

GFSMA_sfc_dewp_051.txt.gz
Dewpoint
57 55 54 51 49 48 46 43 42 40 40 39 38 37 37 38 40 39 41 54 54 50 51 46 50 46 46 44 44 43 43 44 44 44 44 45 43 43 43 43 44 45 46
57 55 52 51 48 47 45 43 41 39 37 37 38 38 37 37 41 46 47 48 54 54 49 46 45 44 43 43 41 41 42 42 42 42 42 43 42 41 42 42 42 43 44
57 55 51 50 48 47 46 43 41 41 37 35 37 37 36 37 37 44 46 45 46 51 50 46 44 40 40 40 38 38 39 39 40 41 41 42 41 39 40 39 40 41 42
58 56 51 50 48 47 45 44 41 39 38 37 37 37 36 35 36 38 45 45 41 41 42 40 38 36 33 34 35 36 37 38 38 39 39 38 37 38 38 39 39 39 40
57 55 52 49 49 46 45 43 42 42 39 37 35 38 37 34 35 30 34 37 37 37 34 40 41 38 36 34 34 34 36 38 39 39 39 38 38 37 37 37 36 37 38
54 53 52 50 48 46 45 44 43 42 40 39 32 36 39 35 34 35 33 30 34 35 33 34 35 34 37 35 34 34 35 38 39 39 38 37 37 37 37 37 37 37 37
52 52 51 49 48 46 45 45 43 43 41 41 39 37 37 38 36 34 33 32 34 33 34 33 32 30 28 31 31 33 37 38 37 37 36 36 36 36 36 37 37 37 37
51 51 51 48 48 46 45 44 44 41 41 41 39 37 34 33 35 35 34 33 36 32 29 30 31 30 30 29 31 34 35 36 36 37 36 36 36 35 36 36 37 37 37
50 50 51 49 47 46 43 44 44 43 40 40 41 37 32 28 32 35 37 34 36 33 32 33 32 31 32 31 31 32 34 36 37 37 36 35 35 35 36 36 36 37 37
50 49 48 48 46 45 44 44 43 43 41 37 40 38 40 37 27 25 34 35 34 33 36 36 33 34 33 32 31 32 36 35 35 35 36 36 36 36 36 36 37 36 37
50 47 47 46 45 44 45 45 43 42 40 37 36 36 37 36 37 33 25 28 34 34 35 36 36 34 32 30 32 32 31 32 33 33 34 36 36 37 37 37 36 37 37
49 48 45 46 46 44 42 41 43 42 39 39 36 36 34 31 29 31 29 30 32 33 34 33 34 34 31 29 24 28 28 29 28 29 31 32 34 34 35 36 36 36 36
47 46 45 44 42 40 41 42 41 38 37 37 38 36 37 35 34 33 32 30 31 30 30 32 33 33 27 28 27 27 26 27 27 27 28 30 31 32 33 34 34 35 35
47 45 44 41 41 41 43 40 40 38 40 39 40 39 35 34 35 35 34 33 30 27 27 31 31 32 29 27 25 26 23 25 25 26 28 29 30 30 31 32 32 33 33
43 43 42 41 43 41 40 41 40 38 39 40 39 38 36 34 36 36 36 35 34 30 22 24 27 30 30 27 24 25 24 24 24 26 27 27 29 30 30 30 30 31 32
43 43 42 43 40 40 42 40 38 38 38 39 36 37 36 34 35 35 34 34 33 29 25 23 24 26 25 19 21 24 22 23 23 24 26 27 28 29 29 29 29 29 30
42 43 43 39 39 43 40 37 37 37 36 36 36 36 35 35 34 34 35 33 31 30 28 24 22 23 23 22 21 22 20 18 18 22 25 26 26 27 27 27 28 28 29
43 43 40 40 42 38 37 37 37 35 35 35 35 35 34 31 34 34 32 31 29 27 25 21 20 19 21 22 22 21 15 13 18 20 23 25 26 25 26 27 28 28 29
41 40 41 41 38 38 37 37 36 36 37 35 35 35 34 34 33 32 31 29 27 23 23 21 19 19 20 21 19 18 15 18 15 19 21 22 23 26 27 27 28 28 29
41 41 40 41 40 37 36 36 37 36 35 34 35 35 34 33 32 32 30 28 25 23 21 20 19 18 19 19 18 13 13 14 14 14 19 21 24 25 26 26 27 28 29
39 37 37 39 39 38 37 37 37 36 35 35 35 34 34 34 34 32 26 27 25 24 20 21 19 19 18 17 14 12 13 13 16 17 18 18 18 19 21 23 24 26 27
38 41 41 40 40 39 37 37 36 35 34 33 33 33 33 33 33 32 32 30 28 24 24 23 20 19 18 18 16 14 15 15 14 18 18 17 18 17 19 21 23 26 28
42 41 41 41 41 40 36 35 35 33 34 34 33 32 31 28 30 28 30 32 32 30 26 26 24 21 21 19 13 14 15 16 16 16 17 17 19 18 21 19 23 25 28
41 41 40 39 37 33 33 34 34 33 32 32 33 32 32 31 30 28 28 28 25 27 26 22 22 21 21 18 16 18 20 20 17 16 16 18 19 20 21 21 24 26 29
39 37 34 33 33 32 33 33 32 32 32 31 31 31 31 30 30 30 28 30 25 26 25 26 24 24 23 22 23 22 21 19 20 15 16 19 19 19 20 22 25 25 26
31 30 30 31 31 31 32 32 32 33 33 32 31 30 30 30 30 30 32 31 30 26 22 20 21 22 21 21 23 20 19 20 18 17 14 18 16 17 18 21 23 25 27

GFSMA_sfc_dewp_054.txt.gz
Dewpoint
55 53 54 52 51 50 48 47 46 43 43 42 39 37 37 38 39 35 41 55 52 52 50 48 48 47 46 44 43 43 42 42 42 43 43 43 43 43 42 43 43 43 44
57 54 53 52 50 49 48 47 46 44 42 41 39 38 37 35 38 42 40 46 54 54 49 46 46 44 44 43 41 40 40 41 40 41 41 42 43 40 41 40 41 41 43
57 56 54 52 50 50 50 48 46 44 41 38 38 37 34 36 37 40 40 42 46 50 51 47 45 41 40 40 39 39 39 39 39 39 40 40 38 38 39 39 40 39 40
58 57 53 53 52 51 48 46 45 45 42 40 39 37 36 35 37 38 42 42 42 39 44 41 39 36 34 35 37 37 37 38 39 40 40 40 39 39 38 38 38 38 38
61 57 54 54 54 48 47 46 47 46 43 40 36 39 40 36 35 28 36 40 40 35 31 41 39 38 36 35 35 36 37 39 40 40 40 40 39 39 39 38 38 38 38
62 59 56 55 50 47 47 47 47 45 43 41 31 36 42 38 35 35 33 30 33 36 34 32 33 34 38 36 36 35 36 39 41 41 39 39 38 38 38 38 38 38 38
60 59 56 54 51 48 49 51 47 46 42 43 41 41 41 41 39 34 34 32 32 34 34 32 32 29 30 35 31 33 37 39 40 39 39 38 37 38 37 37 37 38 38
57 56 55 53 51 49 49 50 48 44 43 43 42 41 40 38 37 36 35 34 36 34 31 32 34 34 33 30 34 32 34 37 38 39 38 38 38 37 37 37 37 38 38
55 54 55 53 53 50 48 49 48 46 42 43 42 41 38 36 34 35 37 36 36 35 33 32 35 35 34 34 35 34 35 35 36 37 38 37 38 38 38 38 38 38 38
55 53 53 53 52 50 49 48 46 46 44 41 42 39 39 36 33 32 33 35 36 35 36 34 35 35 35 35 34 33 35 34 34 35 36 37 37 38 38 38 38 39 39
56 53 52 52 52 50 49 48 47 47 44 43 39 40 39 37 37 34 28 26 27 31 32 35 35 34 34 34 33 34 30 31 31 32 32 34 35 36 36 37 37 37 37
55 53 50 50 51 49 49 48 48 44 44 42 39 37 37 34 30 27 27 28 28 29 31 33 33 32 32 32 29 27 26 28 29 29 30 30 32 33 34 35 36 36 36
53 52 51 51 49 49 48 44 43 45 41 40 38 37 34 32 31 30 29 28 27 27 28 30 31 31 29 31 30 27 28 29 27 28 29 29 30 32 33 34 35 35 35
53 53 51 50 48 44 42 43 44 40 40 40 40 39 33 33 33 31 28 29 29 28 27 28 28 29 30 28 30 26 27 32 28 27 27 28 29 30 30 32 33 33 33
53 50 49 47 45 43 44 42 43 42 41 41 40 40 36 34 34 32 32 31 32 32 25 24 23 27 28 28 29 28 26 28 27 27 26 27 28 29 30 31 31 31 32
48 47 46 46 45 43 42 44 43 41 41 43 40 38 37 34 33 33 31 32 31 28 26 24 23 26 26 22 26 25 25 26 28 27 24 25 28 28 29 29 29 29 30
47 46 45 46 42 42 44 42 41 39 39 41 39 36 35 35 33 32 33 31 30 28 25 25 24 25 26 26 25 24 24 23 20 26 25 24 25 26 27 28 28 28 29
46 46 45 42 40 43 42 40 39 40 41 37 36 35 34 30 34 35 32 32 30 29 26 25 25 24 24 25 25 25 20 15 17 21 24 23 25 25 26 27 27 28 29
44 44 42 40 41 41 39 41 41 41 39 37 37 35 34 34 34 33 32 31 29 25 27 25 24 24 23 23 23 23 21 19 13 20 25 25 22 24 26 26 27 28 28
44 42 42 42 41 41 42 42 40 39 39 37 36 35 34 33 33 33 31 31 29 29 27 25 24 23 22 22 22 19 17 14 13 10 20 24 24 24 26 27 27 26 27
41 42 41 41 41 40 39 39 39 40 39 36 36 34 35 35 36 35 30 30 29 30 27 26 26 23 22 21 20 17 16 13 16 17 17 17 18 19 20 24 25 25 26
39 39 39 41 40 39 38 39 39 39 35 34 33 33 33 35 35 35 35 34 32 30 30 30 26 24 24 23 19 19 16 13 14 18 18 18 18 17 19 19 27 25 25
41 41 41 41 41 41 39 38 36 33 32 33 33 32 29 25 31 31 33 33 32 30 31 34 28 27 26 22 21 19 15 15 16 17 18 17 19 19 19 16 27 26 25
42 42 41 40 38 35 34 34 34 33 32 31 31 30 30 30 30 30 31 31 31 30 33 29 27 27 25 24 22 20 19 20 20 18 18 19 20 20 21 21 25 25 25
38 36 34 33 32 32 34 34 32 30 29 29 28 29 29 29 30 34 32 32 30 31 31 31 31 30 24 23 23 22 22 21 23 17 18 18 19 19 20 21 23 25 27
30 29 28 29 30 30 32 34 32 33 33 33 32 30 30 30 30 32 33 33 32 31 31 29 26 26 26 25 26 23 21 21 20 19 17 19 16 17 19 21 21 23 26

GFSMA_sfc_dewp_057.txt.gz
Dewpoint
59 57 56 53 52 51 51 50 49 46 46 44 41 39 37 39 39 36 44 54 51 53 52 52 49 48 46 44 43 43 43 43 43 43 43 43 44 43 42 42 42 43 43
59 56 55 53 52 51 50 50 49 47 45 44 41 38 37 36 39 41 40 47 55 56 51 47 48 46 46 44 41 40 40 41 41 42 41 42 41 40 41 41 41 41 41
58 57 54 54 52 52 52 52 49 47 45 41 40 38 36 37 37 39 37 43 47 52 52 48 46 43 41 41 41 40 39 39 39 41 41 41 41 40 40 40 39 39 40
58 57 55 54 54 54 51 50 49 47 46 43 41 38 37 36 37 37 40 40 41 43 48 46 42 36 34 36 37 39 39 38 39 41 41 42 42 42 41 41 41 40 40
58 57 55 55 56 53 52 49 49 51 46 43 39 39 41 38 37 31 36 40 41 34 32 46 42 37 35 34 34 37 37 38 39 41 42 41 41 40 40 40 40 40 40
61 59 56 57 56 53 50 49 50 50 48 43 32 35 43 42 39 38 36 33 34 36 36 35 35 36 41 37 35 35 36 38 40 42 41 40 40 40 39 40 39 39 39
60 62 59 58 57 52 52 51 50 51 48 44 42 42 44 45 43 39 37 36 35 35 37 35 33 32 34 37 37 34 33 38 40 42 41 40 40 39 39 39 39 39 39
59 60 61 59 57 52 52 52 51 50 50 46 43 42 42 42 41 41 38 37 39 36 36 34 35 35 35 33 36 36 36 35 37 39 40 40 39 39 39 40 40 40 40
59 59 59 58 56 54 52 52 50 51 47 45 46 43 42 41 40 39 41 38 40 38 37 36 33 35 36 36 38 39 37 36 36 37 38 39 38 39 39 39 39 40 40
59 59 57 58 57 55 54 52 50 51 49 45 45 43 46 41 37 37 37 38 38 37 39 37 35 36 37 35 39 37 37 35 33 34 35 36 36 37 37 38 38 38 38
59 57 57 58 57 54 53 52 51 52 48 46 44 42 42 41 42 38 36 34 31 30 32 35 36 36 34 33 34 37 34 30 29 32 33 35 35 34 34 35 36 36 36
59 58 57 57 56 54 52 52 53 51 47 46 43 41 39 40 37 36 32 31 30 31 31 32 34 34 33 32 32 34 31 29 29 31 32 32 33 33 33 34 35 36 36
57 57 56 54 54 53 54 52 49 45 46 44 40 38 42 39 36 32 32 31 30 30 29 31 32 32 29 32 32 33 33 32 33 31 30 30 31 31 32 33 34 35 35
59 57 54 54 53 49 46 48 49 46 43 42 41 42 39 35 35 34 33 32 30 29 30 31 29 29 29 29 32 33 30 36 36 31 29 30 29 30 30 31 32 33 34
57 56 54 52 48 48 49 48 46 43 43 42 42 44 42 42 40 36 34 32 32 33 28 28 26 29 28 29 32 30 29 32 34 32 31 28 28 28 30 30 31 32 32
56 54 51 49 48 48 47 45 44 44 42 44 43 41 42 41 38 35 33 33 32 30 28 26 26 29 28 22 29 28 27 33 32 32 33 31 26 26 28 29 30 30 31
52 50 48 48 46 46 45 44 42 41 41 42 39 40 43 40 38 37 36 33 31 30 28 28 26 29 32 31 27 28 28 28 27 32 33 30 27 26 27 27 28 29 29
49 48 48 46 45 44 44 43 40 40 40 39 40 43 40 35 38 38 36 36 33 32 30 30 29 28 30 31 31 29 24 19 23 25 31 30 27 27 26 26 27 28 28
47 47 45 43 43 44 42 41 40 40 41 42 43 40 39 38 37 37 36 34 33 28 32 30 29 29 29 28 27 28 26 28 20 27 29 29 29 27 26 27 27 28 28
45 45 43 43 43 42 40 40 41 42 42 41 41 40 39 37 37 36 34 35 32 32 32 30 30 29 29 27 27 24 25 25 22 13 20 25 28 27 29 30 30 28 29
43 42 43 42 41 41 41 42 42 40 41 41 41 39 38 37 36 36 32 35 35 32 30 30 30 30 27 27 26 26 25 24 22 19 19 19 21 20 22 27 27 31 30
42 42 41 41 41 40 39 38 39 41 39 36 34 33 33 35 36 35 35 35 35 35 34 33 30 30 30 30 28 28 27 22 19 19 20 20 20 19 20 21 28 27 26
42 42 41 41 41 41 39 39 38 38 33 32 32 32 29 26 32 31 32 34 34 34 32 34 34 32 31 32 30 27 25 22 20 18 21 20 24 23 20 16 28 29 29
43 43 42 41 41 37 38 35 34 32 30 29 29 29 31 31 32 32 32 32 32 32 34 32 31 32 33 34 30 28 25 23 21 20 22 23 23 23 24 23 26 28 28
40 37 34 33 32 31 34 34 32 32 31 31 30 30 29 31 31 33 32 32 31 32 31 35 35 35 30 27 25 27 26 24 25 18 23 22 21 21 22 24 26 25 27
30 28 27 28 30 30 32 31 28 27 27 27 26 25 27 27 28 31 33 34 32 31 32 31 33 33 30 28 27 24 24 25 23 22 21 23 17 18 19 23 23 27 26

GFSMA_sfc_dewp_060.txt.gz
Dewpoint
59 56 56 54 53 54 54 53 52 50 48 45 43 40 40 40 40 44 48 55 54 55 53 51 50 48 46 45 44 43 42 43 42 43 43 43 43 42 42 42 42 43 43
61 57 58 56 56 55 54 53 51 50 49 45 42 39 39 40 40 43 46 53 55 57 53 52 50 49 48 46 42 40 40 40 41 41 42 42 42 41 41 41 41 41 41
60 58 58 58 56 55 54 53 52 50 48 46 43 41 40 38 39 39 44 47 51 53 52 51 49 46 43 41 41 40 39 39 39 40 42 43 42 42 43 43 42 42 42
60 59 57 57 56 56 55 53 51 50 50 47 43 41 39 39 37 37 41 44 46 47 52 52 47 44 39 36 36 38 38 38 38 40 41 42 42 42 41 41 41 41 41
60 59 58 57 58 56 54 53 51 52 50 47 43 42 42 41 38 35 36 40 41 41 46 51 48 46 41 39 35 34 35 37 38 40 42 42 41 41 41 41 41 41 40
59 59 58 59 58 56 54 52 52 52 51 48 39 39 45 43 42 41 38 36 39 36 36 41 42 41 45 39 37 36 35 36 38 40 42 42 41 41 40 40 40 40 40
61 61 59 60 59 56 53 53 52 50 50 47 44 44 46 46 45 42 41 40 38 38 38 38 37 36 40 41 40 37 35 36 38 39 40 41 40 40 40 40 41 41 41
61 61 61 60 59 57 54 53 52 50 50 50 45 45 42 45 45 44 42 41 40 39 38 38 37 35 35 37 40 39 38 37 36 37 38 39 40 40 40 39 39 39 40
61 60 61 60 59 58 55 54 52 50 48 50 47 45 43 41 41 44 43 42 42 41 39 38 37 36 37 38 41 41 40 38 37 35 36 37 38 39 39 39 39 39 39
60 59 59 59 59 58 57 55 52 51 50 47 48 46 43 41 38 38 42 42 43 40 39 40 37 38 37 38 41 42 41 38 35 33 33 35 37 37 37 37 36 36 37
59 59 59 58 58 59 57 54 53 52 51 50 47 42 40 42 42 41 39 38 39 40 39 42 40 39 37 35 35 40 39 36 33 32 32 33 34 35 35 35 35 36 36
59 59 59 58 58 57 54 54 54 53 52 48 44 42 41 40 40 38 37 36 34 35 35 36 40 37 36 35 37 39 38 36 33 33 32 32 33 34 35 34 35 35 36
59 58 58 57 56 55 54 54 52 49 49 47 45 41 41 41 39 39 37 34 34 34 34 35 37 38 36 37 37 38 37 36 35 34 33 32 32 33 33 33 34 35 35
59 59 59 56 54 53 51 49 49 49 48 45 40 42 42 41 40 40 37 35 34 33 32 34 35 35 35 34 38 40 35 37 37 37 34 32 31 32 30 30 32 33 34
59 58 56 54 51 50 49 50 49 44 42 43 44 43 43 44 43 42 39 37 36 32 31 32 32 32 33 34 36 34 32 38 38 36 35 33 32 30 29 28 29 31 32
57 56 54 51 49 49 49 46 44 44 43 44 43 43 42 42 42 43 39 38 37 34 31 31 30 30 31 27 35 31 30 35 36 36 36 35 35 31 28 27 28 28 30
54 54 51 49 48 47 46 45 43 42 41 42 42 42 41 42 43 40 39 38 36 34 31 31 31 30 31 31 29 31 32 30 30 36 36 36 36 33 29 28 28 28 29
52 50 48 47 46 45 44 43 41 40 41 41 41 39 41 42 40 39 38 36 36 34 32 30 30 30 30 30 31 30 29 24 26 30 35 34 34 32 32 31 29 29 29
48 48 47 45 44 44 43 42 41 41 41 40 40 42 43 41 39 39 38 36 35 34 34 32 31 31 31 31 29 29 28 29 27 32 34 34 33 33 32 32 30 30 30
46 44 44 44 44 43 42 41 41 41 42 42 42 41 41 40 39 37 37 36 35 34 34 33 32 30 30 30 31 27 27 28 26 23 26 26 30 31 33 33 33 32 32
44 43 43 43 42 42 40 41 42 43 41 41 41 41 41 41 40 38 35 34 33 32 32 31 30 29 29 29 29 31 29 27 27 26 22 21 22 24 24 29 30 30 31
43 43 42 41 41 41 40 40 40 40 40 40 38 34 34 35 35 35 36 35 34 32 31 32 31 30 30 30 31 31 30 29 27 26 21 20 23 21 22 24 28 30 29
43 42 41 41 42 41 38 39 38 40 36 33 32 32 30 27 32 31 32 33 33 34 32 32 31 31 32 32 33 32 31 32 29 24 20 20 22 22 24 20 29 30 31
43 43 42 42 41 39 38 35 33 32 31 32 32 31 29 28 28 30 27 26 28 31 31 30 32 33 33 34 35 33 32 29 24 22 21 20 22 23 24 24 28 29 29
42 41 41 37 34 32 31 30 30 30 28 27 26 27 27 25 28 30 27 27 28 29 30 33 34 34 35 35 34 32 29 25 21 22 22 22 22 23 21 22 23 29 29
34 31 31 34 32 28 31 30 27 27 26 26 25 24 27 27 29 29 27 27 26 24 25 27 29 30 34 33 32 29 28 26 26 23 23 22 21 21 19 22 23 24 26

GFSMA_sfc_dewp_063.txt.gz
Dewpoint
54 55 54 52 51 51 48 51 48 47 44 43 40 39 38 39 40 46 52 56 57 56 53 52 50 49 48 46 45 43 43 42 43 43 43 43 43 43 43 43 43 42 42
55 55 54 52 52 53 52 50 49 47 46 41 38 37 38 39 43 44 50 52 55 57 55 53 52 50 49 47 44 40 40 39 40 41 42 43 43 43 43 43 43 43 43
57 55 56 55 54 54 52 50 50 49 45 43 39 39 37 38 39 45 48 51 54 56 54 56 51 49 48 45 43 39 38 37 37 39 41 42 42 43 42 42 42 42 42
57 57 56 56 56 55 52 52 49 49 46 44 41 39 39 38 36 36 45 47 49 49 53 54 53 48 46 43 40 39 37 35 36 38 40 42 43 42 42 42 41 41 42
59 57 56 56 55 54 53 52 51 50 49 46 41 41 40 39 36 35 40 44 47 48 48 52 51 50 47 43 40 35 34 35 36 37 41 41 42 42 41 41 41 41 40
59 57 57 57 56 54 53 51 49 50 51 47 39 40 41 42 38 39 35 37 40 44 46 46 47 44 48 43 39 37 37 37 36 37 39 41 41 41 40 40 40 40 41
59 59 58 58 57 54 53 50 50 50 49 48 44 42 44 43 41 40 39 37 36 36 39 43 41 38 41 46 42 41 41 39 37 38 37 38 39 40 39 39 39 40 40
61 60 59 59 59 57 52 52 51 49 49 49 43 44 42 44 44 43 41 39 38 38 37 37 37 37 37 39 39 43 42 41 39 37 37 36 37 38 39 38 39 39 39
60 60 60 60 59 57 55 53 51 49 48 50 48 45 43 42 41 43 43 42 40 40 38 38 38 36 36 36 41 44 45 43 40 39 36 35 35 36 37 37 38 38 37
60 60 59 59 59 58 57 55 53 52 50 50 51 48 43 41 39 38 41 42 41 41 39 39 38 36 35 38 41 43 44 43 40 39 37 35 34 35 36 36 36 36 37
59 59 58 57 57 57 55 56 54 54 53 52 50 46 45 46 45 40 39 39 40 41 40 39 39 39 37 37 39 42 44 42 40 39 38 35 34 35 34 35 36 36 36
60 59 58 58 57 58 57 54 54 53 52 49 48 47 45 44 43 39 39 38 36 36 36 37 41 39 38 36 39 43 43 41 40 39 37 36 34 34 34 35 35 35 35
58 58 58 57 56 55 53 53 54 52 50 48 46 45 45 43 43 43 41 38 36 35 34 35 36 39 37 37 38 43 42 40 40 38 37 36 35 34 34 33 33 33 34
58 58 58 57 56 53 52 52 50 50 48 47 44 44 43 44 44 43 41 40 34 33 33 32 36 35 35 36 38 43 40 39 39 39 38 36 35 34 33 32 31 30 31
59 57 58 56 54 52 50 50 49 47 46 44 44 44 43 44 44 44 43 41 36 34 31 32 32 32 32 34 37 39 35 39 39 39 39 38 35 34 34 31 30 29 29
58 57 55 52 50 50 50 48 46 44 43 44 44 43 43 43 43 43 43 42 38 35 31 32 32 32 30 29 34 36 33 38 39 39 38 37 37 36 34 31 30 29 28
55 54 52 50 49 49 47 46 44 43 43 43 43 42 42 42 42 43 42 39 38 36 34 33 32 31 29 30 30 36 33 34 34 38 37 37 37 38 37 35 32 29 29
54 51 50 49 48 46 45 44 42 42 41 41 41 41 40 39 42 43 41 39 37 37 35 33 32 31 31 31 31 31 30 28 29 33 38 38 37 36 35 35 34 33 31
49 48 48 46 45 44 43 43 42 42 41 41 41 41 41 44 41 40 39 39 38 36 35 34 33 33 32 33 32 31 31 31 28 34 35 36 37 37 36 35 34 34 33
47 46 45 45 45 44 43 42 41 41 41 41 42 42 41 40 39 39 39 36 36 35 35 34 33 32 31 32 32 31 29 31 30 28 30 28 32 34 35 36 35 35 34
44 44 44 44 44 43 41 41 41 41 42 41 41 41 41 41 41 40 39 37 35 34 33 32 31 31 30 29 28 30 30 31 30 31 29 24 22 22 24 29 32 34 35
43 43 43 42 41 41 39 39 41 41 40 40 38 34 33 35 34 34 32 32 31 29 29 29 30 30 31 30 30 30 32 31 31 31 29 25 22 21 22 23 27 30 31
42 41 39 40 40 40 39 39 38 39 38 32 31 31 28 26 29 28 29 29 28 30 29 29 29 29 30 31 32 31 30 32 32 32 29 28 23 21 22 20 30 31 29
40 39 39 40 40 40 37 37 35 31 30 28 28 27 27 26 26 28 26 26 26 26 26 27 29 29 30 33 33 33 32 32 34 33 26 20 21 20 23 24 29 30 29
41 41 41 35 30 28 31 31 28 26 26 26 25 25 24 25 28 28 25 23 22 23 24 28 28 29 29 30 30 30 32 32 30 25 23 21 21 22 22 22 23 27 29
40 34 32 30 29 28 30 30 27 25 23 22 23 23 25 25 27 26 23 24 24 24 25 26 26 28 29 29 31 32 31 31 30 26 26 23 21 20 18 22 21 22 22

GFSMA_sfc_dewp_066.txt.gz
Dewpoint
53 53 51 49 48 47 49 49 47 44 43 40 39 39 40 45 50 53 54 58 57 55 53 53 52 51 48 47 45 45 44 44 43 43 44 44 44 44 44 44 44 44 44
53 51 50 50 49 49 51 49 47 45 42 38 37 38 39 39 44 49 52 55 57 57 55 53 52 50 49 47 45 42 41 41 40 41 42 43 43 43 43 42 42 42 42
54 53 51 51 51 52 51 49 48 48 44 41 38 37 39 41 43 44 49 51 54 57 57 56 53 51 50 48 45 41 39 39 38 39 40 42 43 43 42 42 42 41 42
55 54 54 54 54 53 52 51 50 48 45 43 40 39 37 38 41 43 46 48 51 52 54 57 55 52 49 47 44 40 38 36 36 37 40 41 42 42 42 42 41 41 41
57 56 56 56 55 54 52 51 49 49 47 45 41 39 39 37 36 38 44 46 49 49 50 54 54 53 51 47 43 41 36 35 36 36 39 40 41 41 41 41 41 40 40
58 57 56 56 54 54 52 51 49 50 50 48 42 40 40 39 37 38 41 44 47 48 48 48 49 48 51 47 43 41 40 38 37 37 38 39 39 39 40 40 40 40 40
59 57 56 57 55 53 52 51 50 49 49 49 44 42 42 42 39 39 37 38 41 43 47 46 46 43 44 50 44 42 42 41 40 39 38 37 36 37 38 38 39 39 39
58 58 58 57 56 55 53 51 50 49 49 49 45 44 40 43 45 42 40 38 37 38 41 44 43 40 37 42 42 44 43 43 43 42 40 39 36 35 35 36 37 38 38
58 57 57 58 58 57 54 53 52 49 48 50 46 45 44 43 43 44 43 42 39 39 39 38 38 38 37 39 42 46 48 47 44 43 42 40 38 37 35 35 36 37 37
58 59 59 58 58 58 56 54 53 51 50 49 51 49 46 44 42 42 43 43 42 40 40 39 39 38 36 37 39 44 46 45 45 44 43 42 40 37 35 35 35 36 37
58 59 59 59 59 58 57 56 53 52 52 51 51 48 46 47 46 44 42 42 40 42 42 41 40 39 37 37 38 42 46 44 45 44 43 42 41 39 36 35 35 36 37
58 59 59 58 57 57 55 55 54 53 51 52 51 48 47 46 45 44 43 42 38 38 37 38 40 41 40 38 40 43 45 44 44 44 42 42 41 39 37 36 35 35 35
57 58 57 57 57 57 56 53 52 52 51 51 49 47 47 46 45 44 42 40 38 37 36 36 37 36 38 38 38 44 45 43 42 43 43 42 40 39 38 36 35 35 34
56 59 58 57 57 55 54 52 52 52 50 49 48 47 45 45 45 44 42 41 38 36 34 34 35 36 35 35 38 43 42 42 42 42 43 42 40 38 38 36 35 34 33
57 57 57 57 56 55 51 51 51 49 48 48 46 45 44 44 45 45 43 42 40 36 35 34 32 33 34 33 35 40 40 42 42 41 41 41 41 40 38 36 35 34 32
58 57 57 56 54 52 51 50 49 47 46 45 45 44 43 44 44 43 43 43 41 39 37 34 33 33 33 31 33 38 39 40 41 40 39 40 40 40 39 38 36 34 32
59 58 56 53 51 51 49 48 46 45 44 43 43 43 43 42 43 43 43 42 40 39 37 36 34 33 31 31 31 34 36 36 36 40 39 39 39 39 39 38 38 36 33
55 54 53 51 50 49 47 46 44 44 43 42 42 42 42 42 41 42 43 42 40 39 37 36 35 32 31 32 32 32 31 32 32 35 39 39 39 38 38 38 38 36 35
52 51 51 49 48 46 45 44 43 43 43 43 42 41 41 42 43 41 39 38 38 39 37 35 35 35 33 33 32 32 33 32 32 35 36 38 38 37 38 38 36 36 36
49 49 49 47 45 45 44 43 43 42 42 41 42 42 43 41 38 37 37 36 35 33 33 32 33 33 31 32 32 31 31 30 31 31 34 35 37 37 37 37 36 36 36
48 47 45 45 44 44 43 42 41 41 41 42 42 41 40 39 36 34 30 27 27 27 27 27 27 28 28 29 28 30 30 30 32 31 31 33 33 34 33 36 36 37 36
45 44 44 44 43 42 39 39 40 42 41 40 38 32 31 29 31 31 31 31 29 25 24 25 25 25 25 28 30 30 31 31 30 31 31 32 33 30 30 30 29 31 31
44 43 43 42 41 41 39 39 38 39 36 31 28 27 25 24 28 27 27 27 26 25 27 25 24 25 25 26 28 27 27 28 28 32 29 29 28 30 29 23 29 32 32
42 41 40 39 39 39 38 37 34 30 28 28 26 24 23 24 27 25 25 23 23 23 23 23 24 25 26 26 25 26 26 27 27 29 33 29 27 30 25 23 28 30 33
39 39 38 35 33 35 35 32 28 26 24 23 23 23 24 24 24 25 24 24 24 25 26 28 29 30 31 31 30 29 26 25 25 25 31 32 26 25 22 22 23 29 30
40 39 33 30 29 29 31 30 26 24 21 20 22 22 23 22 23 25 25 25 24 22 23 25 24 24 26 27 30 28 27 27 27 27 27 28 27 26 21 22 21 22 21

GFSMA_sfc_dewp_069.txt.gz
Dewpoint
53 52 50 48 47 49 48 46 44 42 40 39 42 46 49 51 53 54 55 58 57 55 54 53 53 51 50 48 46 45 44 44 43 44 44 44 44 44 44 44 44 44 44
52 50 48 47 48 49 49 47 44 43 39 38 39 40 43 49 51 53 53 55 57 57 55 53 52 52 50 48 46 44 43 42 41 41 43 43 43 44 43 43 43 43 43
50 49 49 49 49 50 49 48 46 44 41 38 37 39 40 42 46 50 52 53 55 57 57 56 53 52 51 51 47 43 41 41 39 39 41 42 42 43 42 42 42 42 42
52 50 50 50 52 52 50 49 48 46 43 40 38 38 40 41 41 43 48 50 52 54 56 57 57 54 52 49 48 44 42 40 38 38 40 41 42 42 42 41 41 41 41
54 51 52 52 53 53 51 50 49 48 45 43 40 39 38 39 42 42 43 46 49 52 51 55 56 55 54 50 48 44 43 39 38 38 40 40 40 39 39 39 40 40 41
56 55 55 55 54 53 52 51 49 49 47 46 41 39 39 39 37 40 43 44 47 50 50 50 52 51 53 52 47 44 43 41 40 39 41 40 38 37 36 37 38 39 40
57 56 56 56 54 53 51 51 49 48 49 48 43 41 41 40 39 37 38 43 45 47 48 48 48 47 48 53 48 45 45 44 43 42 42 41 39 37 35 35 36 37 38
57 57 56 56 55 54 53 51 50 49 49 49 45 42 39 41 44 41 40 37 41 42 46 46 46 45 42 45 46 47 46 45 45 45 43 43 42 39 37 36 35 36 37
57 57 57 57 56 55 53 52 51 50 49 50 46 45 44 41 43 44 43 41 39 39 40 43 44 43 41 39 44 47 50 49 46 45 45 45 43 41 40 37 36 36 36
57 57 57 57 57 57 55 54 53 51 51 50 50 49 48 46 43 42 44 44 44 41 40 39 39 40 40 39 40 44 46 48 49 46 45 46 45 43 41 39 38 37 37
56 57 58 57 57 57 57 55 52 52 52 50 51 48 47 47 47 45 44 45 44 44 44 41 41 41 39 38 38 39 45 46 47 48 46 46 46 44 43 41 39 39 38
55 57 57 58 57 57 56 56 54 52 51 50 50 48 47 46 46 46 44 44 42 40 39 39 41 41 41 40 39 42 43 45 45 47 47 46 46 45 44 42 41 40 39
53 56 57 57 57 57 56 54 53 53 51 50 50 49 49 48 48 47 45 42 39 39 37 37 38 37 37 39 39 43 44 44 45 46 46 47 46 45 44 43 42 41 39
53 55 57 58 57 56 56 54 54 52 52 51 49 49 49 48 46 45 43 40 40 39 36 36 35 36 36 35 37 41 41 43 44 44 45 45 46 46 45 43 41 40 38
55 55 56 57 57 56 56 55 54 51 50 49 49 49 46 46 45 45 44 42 41 37 36 37 35 34 35 35 35 35 38 41 43 43 43 44 44 45 44 44 42 39 38
57 57 57 57 56 56 53 53 51 49 49 47 46 46 44 44 44 44 44 43 42 40 38 37 35 35 34 33 35 36 36 41 42 42 42 42 42 43 43 43 42 39 37
58 57 57 57 56 54 53 51 49 47 46 45 45 45 43 43 43 43 43 43 42 41 39 38 36 35 33 32 33 33 35 36 38 41 41 41 41 41 41 41 41 40 38
58 58 57 55 53 51 50 49 46 46 45 44 44 43 43 43 42 42 43 42 41 41 39 35 35 33 32 33 33 33 33 33 33 36 39 40 41 40 39 39 39 39 38
56 55 55 53 51 50 48 47 47 45 44 43 43 43 43 42 42 43 41 39 38 38 35 32 32 33 32 33 32 33 33 34 33 36 37 38 39 40 40 39 39 38 39
54 52 52 51 49 47 47 46 45 44 43 43 43 42 42 43 41 39 38 33 29 27 28 27 26 28 29 30 30 29 28 30 31 31 34 34 36 38 39 39 38 38 38
51 50 48 47 46 45 45 44 43 43 42 42 42 42 39 36 35 33 28 26 24 24 24 23 23 24 22 24 23 26 28 28 28 31 32 32 33 33 35 37 38 39 38
48 47 46 45 45 44 40 40 41 41 41 42 38 32 31 31 32 31 29 29 27 23 21 22 21 20 20 23 25 25 25 24 21 25 28 27 31 32 32 32 35 37 36
46 45 45 44 42 42 39 39 39 41 38 34 30 28 24 26 28 26 25 24 23 23 25 23 21 22 23 23 24 24 25 25 24 25 26 25 26 28 32 32 34 35 36
44 43 43 43 42 40 38 37 34 31 29 27 25 24 23 25 25 24 23 23 23 24 24 24 24 25 25 26 27 26 28 28 27 26 28 25 26 26 29 31 34 37 33
44 42 42 41 39 39 35 32 29 28 23 22 23 23 23 23 24 24 24 24 24 24 24 23 26 26 26 27 27 26 27 27 23 23 26 26 25 28 27 29 28 31 32
41 39 35 35 35 33 32 31 27 24 21 21 22 21 23 22 23 25 25 24 23 21 22 23 21 22 24 26 27 26 27 26 25 24 25 26 26 26 26 27 26 25 28

GFSMA_sfc_dewp_072.txt.gz
Dewpoint
52 50 48 48 48 48 44 42 43 45 47 48 50 51 52 52 53 54 55 58 57 56 55 55 53 52 50 48 48 47 46 45 45 46 46 45 45 45 45 44 44 44 44
51 48 48 48 49 47 46 42 40 42 42 44 47 50 51 52 53 54 54 56 57 57 56 54 53 52 51 48 47 46 45 44 43 44 44 44 45 44 43 43 43 42 42
50 48 48 48 49 49 47 44 43 40 39 39 41 45 48 51 52 53 53 54 56 57 57 56 54 52 52 50 47 45 44 43 42 42 43 43 44 43 42 41 41 41 41
50 49 48 49 50 51 48 46 44 42 40 39 39 41 43 46 49 51 52 53 54 54 57 57 56 54 53 53 51 47 45 44 41 41 43 43 43 42 41 39 39 39 40
51 49 49 51 52 52 50 48 48 46 43 41 39 39 41 41 43 42 48 50 52 54 54 57 57 57 56 53 50 48 46 43 42 41 43 42 42 40 38 37 37 38 38
52 52 51 52 53 52 51 50 48 49 46 44 40 39 40 40 41 43 43 44 48 51 52 52 55 54 55 55 51 48 46 44 42 42 44 43 42 40 38 36 35 35 36
53 54 53 55 54 52 51 50 50 49 49 47 44 43 42 41 40 39 40 44 45 47 50 51 51 50 51 55 53 49 46 46 45 45 44 44 43 41 39 37 35 35 35
55 55 55 56 55 54 52 51 50 49 49 48 45 43 41 41 43 41 39 39 43 46 48 49 49 49 47 48 51 51 48 47 47 46 46 45 45 44 42 39 38 37 37
57 57 56 56 55 54 53 52 50 50 49 50 48 46 43 41 43 45 43 41 40 43 44 47 47 46 47 44 47 50 51 51 50 47 47 47 46 46 44 42 40 39 38
56 56 56 56 56 55 53 53 52 52 52 49 50 50 49 47 45 44 44 44 43 39 40 41 42 44 44 44 43 44 46 48 50 49 46 46 47 48 46 44 43 41 40
54 55 56 56 57 56 55 55 53 52 52 51 51 48 48 48 47 47 46 47 46 46 45 43 43 41 41 41 41 41 44 45 46 48 48 47 46 48 48 46 45 43 42
52 54 55 56 56 56 56 56 56 54 53 52 51 48 48 48 46 46 46 45 45 45 41 43 43 42 42 41 40 43 43 44 45 46 47 48 48 47 48 48 47 46 44
51 52 54 55 56 56 56 56 55 54 52 51 51 50 49 50 49 49 47 45 44 42 39 40 40 40 38 41 41 43 44 44 44 45 46 47 48 49 47 46 47 46 45
50 52 54 55 55 55 54 54 53 54 54 53 52 51 51 50 49 48 47 44 41 40 39 40 37 38 38 38 37 41 41 42 43 44 46 46 47 48 47 47 45 44 44
53 52 53 54 55 56 55 55 55 54 52 52 51 50 50 50 48 47 44 44 43 40 39 39 36 38 37 37 37 38 37 38 41 42 43 44 46 46 46 46 46 46 44
53 53 54 54 55 55 55 56 56 55 53 50 50 49 48 47 46 45 44 44 42 41 39 39 37 37 37 35 36 38 36 39 40 41 42 43 43 44 44 44 44 44 44
54 55 55 56 56 56 55 54 53 51 51 48 48 47 46 45 44 44 44 43 42 42 40 40 39 37 36 35 35 35 36 35 36 39 40 40 41 41 42 42 42 43 44
55 56 56 56 56 55 52 52 50 49 49 47 47 46 44 43 43 43 43 42 42 41 40 38 37 36 34 35 35 34 32 32 34 35 38 38 38 39 39 40 41 41 41
55 56 57 56 55 53 52 51 50 49 48 48 46 45 43 43 43 43 43 41 39 38 37 35 32 33 32 32 31 30 31 32 29 30 33 34 34 35 36 38 39 40 40
56 56 55 54 52 50 50 49 48 48 46 46 45 44 43 42 42 41 39 37 31 29 27 26 26 27 28 28 28 25 22 27 26 25 27 30 33 34 35 35 37 38 39
56 56 54 52 52 50 49 48 46 45 44 44 44 42 41 40 39 37 32 28 26 25 23 21 20 22 18 20 21 24 25 26 26 27 27 29 31 28 28 30 32 34 36
55 52 50 49 47 46 41 42 43 44 43 43 37 34 34 33 32 32 30 28 24 21 18 19 19 19 20 22 25 25 25 23 21 26 26 26 28 27 27 28 30 34 36
50 48 46 46 46 45 40 41 40 43 42 36 32 28 27 29 29 26 25 24 24 25 25 23 22 22 23 24 25 24 24 24 24 26 27 25 26 26 27 28 31 33 35
48 47 45 45 44 41 39 39 37 35 33 31 29 27 27 25 24 22 21 23 23 24 25 25 25 25 25 26 27 25 25 25 25 26 28 25 26 26 27 28 31 33 35
45 44 43 43 41 38 36 34 32 29 26 24 24 24 23 23 25 25 23 23 23 23 21 21 23 22 23 24 25 26 24 24 23 22 26 25 25 26 27 28 30 32 34
42 41 40 40 37 35 34 33 29 26 23 23 22 22 24 23 25 26 24 23 20 19 19 17 18 19 21 22 23 22 24 23 22 21 25 26 25 26 26 28 27 29 29

GFSMA_sfc_dewp_075.txt.gz
Dewpoint
52 51 51 50 49 53 55 53 53 52 52 52 53 53 53 53 54 53 53 58 58 57 55 55 54 52 51 49 48 48 47 47 47 47 46 46 46 46 45 45 45 44 44
50 49 50 49 48 49 50 52 52 52 51 51 52 52 53 53 53 54 52 54 58 58 57 55 53 52 50 50 48 47 46 45 45 46 45 45 45 44 44 43 43 43 42
50 51 51 50 49 47 48 48 51 51 50 49 50 52 52 53 53 54 53 53 54 57 57 57 54 53 51 50 48 47 46 44 43 44 45 44 44 43 43 41 41 40 40
51 52 51 51 51 50 48 46 47 46 46 47 48 49 50 52 53 54 53 54 53 51 56 58 57 55 53 53 50 48 46 45 43 43 44 44 44 43 41 40 39 38 39
52 52 52 53 54 53 51 46 45 44 43 42 42 44 46 49 51 51 53 54 55 54 52 56 57 57 57 55 53 51 48 46 44 43 45 44 44 43 41 39 38 37 37
52 52 52 53 54 52 50 49 48 48 44 43 35 40 43 44 45 46 49 51 53 55 55 54 53 53 57 57 53 51 49 48 46 45 46 46 45 43 42 40 38 37 37
53 52 52 54 55 53 52 53 52 51 49 48 44 44 43 44 44 43 45 45 47 51 54 54 54 53 52 57 55 51 49 48 48 46 46 47 46 45 43 41 40 38 38
53 53 54 56 55 56 54 54 53 53 53 50 47 47 46 46 44 43 42 43 46 45 48 51 52 53 53 52 53 54 51 49 49 48 48 48 47 47 45 44 42 40 40
53 54 55 57 57 57 56 55 54 53 51 51 51 50 46 45 46 47 47 43 43 44 45 48 50 51 51 49 50 52 53 53 51 49 49 50 49 48 48 47 45 43 42
55 54 57 57 58 58 57 57 54 54 54 52 53 52 52 50 49 48 47 47 48 46 45 45 46 48 49 48 48 48 47 47 49 50 50 49 48 48 49 49 48 46 44
54 56 57 58 58 58 59 58 56 56 56 55 53 51 50 50 50 50 49 50 48 47 46 45 44 44 44 46 46 45 46 46 46 46 47 47 47 48 48 50 50 48 47
55 56 56 58 58 59 59 59 58 57 57 54 56 54 53 52 51 50 50 50 49 49 48 47 47 46 45 43 42 43 43 44 45 45 46 46 47 47 47 47 48 50 50
53 54 56 57 58 58 59 59 59 58 57 57 57 56 54 54 53 51 49 48 48 47 44 43 43 44 42 44 43 44 44 44 45 45 45 46 46 46 47 47 47 47 47
53 54 56 56 56 57 58 59 59 59 59 58 57 56 55 53 53 51 50 48 44 44 43 43 41 41 40 40 42 41 40 42 42 42 43 43 44 45 47 47 46 46 45
54 54 55 55 56 57 57 58 59 58 59 58 58 57 54 53 52 51 50 48 48 45 44 44 43 41 41 43 40 42 41 41 40 41 41 43 43 43 43 44 44 46 46
54 54 54 54 54 56 57 58 58 58 57 55 55 54 52 50 50 49 48 47 46 46 44 44 41 41 42 38 39 41 40 39 39 39 39 40 41 41 41 41 42 42 42
54 55 55 55 55 56 57 57 58 57 57 56 53 53 51 49 48 47 46 45 44 43 43 42 41 41 41 41 40 39 36 35 34 36 37 38 39 39 40 40 40 40 40
54 55 54 55 55 55 56 56 56 55 54 52 51 51 50 48 47 46 46 45 45 43 41 41 40 41 38 39 36 35 28 21 23 27 33 34 34 35 34 35 36 37 37
54 54 55 55 56 57 57 57 55 53 52 52 51 50 49 47 45 45 44 43 43 41 40 39 37 38 34 34 31 24 23 24 21 26 29 31 31 30 32 33 33 32 32
54 54 55 55 56 57 56 54 53 52 51 51 49 49 47 47 44 45 43 41 38 35 34 31 30 30 29 28 22 19 19 23 23 21 25 28 30 30 30 30 31 31 31
54 54 55 55 56 55 53 52 53 51 49 46 46 45 45 44 43 42 39 36 33 30 29 26 26 24 21 15 17 21 23 21 22 25 25 25 25 27 29 30 30 30 30
54 55 56 55 54 53 45 45 49 48 46 44 41 39 39 39 35 34 33 31 30 26 24 23 20 16 15 21 23 24 23 22 18 25 24 24 26 25 26 27 30 31 31
56 55 55 54 52 51 42 43 43 46 44 40 37 34 32 32 31 28 27 26 26 25 26 21 19 19 21 23 25 24 23 24 23 23 25 23 25 25 26 25 31 32 33
55 53 50 50 48 46 40 40 40 41 37 35 34 33 31 29 26 23 21 21 22 22 23 22 23 22 24 24 24 22 23 24 23 22 23 23 24 24 26 27 30 32 32
49 47 46 45 43 40 38 37 36 34 32 30 30 29 26 25 28 25 21 21 19 22 21 21 20 19 20 22 23 23 21 20 22 17 20 23 24 24 26 27 29 31 31
45 43 42 42 39 37 35 35 34 31 29 27 26 26 26 25 27 25 23 21 18 18 17 15 16 16 17 18 19 20 20 21 19 18 21 25 20 22 25 26 28 28 30

GFSMA_sfc_dewp_078.txt.gz
Dewpoint
56 57 60 59 58 56 55 54 53 52 52 51 51 51 51 51 52 50 53 59 58 57 56 55 54 52 51 51 50 50 49 49 49 48 48 47 47 46 46 45 45 44 44
55 54 54 55 58 58 55 54 53 49 47 48 50 51 51 52 52 52 51 55 58 58 57 55 54 53 52 50 49 48 48 48 48 47 46 47 46 45 44 43 43 42 43
55 53 51 52 54 55 55 54 52 49 47 46 48 50 50 51 51 53 51 52 54 58 58 57 54 53 51 51 49 48 47 46 47 47 46 46 45 44 43 42 41 40 40
53 52 50 51 52 53 53 52 51 49 48 46 47 47 48 50 52 52 52 51 51 50 56 58 57 55 53 51 50 49 48 46 45 46 46 46 45 44 43 41 40 39 39
53 51 50 51 51 49 50 50 49 48 46 45 45 46 47 48 51 49 51 53 53 52 51 57 58 57 57 54 53 51 49 49 46 46 47 46 46 45 43 42 40 40 39
53 51 48 51 49 47 47 45 47 45 44 43 37 42 45 46 47 49 50 50 52 53 53 52 53 53 57 57 55 55 53 50 49 47 47 48 47 46 44 43 42 41 40
51 54 54 53 51 50 51 51 48 49 46 46 42 43 44 46 47 45 47 48 50 51 53 52 52 52 53 57 57 54 52 52 51 49 48 49 48 47 46 45 43 42 41
53 55 54 54 54 55 54 54 52 51 52 49 47 48 46 46 44 44 44 44 49 47 50 52 55 54 54 52 53 57 54 52 51 51 50 49 49 49 48 47 46 44 43
53 54 55 55 56 55 54 55 54 53 51 54 53 50 49 48 50 49 47 48 46 47 47 45 47 52 54 54 53 54 54 54 54 52 51 52 52 50 50 50 49 47 46
53 53 55 56 57 56 55 56 54 55 54 52 52 51 55 53 51 51 50 49 47 44 47 45 48 49 51 52 52 51 50 50 51 51 51 50 50 49 50 50 52 51 50
54 54 55 55 55 56 56 57 57 57 55 54 54 54 54 52 51 49 50 52 50 48 48 48 46 45 48 49 49 50 49 47 47 47 47 47 47 48 48 49 49 50 52
53 54 53 57 56 58 57 58 60 59 58 57 58 56 53 52 52 52 51 52 52 51 52 51 51 49 46 45 46 46 47 45 45 46 46 46 45 45 45 46 47 48 49
52 53 54 55 57 58 58 58 59 60 59 58 58 56 56 56 55 56 54 51 51 51 49 51 50 49 46 47 46 45 45 44 45 44 44 43 44 44 45 45 45 46 46
53 54 55 55 56 56 56 57 59 58 58 59 58 58 57 57 56 56 53 50 47 49 48 49 47 46 45 45 44 43 42 42 41 41 41 42 42 43 43 44 45 45 45
53 55 57 56 56 56 55 56 57 57 57 58 59 59 59 58 59 58 54 52 49 45 46 48 46 46 44 43 42 42 43 41 40 40 40 40 40 40 41 41 42 42 42
55 56 56 56 56 55 55 55 55 55 56 58 60 58 58 58 56 54 53 53 51 49 47 48 47 45 45 42 42 43 44 39 41 38 38 38 37 36 36 36 36 36 37
55 54 54 54 53 53 53 55 55 55 55 57 58 58 56 55 53 53 52 51 50 50 48 46 46 45 45 44 40 42 42 40 39 37 35 35 37 36 35 34 34 33 33
56 54 53 52 52 52 54 54 55 56 56 57 56 55 55 53 52 52 51 51 48 47 47 46 44 43 43 45 42 41 37 29 28 29 32 32 31 33 34 33 34 34 34
54 53 53 54 53 54 53 54 56 56 56 54 55 54 53 51 51 50 49 49 47 45 45 45 41 41 40 40 38 36 32 27 20 29 30 32 34 31 31 32 33 32 33
52 52 54 54 54 53 52 55 56 57 57 56 55 53 52 51 51 49 47 47 45 44 41 41 38 36 35 36 33 27 23 22 22 17 25 27 30 31 32 33 34 33 33
52 52 54 54 55 54 54 55 56 56 56 55 53 52 51 49 46 46 46 44 41 40 38 37 33 30 31 29 25 20 20 22 23 24 24 25 24 24 27 31 32 34 33
53 54 54 54 55 54 48 47 52 56 55 52 48 46 46 45 42 40 41 39 39 36 35 34 31 27 28 25 21 23 22 21 21 23 25 24 25 24 24 25 31 31 33
54 54 55 54 54 55 45 44 44 56 53 50 45 40 39 38 38 34 32 30 28 28 29 28 27 25 22 22 24 24 23 24 24 23 24 24 26 25 24 20 32 33 33
54 55 55 54 54 55 43 43 42 50 46 43 40 39 35 33 30 28 27 26 24 22 22 21 22 23 23 23 25 23 23 23 24 22 23 23 24 23 26 25 31 33 33
55 55 56 55 54 48 40 39 42 39 36 35 35 34 33 31 32 32 28 24 23 23 24 23 23 22 21 21 22 22 23 22 24 18 20 20 24 23 22 24 27 31 31
54 48 44 45 42 41 39 39 39 35 32 31 31 31 32 30 31 29 26 23 22 19 17 16 19 18 19 21 21 19 18 21 21 20 20 24 20 18 22 24 26 27 28

GFSMA_sfc_dewp_081.txt.gz
Dewpoint
62 61 61 61 56 54 54 52 51 50 51 50 50 51 50 51 51 51 53 59 59 57 56 55 55 54 53 52 51 51 50 50 50 49 49 48 48 47 46 45 45 45 45
61 60 61 59 56 55 54 52 52 50 50 50 51 51 50 51 51 53 52 55 58 58 57 55 54 53 52 51 51 50 50 49 49 48 48 47 47 46 44 43 42 42 43
60 60 60 59 60 57 57 57 54 50 48 48 50 50 50 52 51 52 52 53 55 58 58 57 55 54 52 51 50 49 48 48 48 48 48 48 47 45 43 42 41 40 40
56 56 58 59 60 58 56 55 53 50 47 47 48 49 50 51 52 52 51 52 52 52 56 58 57 56 53 52 51 50 48 47 48 48 48 48 47 46 45 43 42 40 40
56 55 55 56 58 55 57 56 55 54 48 47 46 47 49 49 51 50 51 52 53 51 52 57 58 57 56 54 52 51 51 49 48 48 48 47 48 47 45 44 43 42 41
55 53 52 54 53 52 53 53 54 53 51 47 41 45 48 48 49 50 50 50 52 53 52 55 54 54 57 57 55 54 53 52 51 49 48 49 48 48 47 45 44 43 43
52 51 51 52 51 50 51 54 52 52 48 48 42 44 46 48 49 48 50 50 50 52 53 52 54 52 53 57 57 56 57 55 53 52 50 50 50 49 49 48 46 45 44
49 50 53 54 51 50 53 53 52 51 49 50 45 45 45 45 46 47 47 49 53 50 50 53 54 54 53 53 55 57 56 55 54 53 53 52 51 51 50 50 49 48 47
53 54 56 55 54 55 54 56 56 54 51 51 53 53 52 51 50 49 50 47 50 49 49 51 53 52 54 52 54 55 55 56 56 53 53 54 54 53 51 51 51 51 50
55 55 56 56 57 57 57 57 55 56 55 53 52 52 54 54 52 51 52 51 50 47 49 48 46 49 51 53 54 53 52 52 54 55 54 53 52 51 51 51 52 52 53
52 53 55 57 56 56 58 58 56 56 56 57 55 54 54 54 55 51 48 54 51 49 48 48 47 48 50 50 52 52 50 49 50 51 51 50 50 48 48 49 49 49 50
53 55 54 56 56 56 58 58 59 58 58 58 58 58 55 52 52 51 50 51 54 54 52 54 52 50 50 50 49 49 49 48 48 49 49 47 47 46 45 45 45 46 46
52 54 54 56 56 56 57 59 59 59 59 59 58 57 56 55 53 55 55 54 54 55 54 57 56 54 52 52 49 47 48 46 47 47 47 46 45 43 44 44 45 45 45
51 52 53 52 54 55 55 58 59 58 61 60 60 58 56 56 56 55 55 55 52 52 54 53 53 52 52 50 49 47 45 44 45 45 45 44 43 42 43 43 43 44 44
51 53 53 53 54 55 56 57 58 57 58 57 59 60 58 57 58 57 58 57 55 50 49 50 50 50 50 48 46 46 47 44 42 41 41 41 40 39 39 40 39 40 40
56 54 55 54 54 54 55 56 56 57 57 58 59 58 58 58 58 59 58 57 55 51 49 50 51 51 49 43 44 46 46 43 42 41 39 38 37 34 34 35 35 34 34
57 55 55 55 54 55 56 56 56 56 56 57 57 57 57 58 58 57 58 55 53 52 50 51 51 50 48 47 43 44 45 44 43 41 39 37 34 34 33 33 33 33 33
57 55 55 55 55 55 56 55 56 55 55 55 56 57 58 57 57 57 55 53 52 52 51 50 48 47 48 47 45 44 42 39 40 41 36 32 32 33 34 34 34 34 34
56 56 55 55 54 55 55 56 56 55 55 55 56 57 57 57 55 55 53 51 52 51 51 50 47 45 45 45 44 41 39 39 31 35 32 32 33 34 34 34 33 33 34
56 56 55 55 55 54 54 54 54 55 55 55 57 57 55 55 56 53 51 51 50 49 48 48 43 43 40 40 39 38 35 32 28 19 25 25 31 34 34 34 35 35 35
56 56 56 56 56 55 54 55 54 55 54 56 57 56 56 55 50 50 51 50 47 46 44 44 38 39 37 35 33 33 29 27 28 28 26 26 27 30 30 34 34 36 36
56 56 55 55 55 53 47 45 50 55 55 56 55 55 53 48 48 44 43 43 46 45 42 40 38 36 35 34 30 27 27 26 25 29 28 27 29 27 27 29 31 30 32
56 55 55 54 55 55 45 44 43 53 55 56 54 54 48 46 43 40 34 33 34 34 34 37 35 33 31 30 27 28 29 29 27 26 27 28 30 29 29 23 32 33 33
56 56 56 56 56 55 44 44 43 53 54 54 54 49 45 41 38 36 34 31 30 31 31 32 34 32 30 29 29 27 27 25 27 23 26 26 29 29 30 28 32 33 34
56 56 56 56 56 56 41 42 44 50 43 39 38 38 38 35 34 34 31 31 30 30 30 31 29 26 25 24 23 23 25 24 28 22 26 27 26 26 30 28 27 30 33
56 55 54 51 44 51 41 40 42 39 35 33 34 34 33 32 33 33 31 29 27 26 24 20 20 17 17 19 20 20 20 23 23 21 24 26 23 23 23 27 29 30 28

GFSMA_sfc_dewp_084.txt.gz
Dewpoint
62 63 63 62 58 54 54 52 52 50 51 50 53 52 53 52 53 54 56 59 59 58 56 56 55 55 54 53 52 52 52 52 51 50 50 49 48 48 47 46 46 46 46
61 62 62 61 54 53 51 51 53 52 51 51 53 53 52 52 52 54 55 56 58 58 57 56 55 55 54 53 52 52 52 51 50 50 49 49 48 47 46 45 44 44 44
61 61 61 60 55 54 52 55 54 53 52 51 52 52 53 53 52 53 53 54 56 58 57 57 55 54 53 53 52 51 51 50 50 50 49 48 47 46 44 43 42 41 41
60 59 59 59 60 59 56 54 52 52 52 52 51 51 52 53 53 52 53 53 54 53 57 57 57 56 53 52 52 51 50 50 50 49 49 49 48 47 45 44 43 41 41
58 58 59 59 60 59 57 54 54 52 50 51 50 52 52 53 53 52 52 52 53 53 53 57 57 57 57 55 53 52 51 50 50 50 50 49 49 48 47 45 44 43 42
58 57 57 58 57 57 55 54 52 52 50 50 45 48 52 53 52 53 53 52 53 53 53 53 55 54 56 56 55 54 53 53 51 50 50 50 49 49 49 47 46 45 45
55 56 57 57 56 54 54 53 52 50 48 49 50 50 50 51 52 52 52 52 52 53 54 53 53 53 54 57 57 55 55 55 54 53 51 51 51 50 50 50 48 48 47
54 54 54 53 53 52 53 53 51 51 50 52 48 47 45 47 48 50 52 52 52 52 53 54 54 53 52 53 54 57 57 57 56 55 54 53 53 52 52 51 51 50 50
52 51 52 50 51 51 51 52 52 51 50 51 51 51 49 48 47 49 49 50 50 52 52 52 54 54 54 53 54 55 55 56 58 57 57 56 56 54 53 52 52 52 52
52 49 50 51 53 52 53 52 54 52 54 50 52 53 54 54 51 49 51 49 50 50 50 49 51 52 51 54 54 53 53 52 54 57 57 56 54 54 54 54 53 53 53
53 54 53 54 53 57 56 55 55 55 57 56 51 53 52 55 55 52 50 53 51 48 48 49 49 48 46 49 53 53 51 51 52 55 57 56 55 53 52 51 50 50 50
53 53 55 56 56 57 56 57 56 56 56 56 57 56 53 52 53 52 51 51 52 52 50 49 49 47 47 50 51 50 51 49 50 53 54 54 53 52 51 49 49 48 47
51 52 54 56 55 55 57 57 57 57 57 56 55 55 57 55 55 54 52 51 52 53 53 54 52 49 48 50 50 49 50 48 48 50 51 51 51 49 47 46 45 45 45
49 52 53 54 54 55 56 57 56 55 57 57 56 56 55 55 55 53 53 52 50 50 52 52 55 55 55 53 52 48 48 46 46 48 48 48 48 47 45 44 44 44 44
49 50 53 53 52 54 54 54 56 55 55 56 55 56 55 55 55 56 56 55 52 49 48 51 52 52 53 51 50 47 46 45 44 45 46 45 45 45 43 42 41 41 41
50 51 52 52 53 53 53 53 54 55 55 56 57 56 55 56 57 57 56 56 55 52 51 51 51 51 50 49 47 46 46 45 44 43 43 42 42 41 38 37 37 36 35
52 51 51 51 52 52 52 52 52 52 54 54 55 55 55 57 56 57 57 56 56 54 52 52 51 52 51 47 42 44 44 43 42 42 41 40 38 36 35 34 34 33 33
52 51 51 50 51 51 52 52 51 50 51 53 54 55 55 55 56 56 56 55 55 55 53 50 51 50 48 47 43 43 44 43 43 41 41 40 37 35 34 34 34 34 33
54 53 52 52 51 52 51 52 51 52 52 52 53 54 54 54 55 56 57 55 54 53 53 52 50 47 48 47 44 44 43 41 33 43 40 37 35 35 35 34 35 34 34
57 56 55 54 53 53 53 52 52 53 53 53 53 54 54 54 55 56 55 54 53 52 51 50 49 45 43 43 44 41 39 38 35 29 31 29 33 35 35 34 35 35 36
57 56 55 55 54 54 53 53 52 53 53 54 54 53 53 53 51 53 54 53 52 50 50 48 44 41 39 39 41 40 40 36 34 32 28 27 29 29 32 36 34 36 36
56 56 55 55 54 53 47 45 50 53 52 52 52 53 53 49 49 45 46 46 50 50 48 47 47 43 42 40 38 36 32 30 29 32 29 28 28 29 30 30 33 35 36
56 55 55 54 54 54 46 44 43 52 53 53 53 53 52 50 47 48 39 38 37 36 36 46 44 39 35 35 34 33 32 31 31 31 29 27 30 28 29 25 33 35 35
55 55 55 55 55 54 45 43 42 50 52 52 52 51 51 46 44 41 37 36 35 33 34 35 35 34 34 36 35 34 33 33 32 30 29 26 26 26 29 30 32 34 35
55 55 55 54 54 54 44 42 43 50 52 44 40 40 42 39 37 39 35 32 31 30 33 33 33 33 32 32 32 33 30 30 29 25 27 27 26 26 25 28 28 29 32
55 55 54 50 43 52 40 40 43 44 37 34 33 34 34 34 34 35 33 31 28 27 27 27 27 28 29 27 26 28 28 28 28 25 24 28 25 25 23 26 26 26 26

GFSMA_sfc_dewp_087.txt.gz
Dewpoint
62 62 63 62 60 58 57 54 53 50 50 51 52 53 53 54 54 55 56 59 59 59 57 57 56 56 55 54 54 54 53 52 52 51 51 50 49 49 49 48 48 48 48
62 61 62 61 58 55 54 52 52 49 50 49 51 52 53 53 54 55 56 57 58 58 58 57 56 56 55 54 53 53 53 52 52 51 50 49 48 47 46 46 47 47 45
62 61 62 60 55 53 51 51 52 52 50 51 51 52 53 53 54 54 55 55 56 57 58 58 56 56 55 54 53 53 52 51 51 50 50 49 48 47 46 45 44 44 43
61 62 61 59 55 53 49 52 52 51 51 51 51 52 52 53 53 53 54 54 55 54 57 58 57 56 55 54 53 53 52 52 51 51 50 49 48 47 46 45 44 43 43
61 61 61 59 57 55 53 53 52 51 50 51 50 51 52 53 53 52 53 53 54 54 54 57 57 57 57 55 54 53 53 52 52 51 51 50 49 48 47 46 45 44 43
61 61 59 59 59 57 54 52 51 51 51 50 48 51 51 53 53 53 53 53 53 53 54 54 55 54 56 57 55 53 53 53 52 52 52 51 51 50 49 48 47 47 46
59 58 58 57 57 55 53 51 50 49 49 49 49 49 50 52 51 52 53 52 52 53 53 53 54 53 54 57 57 55 55 55 54 52 52 52 52 51 51 50 50 49 48
58 58 57 57 56 54 52 50 49 50 48 50 48 47 45 46 49 51 52 52 52 53 52 53 53 53 53 53 54 57 56 56 56 55 54 54 54 54 52 52 52 51 50
58 57 57 57 55 54 52 50 49 48 46 50 49 48 46 45 46 48 49 51 51 52 53 53 53 53 53 53 54 55 55 56 58 59 58 57 56 55 54 53 53 53 53
55 55 54 54 53 53 51 51 51 50 51 47 52 54 53 52 47 46 50 48 49 50 51 52 53 53 53 53 53 53 52 53 55 58 59 59 58 57 56 55 55 54 54
51 51 52 51 51 52 53 51 53 53 53 52 50 51 51 54 53 50 47 50 51 49 50 50 51 53 53 53 54 53 52 51 52 55 57 58 58 57 57 56 55 55 54
52 51 50 49 53 53 54 53 53 53 55 55 54 53 51 51 52 53 51 50 49 50 49 48 49 49 49 49 50 52 51 50 51 53 55 56 57 57 57 55 53 52 51
50 51 52 50 53 54 56 55 55 55 55 56 55 54 55 54 55 53 51 50 50 52 52 52 49 48 48 48 48 49 51 48 49 51 53 54 55 56 55 54 52 51 49
49 52 54 55 54 55 56 56 56 56 56 56 55 55 55 55 56 55 53 52 50 50 51 51 53 51 49 48 49 48 49 47 48 49 50 52 52 52 51 51 50 48 46
50 51 53 55 55 55 55 56 55 55 55 55 55 55 55 54 55 55 54 54 52 49 47 50 52 53 53 53 51 52 50 48 46 47 48 48 49 49 48 48 47 46 45
50 50 52 53 53 54 54 54 55 55 54 54 55 55 54 54 55 56 55 55 55 52 50 50 51 52 53 54 54 52 49 47 45 44 45 45 46 46 46 46 45 44 43
50 49 50 52 52 52 53 53 52 53 54 53 54 55 54 53 54 55 56 55 55 55 52 51 51 51 51 50 49 48 48 47 45 43 43 43 43 43 43 42 41 41 39
50 49 50 51 52 52 52 52 52 51 52 53 53 54 54 55 54 54 54 54 54 55 53 51 52 50 51 52 50 46 46 46 43 43 42 41 41 40 39 38 37 36 35
51 50 50 50 50 50 50 51 51 51 51 51 52 53 53 54 54 55 55 54 55 54 54 53 52 51 51 49 46 44 44 43 42 42 41 40 40 39 37 36 35 35 35
53 51 50 50 49 49 49 50 50 51 51 50 51 51 53 54 54 54 54 55 55 54 53 53 52 51 46 46 47 45 42 41 40 40 40 39 39 38 37 36 35 35 36
55 53 51 50 49 48 47 49 50 50 51 50 51 51 52 52 49 51 54 54 55 54 53 51 51 48 45 40 44 45 44 43 39 38 36 36 35 34 35 37 34 36 37
57 55 54 53 51 50 45 44 47 50 50 50 51 52 53 48 48 45 46 47 52 53 52 51 50 48 45 46 47 44 41 34 35 38 37 36 37 34 30 32 34 35 36
55 57 56 56 55 54 46 44 43 52 52 52 52 52 52 53 48 51 44 42 39 37 37 49 49 49 47 42 37 34 33 33 32 36 35 32 35 34 34 29 34 35 37
55 55 55 56 55 55 45 44 42 50 52 52 52 52 52 50 49 48 43 38 34 34 34 35 35 34 35 36 36 35 34 33 33 34 35 30 32 31 30 32 34 34 35
55 55 55 55 55 55 45 44 43 50 51 52 46 42 49 47 41 42 38 33 31 30 34 35 34 34 34 35 35 33 31 31 29 30 33 31 30 30 29 29 29 33 32
54 54 55 55 52 55 44 44 44 52 50 37 34 35 35 37 36 36 35 32 29 28 29 29 28 30 31 31 31 32 32 29 29 28 28 27 26 26 25 28 26 25 26

GFSMA_sfc_dewp_090.txt.gz
Dewpoint
62 63 63 62 61 60 57 55 53 51 50 52 53 53 53 54 55 55 56 58 59 59 58 58 58 57 57 56 55 55 55 53 53 53 52 51 51 51 50 50 50 50 48
62 62 62 61 60 58 56 54 52 50 50 51 53 53 53 54 55 55 55 56 58 59 58 57 57 57 56 55 55 54 53 53 52 51 51 50 49 49 49 48 48 47 46
62 62 61 60 58 56 54 52 52 50 49 51 52 53 54 54 55 55 55 55 56 58 58 58 57 56 55 55 54 54 53 53 52 51 50 49 49 47 47 47 47 46 44
61 62 61 58 56 54 52 51 51 49 49 51 52 53 53 54 54 54 55 55 55 55 57 58 58 57 56 55 54 54 53 53 52 51 51 49 49 48 47 46 45 45 44
61 62 61 58 56 53 50 52 51 49 49 51 52 53 53 53 54 53 54 54 54 54 54 58 58 58 57 56 55 55 54 53 53 53 52 51 50 48 48 47 46 44 44
62 61 61 58 55 52 50 53 51 51 51 51 51 52 53 53 53 53 53 53 53 54 54 54 55 55 57 57 55 55 55 55 54 53 53 53 51 50 49 48 48 47 46
61 61 60 58 56 49 51 52 51 50 51 51 51 51 52 53 52 53 53 53 53 53 54 54 54 53 54 57 57 55 56 56 55 54 54 53 53 52 51 51 50 49 49
61 61 59 58 58 51 53 51 50 50 50 50 49 48 48 48 50 52 53 53 53 53 53 53 53 53 53 53 54 57 56 57 56 55 54 55 55 54 53 52 52 51 51
59 59 58 58 57 54 52 50 49 49 48 49 49 49 46 46 47 49 52 52 52 53 53 53 53 53 53 53 54 55 55 55 58 58 58 57 56 56 56 54 53 53 53
58 58 58 57 56 55 52 49 49 49 50 48 50 53 51 50 47 46 49 51 52 52 53 53 53 53 53 53 53 53 52 52 54 58 59 59 58 57 57 57 56 55 55
57 58 57 57 56 56 53 51 50 51 51 51 49 51 51 52 51 47 44 48 49 50 52 53 53 53 53 53 53 53 51 51 52 55 57 59 59 59 58 57 57 57 57
53 55 55 55 56 55 54 54 52 52 53 52 52 52 51 51 52 51 49 48 48 49 49 50 51 52 53 54 54 52 51 50 51 53 55 56 58 59 59 59 58 57 56
51 52 52 52 54 54 55 53 54 53 54 53 52 53 53 52 54 53 51 50 50 51 51 51 49 49 50 51 52 51 51 49 49 51 53 54 55 56 57 57 58 57 56
51 51 51 50 51 53 53 53 53 54 53 55 54 54 54 54 54 54 52 51 48 49 50 51 52 50 49 49 49 48 48 47 48 49 50 52 53 54 55 56 56 56 55
51 52 53 51 52 53 55 55 54 53 53 54 54 54 55 55 55 55 55 54 51 46 46 50 52 53 53 52 50 50 49 48 46 47 48 50 51 53 53 53 53 53 52
51 51 53 53 53 53 54 55 54 54 54 54 55 54 55 54 55 55 55 54 54 52 49 50 51 53 54 54 52 51 50 49 47 45 46 47 49 51 51 50 49 49 49
50 50 51 53 54 54 54 54 54 54 54 53 54 54 54 53 54 54 55 55 54 54 51 51 52 52 52 52 53 52 53 52 52 45 45 46 47 47 47 46 46 46 46
49 49 50 51 52 53 53 53 52 52 53 53 53 53 53 53 53 53 54 53 54 54 53 50 51 53 51 51 52 50 49 49 49 46 45 45 45 44 44 43 43 43 43
49 49 49 49 50 51 51 51 52 51 51 53 53 53 52 53 53 53 53 53 53 53 53 53 51 52 53 49 49 49 47 48 48 47 44 43 43 43 43 42 41 40 38
51 50 49 49 49 49 50 50 51 50 51 51 51 52 52 52 53 52 52 53 53 52 52 52 52 53 51 49 49 48 44 45 46 44 43 42 41 42 41 39 38 37 37
52 51 50 49 49 49 49 49 50 49 50 50 50 51 51 50 48 50 52 52 53 52 52 52 52 52 50 42 47 48 49 48 41 39 41 40 40 40 40 39 38 38 37
55 53 51 51 50 49 45 42 46 48 48 48 49 49 50 46 46 44 45 45 49 52 52 52 51 51 50 50 49 48 46 38 39 39 38 37 39 37 38 39 38 37 37
56 55 54 52 51 51 44 42 41 47 47 48 48 49 49 50 46 50 45 42 40 37 38 51 52 52 51 51 49 40 36 36 34 36 35 33 35 35 37 37 38 37 38
55 55 55 55 54 53 45 43 40 46 47 48 49 49 50 50 51 50 50 44 39 36 37 38 41 40 37 38 40 38 35 33 33 33 35 31 32 32 34 35 37 37 37
55 55 55 56 56 55 46 45 44 49 49 50 51 51 52 51 48 44 45 38 33 32 35 35 35 35 35 35 36 35 33 33 30 30 31 31 31 31 32 32 34 35 33
56 56 56 56 52 56 48 44 45 53 52 51 51 41 37 45 44 40 48 39 33 30 30 30 30 30 30 31 31 33 32 30 29 26 28 28 28 28 26 29 30 30 28

GFSMA_sfc_dewp_093.txt.gz
Dewpoint
61 63 63 63 62 60 58 57 53 52 53 53 54 54 54 54 54 55 56 59 60 60 58 58 58 57 57 56 56 55 55 55 54 54 53 53 53 52 52 51 51 49 49
62 62 63 62 61 59 57 55 52 51 52 53 53 53 54 54 55 55 55 55 59 59 58 57 57 57 57 56 55 55 55 54 54 53 52 52 51 51 50 50 50 48 48
62 62 62 62 60 58 56 54 51 50 52 53 53 53 54 55 55 55 55 56 56 58 59 59 57 56 56 56 55 55 55 53 53 53 51 50 50 49 49 49 48 46 45
62 62 61 60 58 57 55 53 51 49 51 53 53 53 54 55 55 55 55 55 55 55 57 58 58 57 56 56 56 55 54 54 53 52 51 50 50 49 48 48 48 46 44
62 62 61 59 57 56 54 52 50 49 51 52 53 53 53 54 54 54 54 54 54 55 55 57 57 57 57 56 55 55 55 54 54 53 52 51 50 49 48 47 47 46 46
62 62 61 58 56 54 51 51 49 50 51 52 52 52 53 53 54 54 54 54 54 54 54 55 56 55 57 57 56 56 56 55 55 54 53 52 51 50 49 49 48 47 47
61 62 60 58 56 51 51 52 49 50 51 52 52 52 53 52 53 53 53 53 53 53 54 54 55 54 55 58 58 56 57 57 56 55 55 54 53 52 51 50 50 49 49
62 61 61 58 56 50 51 52 49 50 50 53 51 51 50 50 52 52 53 53 53 53 53 53 53 53 53 54 55 58 57 57 57 56 55 55 55 54 53 53 52 51 51
61 61 60 58 57 52 53 52 49 48 49 49 52 51 48 48 49 50 52 52 53 53 53 53 53 53 53 53 54 55 55 56 58 58 58 57 57 57 56 54 54 54 53
60 60 60 58 57 53 53 53 51 49 51 49 50 51 51 50 48 45 49 52 52 52 53 53 53 53 53 53 53 53 52 53 54 58 59 59 58 58 57 57 57 56 55
58 59 59 58 57 53 55 54 52 52 52 51 50 51 51 51 49 47 46 49 51 52 52 53 53 53 53 53 53 53 51 51 52 55 57 59 59 59 58 58 58 58 57
56 57 58 57 56 54 55 54 52 53 53 52 52 52 51 50 50 49 47 47 49 50 51 53 53 53 53 53 53 52 51 50 50 53 55 56 57 59 59 59 59 58 58
54 55 57 55 55 53 55 55 54 53 52 52 51 51 53 52 53 51 50 49 48 50 50 50 51 52 53 54 54 52 52 49 49 51 53 54 55 56 57 58 59 59 59
53 54 54 55 55 55 55 54 54 53 54 53 51 52 52 53 54 53 51 50 47 48 49 50 52 50 50 51 51 50 52 48 49 49 50 52 53 54 54 55 56 57 58
52 52 52 52 54 54 55 55 54 53 53 53 53 53 52 53 53 54 54 53 50 47 47 49 51 53 51 51 50 50 49 48 47 47 48 49 51 52 53 53 54 55 56
51 51 51 51 51 53 54 55 54 53 53 53 53 54 54 54 54 55 54 54 53 51 49 49 50 53 54 54 53 52 51 49 47 45 45 46 47 49 50 51 52 53 54
51 51 51 51 51 51 53 53 52 53 52 51 53 53 53 53 54 54 55 54 54 53 51 50 50 51 52 53 53 54 54 52 51 46 45 45 45 46 48 49 50 51 52
50 50 51 51 51 52 52 52 52 53 52 51 52 52 52 53 53 53 54 54 53 53 52 50 51 51 51 52 52 52 53 53 53 51 47 46 45 45 45 46 47 48 48
49 50 50 50 51 51 53 53 52 52 53 53 53 52 52 52 52 53 52 53 53 53 53 52 51 51 52 50 51 51 52 51 50 49 46 44 44 45 45 46 46 45 44
48 48 49 49 50 51 51 52 52 52 51 52 52 52 52 52 52 52 52 52 52 52 52 52 52 51 51 50 48 49 48 45 49 49 47 45 44 44 44 44 43 42 41
50 49 49 49 49 49 49 50 50 50 50 50 51 51 52 51 48 49 52 52 52 52 51 51 50 51 50 49 48 51 50 51 49 47 44 42 42 42 43 42 42 40 39
52 51 50 49 49 48 44 42 46 49 49 49 49 50 50 47 47 44 44 45 49 51 50 50 50 49 49 50 51 50 49 49 45 40 40 39 39 39 40 40 39 39 38
54 53 52 51 50 50 43 43 42 48 48 49 49 48 49 49 46 49 44 42 42 42 42 49 49 49 49 51 51 50 50 49 48 38 37 33 36 35 38 39 39 38 37
56 55 55 54 53 52 44 42 41 47 48 48 48 48 48 48 48 48 48 47 46 47 46 45 48 49 51 45 44 47 50 39 33 34 35 32 32 32 35 36 37 37 37
55 56 56 56 55 54 46 43 42 48 48 48 48 48 48 48 45 43 47 47 47 36 35 36 36 35 35 36 37 38 35 35 32 30 30 32 31 31 32 32 34 35 35
54 56 55 55 49 48 36 37 42 51 49 49 49 48 42 45 43 41 46 48 47 36 32 30 29 30 30 31 30 31 33 33 30 26 27 28 27 28 27 30 30 30 29

GFSMA_sfc_dewp_099.txt.gz
Dewpoint
64 64 64 64 64 65 63 61 61 61 60 59 59 58 58 58 58 57 57 61 61 62 60 60 61 60 59 59 59 58 57 56 55 56 55 55 55 55 54 54 53 52 51
63 62 63 62 63 64 62 60 60 60 58 58 58 57 57 57 57 58 56 58 60 60 61 60 59 59 59 59 58 57 57 56 55 55 55 55 55 54 53 53 53 51 50
63 62 62 61 62 63 60 59 59 59 57 57 57 56 56 57 56 57 56 57 58 59 60 60 60 59 58 58 57 56 55 55 55 55 55 55 54 54 53 52 51 50 49
63 63 62 62 62 60 58 58 57 57 57 56 56 55 55 55 56 56 55 55 56 55 59 60 60 60 59 57 56 56 56 56 55 55 54 54 53 53 53 52 50 50 48
64 63 62 61 61 58 57 57 57 57 55 55 55 55 55 54 55 54 55 56 57 56 56 59 59 58 59 58 57 56 56 56 55 55 54 53 53 52 52 51 50 49 49
63 63 62 61 60 58 56 56 56 57 56 55 53 54 55 55 55 55 55 54 55 57 56 56 56 55 57 58 57 56 57 56 56 55 54 53 52 52 52 52 51 50 49
62 62 61 60 60 58 57 56 56 55 56 56 54 54 54 55 56 55 55 54 55 55 56 55 54 54 55 58 58 57 57 57 56 55 55 54 53 53 52 51 51 51 51
63 62 60 59 59 58 56 55 55 54 55 55 52 52 51 53 54 55 55 55 56 55 55 56 55 55 54 54 55 58 58 58 57 56 56 56 56 55 53 53 52 51 51
61 62 61 60 59 58 56 54 54 54 53 55 55 52 51 50 51 54 55 54 55 55 55 55 56 55 55 55 56 56 56 57 59 59 58 58 58 57 56 55 54 53 53
60 61 61 60 58 58 56 55 53 54 54 53 54 53 55 53 50 51 53 54 55 54 55 54 54 55 55 55 55 54 53 53 55 58 60 60 59 59 58 58 57 57 55
58 59 60 59 58 57 57 55 54 54 54 54 53 52 52 55 54 51 49 51 53 53 53 55 54 54 55 55 55 55 52 51 52 55 58 59 60 60 59 59 59 59 58
57 58 60 60 58 58 57 56 55 53 53 54 55 53 52 51 51 51 50 51 51 52 53 54 55 55 54 54 54 53 51 50 51 53 55 56 57 59 60 60 60 60 59
57 58 60 59 58 58 57 56 55 54 55 55 54 53 54 53 53 51 49 48 51 53 54 55 55 54 53 55 55 52 51 49 49 51 53 54 55 56 57 58 59 60 60
55 58 59 59 58 57 57 56 55 55 54 55 54 54 54 54 54 51 47 46 48 51 52 51 54 55 55 55 55 51 54 48 48 49 50 52 53 53 54 55 56 57 58
56 58 57 57 57 56 56 55 54 53 54 55 54 54 54 54 54 54 53 52 48 47 46 50 51 54 55 55 54 56 55 52 48 48 48 49 51 51 52 53 53 54 55
56 56 56 55 55 55 55 55 54 53 53 54 55 55 54 53 53 54 54 55 53 51 47 49 51 54 54 53 53 54 55 51 49 47 47 47 48 49 50 51 51 52 53
55 55 55 55 54 54 55 55 53 53 52 51 53 55 54 53 53 54 55 54 53 53 50 49 50 52 55 54 53 54 53 53 52 47 46 46 46 47 47 48 49 49 50
54 55 55 54 54 54 55 55 54 53 52 51 52 53 52 52 52 53 54 53 53 53 51 50 51 53 54 55 56 54 53 53 53 50 47 46 46 45 45 45 45 46 47
54 54 54 53 53 54 54 55 54 54 54 53 53 52 52 52 52 53 53 53 53 53 54 53 51 51 53 55 54 53 53 53 53 51 48 46 46 47 46 45 45 45 45
53 53 54 54 55 53 53 53 54 54 54 54 55 55 53 52 52 52 53 52 52 52 53 54 53 52 53 54 54 53 53 54 53 52 50 49 48 47 46 46 46 45 45
52 53 53 53 53 53 53 53 52 52 53 53 54 54 55 53 49 50 52 51 52 52 52 52 52 53 53 54 54 53 53 54 55 54 53 54 55 54 53 46 46 45 45
52 52 51 52 52 51 45 45 50 53 52 52 52 53 53 49 49 44 44 44 49 52 53 51 50 50 51 51 52 52 52 51 50 55 54 54 55 54 53 52 43 42 42
54 53 52 52 52 52 43 43 43 52 52 53 53 53 52 51 49 52 46 42 42 42 42 50 50 50 50 51 52 51 51 52 52 53 53 52 42 41 39 40 40 40 39
54 54 53 53 52 44 37 40 41 49 51 51 52 52 52 52 52 52 52 52 51 50 48 46 48 50 49 40 42 47 48 50 46 37 38 42 35 32 33 34 36 36 36
44 40 39 41 44 36 35 36 39 46 48 49 50 50 44 46 42 40 47 48 47 47 36 36 34 33 33 32 33 38 41 43 42 33 29 33 32 29 28 28 31 32 32
37 36 34 33 33 33 34 36 37 44 46 45 35 34 33 34 35 36 41 42 44 43 32 31 30 29 29 28 28 29 31 34 36 30 28 28 28 30 25 27 27 29 29

GFSMA_sfc_dewp_102.txt.gz
Dewpoint
65 64 64 65 64 67 65 64 64 63 64 63 61 60 58 57 56 55 58 62 62 62 61 61 61 61 60 60 59 58 57 57 56 56 56 56 56 55 55 55 54 53 53
65 65 65 64 66 66 66 64 63 63 64 63 60 59 58 57 57 56 57 59 61 61 62 61 61 60 60 59 59 58 57 56 56 56 56 56 56 55 55 54 53 52 52
65 64 64 64 65 66 62 62 62 62 62 61 59 58 57 57 55 54 56 58 59 60 60 61 61 60 59 59 59 58 57 56 56 56 56 55 55 55 54 54 53 51 51
64 64 64 64 64 64 62 61 60 60 61 61 58 57 56 55 55 54 52 56 56 55 59 60 61 61 60 59 58 57 57 57 56 56 55 55 55 55 54 53 52 51 50
63 63 63 63 63 60 61 60 59 59 60 60 57 56 55 54 55 53 53 53 56 56 56 59 59 59 60 59 58 57 57 56 56 55 55 55 55 54 54 53 52 52 50
63 63 63 61 60 58 58 59 58 59 59 58 55 55 55 54 54 54 53 51 55 56 56 57 57 56 59 59 58 57 57 57 56 56 55 55 55 54 53 53 52 51 51
63 63 62 61 59 58 57 57 57 57 58 59 55 55 56 55 55 55 55 52 52 54 55 55 55 54 55 58 59 57 57 57 57 56 56 55 54 54 54 53 53 53 52
64 63 62 61 60 58 57 57 57 56 57 58 55 53 52 54 55 55 54 54 53 52 53 53 54 53 52 53 55 58 58 58 57 57 56 56 56 56 54 53 53 53 53
63 62 62 61 59 59 57 58 58 58 56 57 58 53 51 50 52 54 55 54 54 52 52 53 54 53 53 52 54 55 56 57 59 59 59 58 58 57 57 55 54 53 53
62 62 62 61 60 59 57 58 58 57 56 54 56 54 54 52 50 51 53 54 55 54 54 52 52 53 53 53 54 53 53 53 55 59 60 59 59 59 58 58 57 57 56
61 61 61 61 61 59 58 57 58 58 57 55 55 55 55 54 53 49 49 52 54 54 52 53 52 52 53 53 54 53 52 52 53 55 58 60 61 60 60 59 59 59 58
57 58 60 61 60 60 59 57 56 57 57 57 57 57 54 53 53 51 48 51 52 52 52 52 54 53 53 53 53 52 52 51 51 53 55 57 58 60 61 61 60 60 60
56 57 59 61 59 59 59 57 56 56 57 56 57 56 55 54 53 54 51 52 51 51 53 53 54 54 54 56 55 52 52 49 50 51 53 54 55 56 57 58 59 60 61
56 57 59 60 60 59 58 57 56 56 56 56 57 55 54 55 54 53 52 50 47 48 50 53 55 55 55 54 55 51 54 48 48 49 50 52 53 53 54 55 56 56 57
55 57 59 59 59 59 59 59 58 56 56 56 57 57 55 56 56 56 53 51 49 46 41 45 52 55 55 55 54 56 56 52 48 48 48 49 50 52 52 53 53 54 55
57 58 58 58 58 57 57 57 56 55 55 55 55 55 55 55 55 55 54 55 54 49 44 45 48 51 54 52 53 56 56 52 49 47 46 47 48 50 50 51 51 52 53
57 57 57 57 56 56 56 55 55 54 54 54 54 53 53 53 53 54 54 54 52 52 49 46 48 52 52 55 53 54 53 55 54 48 47 46 46 47 48 48 49 49 50
56 56 56 56 55 56 56 56 55 54 53 53 53 53 52 51 53 54 54 53 52 53 52 50 48 50 53 53 55 55 53 52 54 49 47 46 46 46 46 46 46 46 47
55 55 55 56 55 55 56 55 55 54 54 53 53 52 52 54 53 53 53 53 53 52 54 52 49 52 53 53 54 54 55 55 53 51 47 46 46 46 46 45 45 45 45
54 54 54 55 56 56 55 55 55 54 54 53 54 53 53 53 53 52 53 53 52 52 53 53 52 51 51 51 52 51 53 54 52 51 50 49 48 48 46 46 45 45 45
54 54 54 55 55 55 54 55 55 55 54 55 55 54 54 51 48 50 52 54 53 52 52 53 51 50 50 50 51 52 52 53 54 54 54 55 54 55 54 48 48 46 45
54 54 53 54 55 53 47 46 51 55 55 54 55 55 55 50 50 44 45 45 51 54 53 52 50 50 51 51 52 52 53 53 52 54 54 54 54 53 48 43 40 41 42
55 53 53 53 53 51 37 41 43 54 55 55 55 54 54 52 51 53 46 42 43 42 43 52 54 53 53 53 51 52 53 52 52 51 49 53 46 34 35 36 38 38 38
47 50 48 53 44 37 36 36 38 47 51 52 54 51 51 52 48 47 52 52 52 51 48 48 49 48 40 36 38 42 43 44 45 35 36 36 33 29 30 32 34 34 33
39 37 37 38 37 35 35 35 38 47 48 50 38 35 37 39 36 37 44 47 46 37 35 35 34 32 31 30 31 38 40 40 41 33 30 34 32 28 28 28 30 32 32
35 34 32 33 33 32 33 35 39 44 45 35 32 32 32 33 33 34 39 41 41 36 32 30 28 27 26 27 26 28 29 34 35 32 26 29 30 30 26 29 29 31 31

GFSMA_sfc_dewp_105.txt.gz
Dewpoint
67 67 66 65 64 66 65 65 65 63 63 62 63 62 61 60 60 59 60 62 63 63 61 61 61 62 62 61 61 60 59 57 56 56 57 57 56 56 56 56 55 55 54
67 65 65 64 64 67 67 66 65 63 63 62 63 63 59 56 58 60 58 60 61 62 62 62 62 61 61 61 60 58 57 57 56 56 56 57 56 56 56 55 54 53 53
66 65 65 64 65 67 66 66 65 63 63 64 63 62 57 55 55 58 58 58 60 60 61 62 62 61 60 60 59 58 58 58 57 57 56 56 56 56 55 55 53 53 52
65 66 65 65 65 66 65 64 63 61 62 62 61 60 56 55 54 57 56 57 58 56 60 61 62 62 61 60 59 58 58 57 58 58 56 56 56 56 55 54 54 52 52
65 65 64 64 65 64 63 62 62 61 61 61 61 57 56 54 54 49 57 57 57 57 55 60 60 60 61 61 59 58 58 57 56 56 56 56 56 56 55 54 54 53 52
65 64 64 63 64 63 62 61 60 61 61 61 61 57 56 57 53 53 51 54 57 58 55 57 58 57 59 60 60 58 58 58 57 57 56 56 56 55 55 55 54 53 52
63 64 64 62 61 60 60 60 60 59 60 60 59 58 59 58 56 56 54 50 52 55 54 58 57 55 56 59 60 58 58 58 57 57 56 56 56 56 56 54 54 53 53
63 63 63 61 60 58 58 58 58 58 58 60 56 55 53 54 56 56 55 53 56 53 54 57 57 56 55 55 56 59 58 58 58 57 57 58 57 57 57 55 54 54 54
63 63 63 61 60 59 57 58 58 58 57 58 57 54 51 51 53 56 56 54 55 53 53 54 55 53 54 53 55 56 56 57 59 59 59 58 58 57 57 55 54 54 54
62 63 63 61 60 59 58 58 58 58 58 56 57 59 56 55 52 51 54 55 55 53 55 53 53 53 52 53 54 53 53 53 55 59 60 59 59 59 58 57 57 56 56
61 62 62 62 60 60 59 59 59 60 59 57 56 57 57 55 55 50 49 53 55 54 52 53 52 53 53 53 54 54 52 51 52 56 58 60 60 60 60 59 59 58 58
60 60 62 62 61 60 59 59 59 59 58 58 57 56 54 53 53 51 50 53 53 54 54 54 54 54 54 54 53 51 51 50 51 53 55 57 59 60 61 61 60 60 60
58 60 61 62 61 60 60 59 58 58 58 57 56 56 56 56 56 54 52 53 52 54 55 55 53 54 52 55 54 52 51 49 50 52 53 55 56 57 58 59 60 61 61
57 58 59 61 61 60 59 58 58 58 58 58 58 58 57 56 56 55 53 52 51 51 54 53 53 54 55 55 55 51 54 48 48 49 51 52 53 54 54 55 56 56 57
56 58 58 58 60 60 59 58 57 56 57 57 58 59 56 56 56 55 54 53 50 48 47 51 52 56 56 56 55 56 56 52 48 48 48 49 51 52 52 53 54 54 55
56 57 58 58 60 60 59 58 57 56 57 57 57 57 57 57 56 56 56 54 53 50 47 48 49 51 56 54 55 57 58 53 49 47 47 47 49 50 50 51 51 52 53
56 56 57 58 58 58 58 58 58 57 56 56 55 56 56 56 55 55 56 55 54 53 50 48 49 50 55 56 53 56 56 57 56 47 46 47 47 47 48 48 49 50 50
56 56 57 57 57 57 57 56 55 55 55 54 54 54 54 55 55 55 54 54 53 52 51 49 49 49 50 54 55 55 55 52 54 49 47 46 46 46 46 46 47 47 47
56 55 56 56 55 56 56 56 56 55 55 55 55 54 54 53 53 54 54 54 53 52 54 52 52 53 52 52 52 54 55 55 55 51 46 45 45 46 46 46 46 46 46
55 55 55 56 56 55 55 55 55 55 55 55 55 55 54 53 53 54 54 54 54 53 52 51 51 52 52 53 53 53 54 54 54 53 49 48 48 47 46 46 45 45 45
55 55 55 56 56 56 54 55 55 55 54 54 55 53 54 52 48 51 53 54 54 54 52 52 51 50 50 50 52 52 49 51 53 54 54 55 55 54 44 41 41 42 42
54 55 55 56 56 54 38 44 51 54 54 54 53 54 54 49 49 43 44 43 48 54 53 52 51 51 51 52 53 53 52 52 51 54 51 54 45 37 36 37 38 38 38
55 55 55 55 49 40 37 38 40 53 56 55 55 54 54 53 50 54 47 42 43 42 42 53 53 52 52 49 45 48 49 49 48 43 45 46 35 32 33 34 35 35 35
44 44 44 43 40 35 35 36 36 50 52 51 42 41 44 44 37 40 46 50 46 39 39 44 43 37 34 34 37 41 42 43 44 35 36 37 33 29 31 32 33 33 33
36 36 36 36 35 34 35 36 39 47 47 37 34 34 36 35 34 36 43 45 36 32 33 32 31 31 31 31 31 37 35 35 36 33 28 33 32 29 29 29 31 32 32
34 33 32 32 33 31 33 35 41 45 35 32 31 31 32 32 32 33 38 40 38 31 29 28 28 27 27 27 27 27 29 33 33 32 27 29 31 29 26 29 31 32 32

GFSMA_sfc_dewp_108.txt.gz
Dewpoint
67 67 66 66 65 66 65 64 63 63 62 62 62 62 62 62 61 60 61 62 63 64 62 62 62 62 62 62 62 61 60 58 56 58 58 58 56 58 58 57 56 55 55
67 66 66 65 65 66 65 65 64 63 62 62 61 62 62 62 59 60 61 61 62 62 62 62 62 62 62 62 62 61 59 57 57 57 57 59 56 58 58 57 55 55 54
66 65 65 65 65 66 65 64 64 63 62 62 61 62 62 61 60 59 59 61 61 61 61 62 62 62 61 61 60 59 58 59 58 57 56 57 56 57 57 56 55 54 53
66 66 65 64 64 65 64 64 63 63 62 61 60 61 62 60 59 58 58 59 59 59 61 62 62 62 62 61 59 58 57 58 58 57 57 56 57 56 56 56 54 54 53
66 65 64 64 64 64 64 63 63 62 61 61 62 61 62 58 58 57 57 58 58 58 59 61 61 61 61 61 60 58 57 57 58 57 55 57 57 57 56 55 55 54 53
65 65 64 64 64 64 63 62 61 62 61 61 62 62 61 56 54 56 57 58 58 57 57 59 59 59 59 61 61 59 58 57 57 57 56 56 57 57 56 55 55 54 53
64 65 64 63 63 62 62 61 61 61 60 61 60 59 58 58 55 56 57 57 57 56 57 58 58 57 59 60 61 59 58 59 58 57 57 57 57 58 57 56 55 55 54
64 64 63 62 61 60 60 60 60 59 59 61 58 56 53 54 56 54 54 55 55 54 56 57 57 56 56 57 58 60 58 59 59 57 58 58 58 58 57 56 55 55 55
63 63 63 61 60 59 58 59 59 58 57 59 59 55 52 51 53 56 55 54 55 54 54 55 57 56 55 55 57 57 57 57 59 60 59 59 58 58 58 56 56 55 55
62 63 63 61 59 59 58 58 58 58 58 57 58 59 56 54 52 51 55 55 55 55 54 54 55 55 54 55 55 55 53 53 55 59 60 60 59 59 59 58 57 57 56
62 63 62 61 59 58 58 58 58 58 59 57 56 56 56 56 54 52 51 53 55 55 55 54 53 55 53 54 55 54 52 51 52 56 58 60 60 60 59 59 59 58 58
61 62 62 61 59 58 58 58 58 58 58 58 57 57 55 53 52 51 50 52 52 53 54 55 54 54 54 54 53 52 51 50 51 53 56 58 59 60 60 60 60 60 60
59 61 61 61 61 59 59 59 59 59 58 58 57 57 57 55 55 53 52 52 52 54 54 54 55 53 54 55 53 51 51 49 50 52 53 55 56 57 59 60 61 61 61
59 60 61 61 61 60 59 59 59 58 58 58 57 56 56 55 56 55 53 53 51 52 54 53 55 55 53 53 54 50 52 48 48 49 51 52 53 54 55 56 57 58 59
58 59 60 61 60 60 59 59 58 58 58 58 58 57 57 57 56 55 54 54 51 49 50 53 53 55 54 55 54 55 55 50 48 47 48 50 51 52 53 53 54 55 55
57 58 58 59 60 60 59 58 58 57 57 57 58 57 57 57 56 56 55 54 52 49 46 49 52 53 56 54 54 55 55 52 49 47 46 47 48 50 51 51 52 52 53
57 57 57 58 59 59 59 58 57 56 56 56 57 57 57 57 56 56 56 55 54 53 49 49 50 50 52 55 55 56 55 56 56 48 46 46 46 47 48 48 49 50 50
57 57 58 58 58 58 58 58 57 56 56 56 56 56 56 56 55 56 55 55 54 54 52 50 50 50 49 50 54 55 54 54 57 51 48 47 46 46 46 46 46 47 47
57 57 57 57 57 57 57 57 56 56 56 55 55 55 55 55 55 55 55 54 54 54 53 51 50 50 51 52 52 54 53 55 55 53 49 47 46 46 46 46 46 46 46
56 56 56 57 57 56 56 56 56 55 55 55 55 55 55 54 54 54 54 54 53 53 53 52 51 51 52 52 53 52 52 53 53 53 51 49 47 46 43 43 42 42 43
56 56 56 56 56 55 52 56 56 55 55 55 55 55 55 53 49 51 53 53 54 53 52 52 51 50 50 50 50 50 50 51 51 52 53 53 44 41 39 39 39 40 40
55 55 55 56 55 42 38 39 49 55 54 54 54 54 54 49 49 44 45 45 52 53 53 52 51 50 50 51 51 50 50 51 48 45 49 47 39 36 36 37 37 37 37
55 54 54 45 40 38 37 38 38 53 54 51 48 49 52 46 45 51 44 41 41 38 37 48 50 51 49 44 44 46 48 48 47 41 43 43 35 32 33 34 35 35 35
42 42 41 40 38 35 35 37 37 51 43 39 38 41 43 39 36 40 47 41 36 34 36 37 37 33 32 33 36 40 41 41 40 33 34 35 32 30 31 32 33 33 33
34 34 34 34 34 34 35 36 42 43 37 34 33 34 34 34 34 36 44 38 32 30 32 32 32 31 30 30 31 38 34 35 34 31 28 32 31 29 29 29 32 32 30
33 32 31 32 32 32 34 35 39 36 32 30 31 31 32 32 32 34 38 36 31 30 29 28 27 28 28 28 28 28 30 33 32 28 28 29 30 29 26 30 30 31 31

GFSMA_sfc_dewp_111.txt.gz
Dewpoint
64 65 65 64 64 64 64 63 62 62 60 61 61 61 62 62 63 63 64 63 64 65 64 63 63 62 62 62 63 61 60 59 58 58 58 59 60 59 59 57 57 56 56
64 64 64 64 63 64 63 63 62 61 60 61 61 62 62 63 62 62 62 62 62 63 63 63 62 62 62 62 62 62 61 60 58 58 58 59 59 59 59 57 56 56 55
65 64 63 63 63 64 63 63 61 61 60 61 61 62 62 62 62 61 61 61 61 61 62 63 63 63 62 62 62 61 61 60 58 58 58 57 58 58 57 57 56 55 55
65 64 63 63 63 63 63 62 62 61 61 61 61 61 61 63 63 61 61 61 60 59 61 62 62 62 62 62 61 60 59 58 58 58 57 58 57 57 57 56 55 55 54
65 64 64 63 64 63 62 62 61 62 60 61 61 60 61 62 62 60 59 60 59 59 59 61 61 61 62 62 60 59 58 57 57 58 56 55 57 57 57 56 55 54 54
64 64 63 62 63 62 63 62 61 61 61 61 61 60 60 62 62 59 58 59 58 58 59 60 60 60 60 61 61 59 58 57 57 57 56 56 57 57 57 56 56 55 54
64 63 63 62 62 62 62 62 61 61 60 60 60 60 60 60 60 59 58 58 57 57 58 59 59 59 59 60 61 60 58 58 57 58 57 56 58 58 58 57 56 55 55
63 63 62 61 62 61 61 61 61 59 60 61 58 58 53 55 58 58 58 58 57 57 57 58 58 58 58 59 59 60 59 59 58 57 58 59 57 58 58 57 57 56 55
63 63 62 61 61 60 60 60 60 58 57 60 60 56 52 51 54 56 56 56 56 55 57 57 57 57 57 58 58 58 57 57 60 61 59 59 59 59 59 57 56 56 56
62 62 61 60 59 58 58 59 59 59 58 58 58 58 56 53 51 51 55 54 55 55 55 57 56 56 56 56 57 56 54 53 56 60 60 60 60 59 59 58 58 57 57
61 62 60 59 58 58 58 58 58 59 59 58 57 56 55 55 55 53 50 53 55 55 54 55 56 56 56 56 56 55 53 52 53 57 59 60 60 60 60 59 59 59 58
61 62 61 59 58 58 58 57 58 58 58 58 57 56 55 53 53 53 52 53 52 53 54 55 55 55 55 54 55 54 52 51 51 53 57 58 60 60 60 60 60 60 59
60 61 61 59 59 58 57 57 57 58 58 58 57 56 56 55 55 54 52 52 52 53 53 54 55 54 54 55 54 53 52 49 50 52 53 55 56 58 59 60 60 60 61
59 60 61 60 59 58 58 57 58 58 57 58 57 57 57 56 56 54 52 53 50 51 53 53 55 55 54 54 53 50 52 48 48 49 51 52 53 55 56 57 58 59 60
58 60 60 60 60 58 58 58 58 58 57 57 57 57 57 57 56 56 54 54 51 48 51 53 53 55 55 54 53 54 52 49 48 48 48 50 51 52 53 54 55 56 57
58 58 60 59 59 59 59 58 57 58 58 57 57 57 56 57 56 55 54 54 53 51 50 52 53 54 56 55 54 55 54 50 47 46 46 47 48 50 51 51 52 53 53
57 57 57 59 59 59 59 58 58 57 57 57 57 57 56 56 57 56 55 55 53 52 49 49 51 54 52 55 55 56 55 55 55 47 46 46 46 46 48 48 49 50 50
57 56 57 57 59 59 59 58 57 57 57 56 56 57 57 57 56 56 56 55 55 55 53 51 52 52 52 52 53 55 55 56 56 52 48 47 46 46 46 46 46 46 46
57 57 57 57 58 59 58 58 57 56 56 56 56 56 56 56 55 56 55 55 55 55 54 54 53 53 52 51 50 52 53 55 55 52 48 46 47 47 45 45 45 45 45
57 57 58 57 57 57 57 57 57 57 56 56 56 56 56 55 55 55 55 55 55 54 54 53 52 51 51 52 53 52 51 53 53 53 51 44 42 41 41 41 41 42 41
57 57 57 57 57 57 53 57 56 55 55 55 55 55 55 54 50 52 54 54 54 53 53 52 52 52 51 50 50 51 51 51 52 50 51 44 41 39 39 39 39 39 39
56 56 56 55 46 42 38 40 52 55 55 55 55 55 55 50 48 45 45 47 51 53 53 52 52 51 51 50 51 50 50 50 48 43 48 41 39 35 36 36 37 37 37
53 52 48 44 40 39 37 39 39 55 54 50 49 52 52 45 46 51 44 39 37 37 37 50 51 49 48 41 44 47 48 48 47 38 42 38 34 31 34 35 35 35 35
39 39 38 38 36 35 36 37 41 44 40 38 39 41 42 40 37 43 43 37 34 34 35 36 36 33 33 34 37 40 42 41 35 32 33 34 32 30 31 33 34 33 32
33 33 34 34 34 34 36 38 41 38 34 33 33 34 35 35 35 38 38 33 31 30 33 33 32 32 32 32 33 38 34 35 33 29 29 33 31 28 29 30 32 32 30
32 32 32 32 33 33 35 36 36 34 31 31 31 32 33 33 34 36 37 33 29 29 29 28 28 28 28 29 29 29 31 33 32 28 28 30 30 28 26 30 29 27 25

GFSMA_sfc_dewp_114.txt.gz
Dewpoint
65 65 64 64 63 63 63 63 61 61 60 61 61 61 61 62 63 63 64 63 64 65 65 64 63 62 61 62 63 62 61 60 59 58 58 59 60 59 59 59 58 57 57
65 65 64 63 63 63 63 62 62 61 60 59 60 60 61 62 62 63 64 64 63 64 64 64 63 62 61 61 63 62 61 60 58 59 59 59 59 59 59 58 57 56 56
64 64 64 63 64 63 62 62 60 59 59 59 59 60 61 62 62 62 63 63 63 62 63 63 63 63 62 62 62 62 61 60 58 58 58 58 59 58 58 57 56 56 55
65 63 63 63 63 63 63 61 61 61 60 60 58 59 60 62 62 62 63 63 62 62 61 62 62 62 63 63 61 61 60 59 58 59 59 58 58 58 57 57 56 55 55
65 64 63 62 63 62 62 62 62 61 60 60 60 60 61 61 62 63 62 61 61 60 60 61 61 61 62 63 62 61 60 58 58 58 59 57 58 58 58 57 56 55 55
65 64 63 62 63 63 62 62 61 61 61 60 60 60 60 61 62 62 61 60 60 59 59 60 61 60 60 62 62 60 60 59 58 58 57 57 55 58 57 57 56 55 55
64 64 63 62 62 63 62 62 62 61 60 61 60 60 59 60 61 61 61 60 59 58 59 59 60 60 60 61 61 61 59 59 57 57 57 57 58 59 58 57 57 56 55
63 63 62 62 62 62 62 62 61 60 60 61 58 57 54 56 59 60 60 59 58 58 58 59 59 59 59 59 59 61 60 58 58 58 59 58 59 59 59 58 57 56 56
63 63 62 62 61 61 61 61 61 60 58 60 59 56 52 51 55 58 59 58 57 57 57 58 59 58 58 58 59 59 57 57 59 60 59 59 59 58 59 58 58 57 56
63 63 62 61 61 61 61 60 61 60 58 57 59 59 57 55 52 52 57 58 57 56 56 57 58 57 58 58 58 56 54 53 56 59 59 60 60 59 59 59 58 57 57
62 62 61 60 59 58 58 58 59 59 59 58 58 56 57 55 55 54 52 54 55 56 56 57 57 56 56 57 57 56 54 53 53 57 60 60 60 60 60 60 59 59 58
60 61 61 60 58 57 56 57 58 58 58 58 58 57 55 54 53 54 53 53 54 55 55 56 56 56 56 56 56 54 53 51 52 54 57 59 60 60 60 60 60 59 59
60 61 60 59 58 58 57 57 57 58 58 58 57 57 57 56 55 54 54 53 53 54 54 55 55 56 56 56 56 53 52 50 50 52 54 56 57 59 60 60 60 60 60
60 60 61 60 58 57 58 57 56 57 58 58 57 57 56 56 56 55 53 53 51 52 53 53 55 55 55 55 54 52 54 49 49 50 51 52 54 55 56 58 59 60 60
60 60 61 59 58 57 57 57 56 57 58 58 57 57 56 56 56 56 55 54 51 49 50 52 53 55 54 55 54 54 54 50 48 48 48 50 51 52 53 54 55 56 58
59 59 60 59 59 58 58 57 56 57 57 57 57 57 56 56 56 56 56 54 53 50 49 52 53 54 55 54 53 55 53 51 47 47 47 47 48 50 51 51 52 53 54
59 59 59 60 59 57 58 57 57 57 57 57 57 57 56 57 56 56 56 55 54 52 51 51 53 54 54 55 56 55 55 55 53 46 45 46 46 47 48 48 49 50 50
59 59 59 59 59 58 58 57 57 57 57 57 57 56 56 56 56 56 56 54 54 53 52 50 51 53 54 54 54 56 56 56 56 50 46 47 46 47 46 45 45 46 46
58 57 58 58 58 59 58 58 58 57 57 57 57 57 57 57 56 56 56 56 56 56 55 54 53 53 54 54 54 54 53 55 56 53 49 45 46 45 44 44 43 43 44
57 57 57 57 58 59 59 58 57 57 57 56 56 56 56 56 56 56 56 56 55 55 55 54 54 53 53 54 54 52 52 53 52 49 43 41 41 41 41 41 41 41 41
57 57 57 57 57 58 56 58 57 57 56 56 56 56 56 54 50 53 55 55 54 54 53 53 52 52 51 51 51 52 52 51 50 50 45 43 41 39 39 39 39 39 39
57 57 57 56 51 45 38 40 52 56 56 55 55 55 56 49 49 45 46 46 50 54 53 52 52 51 51 51 50 50 51 49 48 42 45 38 37 36 36 37 37 37 37
49 48 47 46 42 39 37 39 39 56 55 54 54 54 54 48 49 52 39 38 37 36 36 51 52 52 51 49 48 49 49 48 46 37 43 34 34 31 34 36 36 35 35
36 37 36 37 37 37 36 38 40 45 41 40 39 41 44 42 39 46 45 38 34 34 35 37 37 35 34 35 40 42 43 37 34 32 34 32 32 30 32 34 34 32 31
33 32 32 33 33 34 36 38 40 38 34 33 33 34 35 36 35 40 39 34 31 31 33 33 33 32 32 32 35 39 36 36 33 30 30 32 29 28 29 30 32 32 29
33 32 31 32 32 32 35 35 35 34 32 31 31 32 33 34 35 37 36 34 30 29 29 29 29 29 29 29 29 31 33 34 31 29 29 30 29 28 25 29 30 30 28

GFSMA_sfc_dewp_117.txt.gz
Dewpoint
66 64 63 63 62 62 65 64 63 61 60 60 61 61 61 61 61 62 63 63 64 66 66 65 64 62 61 62 62 62 61 60 59 59 59 60 60 59 59 59 59 58 57
66 64 63 63 62 62 62 63 62 61 60 60 60 61 60 61 61 61 62 64 63 64 65 65 64 62 61 61 63 63 62 61 60 58 58 60 60 59 59 58 57 57 57
64 64 64 63 63 62 61 60 59 59 58 59 59 60 60 60 61 61 62 63 63 62 63 64 64 63 62 61 62 62 62 61 59 58 59 59 60 59 59 58 57 57 56
64 64 64 63 63 62 62 61 61 60 58 58 57 58 59 60 61 61 62 63 63 63 62 63 63 63 63 62 62 61 60 60 60 59 59 59 59 59 58 57 57 56 56
64 63 63 63 62 63 62 62 62 61 60 60 59 57 59 59 60 62 62 62 63 63 63 62 62 61 62 62 62 61 61 59 59 59 59 58 58 58 58 57 57 56 55
64 63 63 62 62 62 62 62 61 61 61 60 59 60 60 61 61 62 62 62 62 61 61 61 61 60 60 62 62 62 61 59 58 59 59 58 58 58 58 57 57 56 55
64 63 63 62 62 63 62 62 62 61 60 61 59 59 59 60 61 61 62 62 61 60 60 60 60 59 60 61 62 62 61 60 59 59 58 58 58 56 59 58 57 56 55
64 63 63 62 62 63 62 62 61 60 61 60 58 57 54 57 59 61 61 61 60 60 59 59 59 59 59 61 60 61 61 60 59 58 59 59 57 57 59 58 57 57 56
63 63 62 62 62 62 62 62 62 60 59 60 59 57 52 52 55 59 59 60 59 59 59 59 59 59 59 60 59 59 58 58 60 59 60 59 58 58 59 58 58 57 57
62 62 62 62 61 62 61 62 61 61 60 58 59 59 57 55 54 52 57 58 59 58 57 58 59 59 59 59 58 57 55 54 56 59 60 60 59 58 59 59 58 58 58
62 62 62 61 61 62 62 61 60 60 59 58 58 57 57 56 55 54 53 54 57 58 57 57 58 58 58 58 58 57 54 53 53 57 60 59 59 59 59 59 59 59 59
61 62 62 61 61 61 59 59 59 60 59 58 58 57 56 54 55 54 53 54 54 56 57 57 57 57 57 57 57 55 53 52 52 54 57 59 60 60 60 60 60 59 59
61 61 61 61 61 59 58 58 59 59 58 58 58 57 57 56 56 56 55 54 53 55 55 56 57 57 56 57 56 54 53 50 51 52 54 56 58 59 60 60 61 60 60
61 61 61 61 60 58 58 58 58 57 58 58 57 57 57 57 56 55 55 54 52 52 53 54 56 56 56 56 55 52 55 49 50 50 52 53 54 56 57 58 59 59 60
60 60 61 61 59 58 59 57 57 56 57 57 57 57 56 56 56 56 56 55 53 50 52 53 54 55 55 56 55 55 55 51 49 48 49 50 52 53 54 55 56 57 58
60 59 61 60 59 58 58 57 56 56 56 57 58 57 56 56 56 56 56 55 54 52 50 53 54 54 55 55 54 55 55 52 48 47 47 48 49 50 51 52 53 53 55
59 59 60 59 58 58 57 57 56 56 56 56 57 57 56 56 56 56 56 55 54 53 50 51 52 53 54 55 54 56 55 55 56 48 46 46 46 47 48 49 49 50 51
59 59 60 60 59 58 57 57 56 56 56 55 56 57 56 56 56 56 56 55 54 54 53 50 52 53 53 55 55 55 55 55 55 50 47 45 45 46 46 45 46 46 47
59 59 60 59 59 58 57 57 57 56 56 56 57 56 56 56 56 56 55 55 55 55 53 53 52 53 54 54 54 54 55 56 56 52 46 46 45 46 46 46 45 45 45
59 59 59 59 59 58 57 57 57 57 57 57 57 57 57 56 56 56 56 55 55 55 54 53 53 53 53 54 54 53 53 54 53 45 43 41 41 42 42 42 42 42 41
58 58 58 59 58 58 58 58 58 57 57 57 57 57 57 55 51 53 56 56 55 55 55 54 53 52 52 51 52 53 53 53 52 45 42 42 41 39 39 40 40 40 39
52 57 57 57 56 47 39 45 54 57 56 56 55 56 56 50 49 45 46 46 52 55 53 52 52 52 52 52 52 52 52 50 47 46 42 37 37 36 37 37 37 37 37
37 38 42 44 41 38 37 39 43 57 56 56 55 55 55 53 50 52 38 38 37 36 37 52 52 52 51 51 50 49 50 49 46 40 39 33 34 32 35 36 36 35 35
34 34 35 36 37 35 38 39 38 50 44 41 41 43 50 47 42 47 45 40 35 35 36 38 39 37 36 37 42 45 46 37 35 33 36 30 31 30 32 34 34 33 32
34 33 33 33 34 34 35 36 39 38 35 34 34 35 37 39 36 40 42 35 32 31 33 34 33 33 33 34 36 41 36 37 33 32 32 31 29 28 30 31 32 33 31
32 33 32 32 33 32 35 35 34 33 32 32 32 32 34 35 36 37 38 35 31 29 29 29 29 29 29 30 30 31 34 35 32 31 30 30 28 28 25 29 31 29 28

GFSMA_sfc_dewp_120.txt.gz
Dewpoint
66 64 63 64 64 63 64 64 64 61 61 61 61 61 61 61 61 63 63 63 64 65 67 66 64 64 63 63 63 62 61 61 59 59 59 60 60 59 59 59 59 59 59
66 65 63 63 62 64 65 64 63 61 60 60 60 60 60 61 61 62 62 63 63 64 65 66 64 63 62 61 63 62 62 61 60 58 59 60 59 59 58 57 59 58 57
65 65 64 63 62 62 63 63 61 59 59 59 59 60 61 61 61 61 62 62 63 62 63 65 66 64 63 61 62 63 62 61 60 60 60 60 59 59 57 59 58 57 57
65 64 64 63 62 62 61 61 61 60 58 58 58 59 59 60 60 60 61 62 63 63 63 63 64 64 63 63 62 61 61 61 60 59 59 59 59 58 59 59 57 57 57
64 64 64 63 62 62 62 61 61 61 60 59 58 57 58 59 60 61 61 61 62 63 63 63 63 62 62 63 63 61 61 59 58 60 59 59 59 59 59 58 57 57 56
64 64 63 62 63 63 62 62 61 61 61 60 60 59 59 59 60 60 61 62 63 63 63 63 63 62 60 62 63 62 61 58 57 60 59 58 58 59 58 58 57 56 56
64 63 63 62 63 63 62 61 62 61 60 61 59 59 59 60 60 61 61 62 62 62 62 62 62 61 61 61 62 62 61 59 59 59 59 59 59 59 59 58 57 57 56
64 64 63 62 63 63 63 62 62 60 60 61 58 57 55 57 59 60 61 61 61 62 61 61 61 60 60 61 61 61 61 61 59 58 60 60 59 58 58 58 58 57 56
64 64 63 63 63 63 63 62 62 61 59 60 60 57 53 52 55 59 59 61 61 60 60 61 60 60 60 60 60 59 58 59 61 61 61 61 60 58 57 58 58 58 57
64 64 63 63 63 63 63 62 62 62 60 58 59 59 57 56 53 52 58 59 60 59 59 60 60 59 59 60 59 57 55 55 57 60 61 61 60 58 57 58 59 58 58
63 63 63 62 62 62 62 61 62 61 61 59 59 58 57 56 56 54 52 55 58 59 59 59 59 59 59 59 59 57 54 53 54 58 59 60 60 59 58 58 59 59 59
62 62 62 62 62 62 62 62 61 61 60 60 59 58 57 56 55 54 54 54 55 57 58 59 59 59 59 59 58 55 53 52 52 55 58 59 59 59 59 58 59 59 59
61 62 62 62 62 62 62 61 61 60 60 59 58 58 58 57 56 56 55 54 54 55 56 58 58 58 58 58 58 55 53 50 51 53 54 56 58 59 59 59 60 60 60
61 62 62 62 62 61 61 60 60 60 60 59 58 58 57 57 57 56 55 55 52 52 54 54 57 57 57 57 56 52 56 50 50 50 52 53 54 56 57 58 59 59 60
58 59 61 61 61 61 60 59 60 59 58 58 58 58 57 57 57 56 56 56 54 50 52 54 54 57 58 57 56 56 56 51 49 49 49 50 52 53 54 55 57 57 58
60 61 61 61 61 60 59 59 59 58 57 57 57 57 57 57 57 56 56 56 56 54 52 54 55 56 58 57 56 56 56 52 48 48 47 48 49 51 52 52 53 54 55
60 60 60 60 60 59 59 59 58 57 56 56 56 57 56 57 56 56 56 56 55 54 51 53 55 56 56 55 54 56 56 55 54 47 46 46 46 47 48 49 49 50 51
59 59 59 60 59 59 59 58 57 56 55 55 56 56 56 56 56 56 56 55 55 54 53 51 53 53 55 55 55 55 55 55 56 50 48 46 46 45 45 46 46 47 47
59 59 60 60 59 58 58 58 57 56 56 55 55 56 56 56 55 56 56 55 55 54 54 53 52 53 54 55 54 55 55 56 56 51 46 45 45 45 45 45 45 45 45
58 59 59 59 59 59 58 58 57 56 55 55 56 56 56 56 56 55 55 55 55 55 54 54 53 52 53 54 54 54 53 54 50 45 43 42 42 43 43 42 43 43 42
42 44 58 59 59 59 58 58 57 56 56 55 56 57 57 55 51 53 56 55 55 55 54 53 53 53 53 52 53 54 53 54 51 45 42 42 41 40 41 41 41 41 40
38 38 40 45 51 44 40 45 53 56 57 56 56 57 57 50 50 46 46 48 53 55 54 54 53 52 52 53 54 54 53 50 46 45 41 37 38 37 38 39 39 39 38
36 36 36 36 37 37 37 43 43 57 56 56 56 56 56 55 51 54 39 38 37 37 39 54 53 52 51 52 52 51 52 50 47 42 38 32 34 33 36 37 37 36 36
34 34 34 35 35 35 36 38 41 50 46 40 40 43 53 52 50 47 45 40 36 36 37 39 41 39 39 41 46 49 50 39 36 35 37 30 32 31 33 35 35 34 33
32 32 32 32 33 33 35 35 36 36 34 33 33 34 35 41 37 42 43 36 32 32 34 34 34 34 34 34 36 43 39 39 34 33 33 30 30 29 30 31 33 33 30
31 30 30 30 31 31 33 35 35 33 32 31 32 32 33 35 36 37 41 37 33 30 30 30 29 29 29 30 30 32 34 36 32 31 32 29 29 29 26 30 29 29 30

GFSMA_sfc_dewp_123.txt.gz
Dewpoint
68 69 69 70 69 70 68 67 66 67 66 66 65 64 64 64 64 64 64 64 64 65 67 68 67 65 65 64 65 64 63 61 61 60 60 60 60 61 59 59 60 59 59
67 68 68 69 68 69 68 67 66 66 66 65 64 63 63 63 63 64 64 64 63 64 65 67 67 66 64 62 64 63 62 62 61 60 60 60 60 59 59 59 59 59 59
67 67 66 67 68 68 68 67 65 65 65 64 63 63 63 63 62 62 63 64 64 61 63 64 65 66 64 62 63 62 62 61 61 60 61 60 59 59 58 59 59 59 58
67 66 65 66 67 66 66 64 63 63 65 64 64 63 63 63 62 62 62 62 63 63 63 63 63 65 65 63 62 61 61 62 61 61 60 60 59 59 59 59 59 59 58
66 65 65 65 66 66 65 63 63 63 62 62 63 63 63 62 62 61 61 61 62 63 63 62 62 62 64 64 63 61 61 60 61 59 59 60 59 59 59 59 59 58 58
65 66 65 65 65 64 64 64 63 63 62 62 61 62 62 62 62 62 62 61 62 62 63 63 65 63 61 63 63 63 61 60 59 60 59 59 59 58 59 59 58 57 57
65 66 65 64 64 64 64 64 63 62 62 62 61 60 61 62 61 62 62 62 62 62 63 63 64 63 62 62 62 63 62 61 59 59 60 60 60 59 59 59 58 57 57
66 66 65 64 64 64 64 64 62 61 62 62 60 59 57 59 60 62 62 62 62 63 62 63 63 63 63 63 62 62 62 62 60 59 61 60 59 59 59 58 58 57 57
66 66 65 64 64 64 63 62 62 62 60 62 62 60 56 55 57 60 60 62 61 62 62 62 62 62 62 63 61 60 58 59 60 61 61 61 60 59 58 58 58 58 57
65 66 65 64 64 64 64 63 64 64 63 60 62 62 61 58 55 55 59 60 61 61 61 62 62 61 62 62 60 57 55 55 57 60 61 61 61 59 58 57 58 58 58
66 66 65 65 65 64 64 63 63 64 63 61 60 60 60 59 59 56 54 57 59 60 60 61 62 61 61 61 60 58 54 53 55 58 60 61 61 60 59 58 58 58 58
65 65 64 64 64 64 64 63 64 64 63 62 61 60 59 57 56 57 55 56 56 58 60 60 60 61 61 61 59 55 53 52 52 56 58 59 60 60 59 59 58 59 59
63 64 64 64 64 64 63 64 63 64 63 62 62 61 61 60 59 58 57 56 55 57 59 59 60 60 60 61 60 55 53 51 51 53 55 57 58 58 58 59 59 58 59
64 63 63 64 64 63 63 63 63 63 63 62 62 61 60 60 60 58 57 56 54 55 55 55 59 59 60 60 58 53 57 50 50 51 52 54 55 56 56 57 58 58 59
64 64 64 63 64 63 63 62 62 62 61 61 61 61 60 60 59 59 58 57 56 52 52 54 55 58 59 59 57 59 59 52 49 49 50 51 52 54 54 55 56 57 58
63 63 63 63 63 63 62 61 60 61 60 61 60 59 59 59 58 59 58 59 58 55 52 55 56 57 58 58 56 58 58 52 49 48 48 49 50 51 52 52 53 55 56
62 61 61 61 61 62 61 60 59 60 60 59 59 58 58 58 58 58 58 57 57 57 54 55 56 57 57 57 58 57 57 58 57 48 47 47 47 48 49 49 50 51 52
61 61 61 61 61 61 60 59 59 59 59 58 58 58 57 57 57 57 57 57 57 57 55 52 55 55 56 57 57 56 55 56 56 51 47 46 46 46 46 46 47 47 48
47 58 60 60 60 60 60 59 59 59 58 58 57 57 57 57 57 57 57 57 57 56 55 53 53 55 55 56 56 56 56 56 56 52 47 45 46 46 45 45 45 46 46
42 43 46 57 59 59 59 59 59 58 58 58 57 57 57 57 57 57 57 57 57 56 55 54 53 53 54 55 55 54 54 57 55 48 44 45 44 44 44 44 44 45 44
39 41 40 41 41 44 39 40 55 58 57 57 56 57 58 56 51 54 57 57 56 55 54 54 53 53 53 53 53 55 54 54 51 46 44 43 43 43 42 42 43 42 42
35 36 37 38 37 37 36 37 41 56 57 56 56 57 57 51 51 47 47 48 54 56 54 54 53 52 53 53 54 54 53 52 47 46 42 38 39 38 39 40 40 40 40
33 33 32 34 34 34 35 37 38 49 56 56 57 57 57 56 52 55 45 41 40 40 42 56 54 54 53 54 54 53 54 53 51 44 39 33 35 34 38 38 38 38 38
32 32 32 31 32 31 34 35 36 38 37 36 37 39 45 53 54 54 47 44 41 39 41 43 50 52 50 51 54 53 52 40 37 36 38 32 33 32 34 36 36 35 35
32 32 31 31 30 31 32 33 35 35 34 33 33 34 35 38 36 40 46 40 34 33 35 35 35 35 35 35 40 47 41 41 35 34 35 32 32 31 32 32 34 33 33
32 32 32 32 31 30 32 32 31 33 33 33 32 32 33 34 34 35 42 40 36 32 32 32 32 31 31 31 31 33 43 44 34 33 33 30 30 30 28 30 30 31 31